<?xml version="1.0" encoding="UTF-8" standalone="no" ?>
<gpx xmlns="http://www.topografix.com/GPX/1/1" xmlns:xsi="http://www.w3.org/2001/XMLSchema-instance" xsi:schemaLocation="http://www.topografix.com/GPX/1/1 http://www.topografix.com/GPX/1/1/gpx.xsd" version="1.1" creator="VisuGPX - https://www.visugpx.com">
  <metadata>
    <name>Cologne - Encausse 2015 06 10</name>
    <desc><![CDATA[
]]></desc>
  </metadata>
  <trk>
    <name><![CDATA[Cologne - Encausse 2015 06 10]]></name>
    <extensions>
      <line xmlns="http://www.topografix.com/GPX/gpx_style/0/2">
        <width>4</width>
      </line>
    </extensions>
    <trkseg>
      <trkpt lat="43.7218" lon="0.97755">
        <ele>203.2</ele>
        <time>2015-06-10T08:04:26.000Z</time>
      </trkpt>
      <trkpt lat="43.7218" lon="0.97755">
        <ele>203</ele>
        <time>2015-06-10T08:04:25.000Z</time>
      </trkpt>
      <trkpt lat="43.72184" lon="0.97771">
        <ele>203</ele>
        <time>2015-06-10T08:04:45.000Z</time>
      </trkpt>
      <trkpt lat="43.72189" lon="0.97784">
        <ele>203</ele>
        <time>2015-06-10T08:04:53.000Z</time>
      </trkpt>
      <trkpt lat="43.72192" lon="0.97796">
        <ele>203</ele>
        <time>2015-06-10T08:05:01.000Z</time>
      </trkpt>
      <trkpt lat="43.72205" lon="0.97806">
        <ele>202</ele>
        <time>2015-06-10T08:05:17.000Z</time>
      </trkpt>
      <trkpt lat="43.72214" lon="0.97819">
        <ele>201</ele>
        <time>2015-06-10T08:05:21.000Z</time>
      </trkpt>
      <trkpt lat="43.72223" lon="0.9783">
        <ele>200</ele>
        <time>2015-06-10T08:05:29.000Z</time>
      </trkpt>
      <trkpt lat="43.72236" lon="0.97829">
        <ele>200.2</ele>
        <time>2015-06-10T08:05:36.000Z</time>
      </trkpt>
      <trkpt lat="43.72238" lon="0.97843">
        <ele>200.3</ele>
        <time>2015-06-10T08:05:49.000Z</time>
      </trkpt>
      <trkpt lat="43.72249" lon="0.97847">
        <ele>200.4</ele>
        <time>2015-06-10T08:05:52.000Z</time>
      </trkpt>
      <trkpt lat="43.72261" lon="0.97851">
        <ele>198.9</ele>
        <time>2015-06-10T08:05:58.000Z</time>
      </trkpt>
      <trkpt lat="43.7227" lon="0.97859">
        <ele>199.5</ele>
        <time>2015-06-10T08:06:03.000Z</time>
      </trkpt>
      <trkpt lat="43.72279" lon="0.97865">
        <ele>199.7</ele>
        <time>2015-06-10T08:06:10.000Z</time>
      </trkpt>
      <trkpt lat="43.72288" lon="0.97872">
        <ele>199.3</ele>
        <time>2015-06-10T08:06:15.000Z</time>
      </trkpt>
      <trkpt lat="43.72297" lon="0.9788">
        <ele>199</ele>
        <time>2015-06-10T08:06:23.000Z</time>
      </trkpt>
      <trkpt lat="43.72307" lon="0.97881">
        <ele>198.7</ele>
        <time>2015-06-10T08:06:31.000Z</time>
      </trkpt>
      <trkpt lat="43.72311" lon="0.97894">
        <ele>198.4</ele>
        <time>2015-06-10T08:06:40.000Z</time>
      </trkpt>
      <trkpt lat="43.7232" lon="0.979">
        <ele>198.4</ele>
        <time>2015-06-10T08:06:49.000Z</time>
      </trkpt>
      <trkpt lat="43.7233" lon="0.97905">
        <ele>198.8</ele>
        <time>2015-06-10T08:06:56.000Z</time>
      </trkpt>
      <trkpt lat="43.72338" lon="0.97912">
        <ele>198.7</ele>
        <time>2015-06-10T08:07:03.000Z</time>
      </trkpt>
      <trkpt lat="43.72347" lon="0.97918">
        <ele>198.4</ele>
        <time>2015-06-10T08:07:12.000Z</time>
      </trkpt>
      <trkpt lat="43.72352" lon="0.97929">
        <ele>198.3</ele>
        <time>2015-06-10T08:07:21.000Z</time>
      </trkpt>
      <trkpt lat="43.72348" lon="0.97942">
        <ele>198.2</ele>
        <time>2015-06-10T08:07:29.000Z</time>
      </trkpt>
      <trkpt lat="43.72345" lon="0.97955">
        <ele>198</ele>
        <time>2015-06-10T08:07:41.000Z</time>
      </trkpt>
      <trkpt lat="43.72341" lon="0.97968">
        <ele>198</ele>
        <time>2015-06-10T08:07:49.000Z</time>
      </trkpt>
      <trkpt lat="43.72337" lon="0.9798">
        <ele>197.8</ele>
        <time>2015-06-10T08:07:56.000Z</time>
      </trkpt>
      <trkpt lat="43.72332" lon="0.97992">
        <ele>198</ele>
        <time>2015-06-10T08:08:03.000Z</time>
      </trkpt>
      <trkpt lat="43.72328" lon="0.98004">
        <ele>198.1</ele>
        <time>2015-06-10T08:08:10.000Z</time>
      </trkpt>
      <trkpt lat="43.72327" lon="0.98018">
        <ele>198.7</ele>
        <time>2015-06-10T08:08:18.000Z</time>
      </trkpt>
      <trkpt lat="43.72334" lon="0.98028">
        <ele>199.2</ele>
        <time>2015-06-10T08:08:25.000Z</time>
      </trkpt>
      <trkpt lat="43.72343" lon="0.98036">
        <ele>199.6</ele>
        <time>2015-06-10T08:08:32.000Z</time>
      </trkpt>
      <trkpt lat="43.72351" lon="0.98042">
        <ele>200.5</ele>
        <time>2015-06-10T08:08:41.000Z</time>
      </trkpt>
      <trkpt lat="43.7236" lon="0.98048">
        <ele>201</ele>
        <time>2015-06-10T08:08:51.000Z</time>
      </trkpt>
      <trkpt lat="43.72367" lon="0.98055">
        <ele>201.2</ele>
        <time>2015-06-10T08:09:01.000Z</time>
      </trkpt>
      <trkpt lat="43.72369" lon="0.98068">
        <ele>201.7</ele>
        <time>2015-06-10T08:09:09.000Z</time>
      </trkpt>
      <trkpt lat="43.72371" lon="0.98081">
        <ele>202.1</ele>
        <time>2015-06-10T08:09:17.000Z</time>
      </trkpt>
      <trkpt lat="43.72378" lon="0.98092">
        <ele>202.4</ele>
        <time>2015-06-10T08:09:25.000Z</time>
      </trkpt>
      <trkpt lat="43.72384" lon="0.98103">
        <ele>202.6</ele>
        <time>2015-06-10T08:09:34.000Z</time>
      </trkpt>
      <trkpt lat="43.72384" lon="0.98117">
        <ele>202.8</ele>
        <time>2015-06-10T08:09:45.000Z</time>
      </trkpt>
      <trkpt lat="43.72381" lon="0.9813">
        <ele>202.9</ele>
        <time>2015-06-10T08:09:56.000Z</time>
      </trkpt>
      <trkpt lat="43.72378" lon="0.98142">
        <ele>202.8</ele>
        <time>2015-06-10T08:10:04.000Z</time>
      </trkpt>
      <trkpt lat="43.72374" lon="0.98155">
        <ele>202.7</ele>
        <time>2015-06-10T08:10:11.000Z</time>
      </trkpt>
      <trkpt lat="43.72376" lon="0.98169">
        <ele>202.5</ele>
        <time>2015-06-10T08:10:18.000Z</time>
      </trkpt>
      <trkpt lat="43.72382" lon="0.98179">
        <ele>202.2</ele>
        <time>2015-06-10T08:10:25.000Z</time>
      </trkpt>
      <trkpt lat="43.7239" lon="0.98189">
        <ele>202.1</ele>
        <time>2015-06-10T08:10:33.000Z</time>
      </trkpt>
      <trkpt lat="43.72398" lon="0.98197">
        <ele>201.5</ele>
        <time>2015-06-10T08:10:40.000Z</time>
      </trkpt>
      <trkpt lat="43.72405" lon="0.98206">
        <ele>200.6</ele>
        <time>2015-06-10T08:10:48.000Z</time>
      </trkpt>
      <trkpt lat="43.72412" lon="0.98216">
        <ele>200.2</ele>
        <time>2015-06-10T08:10:56.000Z</time>
      </trkpt>
      <trkpt lat="43.72419" lon="0.98226">
        <ele>199.9</ele>
        <time>2015-06-10T08:11:04.000Z</time>
      </trkpt>
      <trkpt lat="43.72426" lon="0.98236">
        <ele>199.7</ele>
        <time>2015-06-10T08:11:11.000Z</time>
      </trkpt>
      <trkpt lat="43.72434" lon="0.98245">
        <ele>199.4</ele>
        <time>2015-06-10T08:11:18.000Z</time>
      </trkpt>
      <trkpt lat="43.72441" lon="0.98254">
        <ele>199.4</ele>
        <time>2015-06-10T08:11:26.000Z</time>
      </trkpt>
      <trkpt lat="43.72448" lon="0.98263">
        <ele>198.8</ele>
        <time>2015-06-10T08:11:34.000Z</time>
      </trkpt>
      <trkpt lat="43.72456" lon="0.98271">
        <ele>198.3</ele>
        <time>2015-06-10T08:11:42.000Z</time>
      </trkpt>
      <trkpt lat="43.72463" lon="0.98279">
        <ele>197.6</ele>
        <time>2015-06-10T08:11:50.000Z</time>
      </trkpt>
      <trkpt lat="43.72471" lon="0.98287">
        <ele>197.2</ele>
        <time>2015-06-10T08:11:58.000Z</time>
      </trkpt>
      <trkpt lat="43.72477" lon="0.98296">
        <ele>197</ele>
        <time>2015-06-10T08:12:06.000Z</time>
      </trkpt>
      <trkpt lat="43.72484" lon="0.98305">
        <ele>196.5</ele>
        <time>2015-06-10T08:12:14.000Z</time>
      </trkpt>
      <trkpt lat="43.72491" lon="0.98315">
        <ele>195.8</ele>
        <time>2015-06-10T08:12:22.000Z</time>
      </trkpt>
      <trkpt lat="43.72498" lon="0.98323">
        <ele>195.7</ele>
        <time>2015-06-10T08:12:30.000Z</time>
      </trkpt>
      <trkpt lat="43.72505" lon="0.98332">
        <ele>195.2</ele>
        <time>2015-06-10T08:12:38.000Z</time>
      </trkpt>
      <trkpt lat="43.72512" lon="0.98341">
        <ele>195.1</ele>
        <time>2015-06-10T08:12:47.000Z</time>
      </trkpt>
      <trkpt lat="43.72519" lon="0.98351">
        <ele>195.3</ele>
        <time>2015-06-10T08:12:55.000Z</time>
      </trkpt>
      <trkpt lat="43.72526" lon="0.9836">
        <ele>195.6</ele>
        <time>2015-06-10T08:13:03.000Z</time>
      </trkpt>
      <trkpt lat="43.72534" lon="0.98366">
        <ele>196</ele>
        <time>2015-06-10T08:13:11.000Z</time>
      </trkpt>
      <trkpt lat="43.72542" lon="0.98361">
        <ele>196.5</ele>
        <time>2015-06-10T08:13:19.000Z</time>
      </trkpt>
      <trkpt lat="43.72546" lon="0.98349">
        <ele>196.9</ele>
        <time>2015-06-10T08:13:27.000Z</time>
      </trkpt>
      <trkpt lat="43.72551" lon="0.98337">
        <ele>196.8</ele>
        <time>2015-06-10T08:13:36.000Z</time>
      </trkpt>
      <trkpt lat="43.72555" lon="0.98324">
        <ele>197.1</ele>
        <time>2015-06-10T08:13:44.000Z</time>
      </trkpt>
      <trkpt lat="43.72559" lon="0.98312">
        <ele>197.2</ele>
        <time>2015-06-10T08:13:52.000Z</time>
      </trkpt>
      <trkpt lat="43.72563" lon="0.983">
        <ele>197.5</ele>
        <time>2015-06-10T08:14:01.000Z</time>
      </trkpt>
      <trkpt lat="43.72567" lon="0.98287">
        <ele>197.8</ele>
        <time>2015-06-10T08:14:10.000Z</time>
      </trkpt>
      <trkpt lat="43.72571" lon="0.98276">
        <ele>198.1</ele>
        <time>2015-06-10T08:14:18.000Z</time>
      </trkpt>
      <trkpt lat="43.72576" lon="0.98263">
        <ele>198.6</ele>
        <time>2015-06-10T08:14:26.000Z</time>
      </trkpt>
      <trkpt lat="43.7258" lon="0.98252">
        <ele>199.1</ele>
        <time>2015-06-10T08:14:34.000Z</time>
      </trkpt>
      <trkpt lat="43.72585" lon="0.9824">
        <ele>199.2</ele>
        <time>2015-06-10T08:14:42.000Z</time>
      </trkpt>
      <trkpt lat="43.72589" lon="0.98227">
        <ele>199.1</ele>
        <time>2015-06-10T08:14:50.000Z</time>
      </trkpt>
      <trkpt lat="43.72592" lon="0.98215">
        <ele>199.1</ele>
        <time>2015-06-10T08:14:59.000Z</time>
      </trkpt>
      <trkpt lat="43.72597" lon="0.98203">
        <ele>199.1</ele>
        <time>2015-06-10T08:15:07.000Z</time>
      </trkpt>
      <trkpt lat="43.72601" lon="0.98191">
        <ele>199.1</ele>
        <time>2015-06-10T08:15:15.000Z</time>
      </trkpt>
      <trkpt lat="43.72606" lon="0.98179">
        <ele>199.1</ele>
        <time>2015-06-10T08:15:23.000Z</time>
      </trkpt>
      <trkpt lat="43.72611" lon="0.98167">
        <ele>199</ele>
        <time>2015-06-10T08:15:31.000Z</time>
      </trkpt>
      <trkpt lat="43.72616" lon="0.98156">
        <ele>198.8</ele>
        <time>2015-06-10T08:15:39.000Z</time>
      </trkpt>
      <trkpt lat="43.72621" lon="0.98145">
        <ele>198.6</ele>
        <time>2015-06-10T08:15:46.000Z</time>
      </trkpt>
      <trkpt lat="43.72627" lon="0.98134">
        <ele>198.6</ele>
        <time>2015-06-10T08:15:53.000Z</time>
      </trkpt>
      <trkpt lat="43.72631" lon="0.98122">
        <ele>198.4</ele>
        <time>2015-06-10T08:16:01.000Z</time>
      </trkpt>
      <trkpt lat="43.72636" lon="0.98111">
        <ele>198.2</ele>
        <time>2015-06-10T08:16:10.000Z</time>
      </trkpt>
      <trkpt lat="43.72644" lon="0.98105">
        <ele>197.9</ele>
        <time>2015-06-10T08:16:23.000Z</time>
      </trkpt>
      <trkpt lat="43.72653" lon="0.98109">
        <ele>197.3</ele>
        <time>2015-06-10T08:16:30.000Z</time>
      </trkpt>
      <trkpt lat="43.72663" lon="0.98108">
        <ele>197.9</ele>
        <time>2015-06-10T08:16:37.000Z</time>
      </trkpt>
      <trkpt lat="43.72671" lon="0.98102">
        <ele>197.5</ele>
        <time>2015-06-10T08:16:58.000Z</time>
      </trkpt>
      <trkpt lat="43.7268" lon="0.98103">
        <ele>197.5</ele>
        <time>2015-06-10T08:17:08.000Z</time>
      </trkpt>
      <trkpt lat="43.72691" lon="0.98103">
        <ele>197.8</ele>
        <time>2015-06-10T08:17:16.000Z</time>
      </trkpt>
      <trkpt lat="43.727" lon="0.981">
        <ele>198.3</ele>
        <time>2015-06-10T08:17:24.000Z</time>
      </trkpt>
      <trkpt lat="43.72709" lon="0.98101">
        <ele>198.4</ele>
        <time>2015-06-10T08:17:33.000Z</time>
      </trkpt>
      <trkpt lat="43.72719" lon="0.981">
        <ele>198.4</ele>
        <time>2015-06-10T08:17:41.000Z</time>
      </trkpt>
      <trkpt lat="43.72728" lon="0.981">
        <ele>198.8</ele>
        <time>2015-06-10T08:17:48.000Z</time>
      </trkpt>
      <trkpt lat="43.72738" lon="0.98098">
        <ele>199.4</ele>
        <time>2015-06-10T08:17:58.000Z</time>
      </trkpt>
      <trkpt lat="43.72748" lon="0.98099">
        <ele>199.8</ele>
        <time>2015-06-10T08:18:06.000Z</time>
      </trkpt>
      <trkpt lat="43.72757" lon="0.98097">
        <ele>199.6</ele>
        <time>2015-06-10T08:18:14.000Z</time>
      </trkpt>
      <trkpt lat="43.72767" lon="0.98095">
        <ele>199.9</ele>
        <time>2015-06-10T08:18:22.000Z</time>
      </trkpt>
      <trkpt lat="43.72776" lon="0.98093">
        <ele>199.9</ele>
        <time>2015-06-10T08:18:30.000Z</time>
      </trkpt>
      <trkpt lat="43.72786" lon="0.98093">
        <ele>200.1</ele>
        <time>2015-06-10T08:18:38.000Z</time>
      </trkpt>
      <trkpt lat="43.72796" lon="0.98092">
        <ele>200.3</ele>
        <time>2015-06-10T08:18:46.000Z</time>
      </trkpt>
      <trkpt lat="43.72806" lon="0.9809">
        <ele>200.5</ele>
        <time>2015-06-10T08:18:54.000Z</time>
      </trkpt>
      <trkpt lat="43.72816" lon="0.98089">
        <ele>200.8</ele>
        <time>2015-06-10T08:19:02.000Z</time>
      </trkpt>
      <trkpt lat="43.72826" lon="0.98088">
        <ele>201.3</ele>
        <time>2015-06-10T08:19:10.000Z</time>
      </trkpt>
      <trkpt lat="43.72835" lon="0.98086">
        <ele>201.8</ele>
        <time>2015-06-10T08:19:18.000Z</time>
      </trkpt>
      <trkpt lat="43.72844" lon="0.98085">
        <ele>202.2</ele>
        <time>2015-06-10T08:19:26.000Z</time>
      </trkpt>
      <trkpt lat="43.72853" lon="0.98084">
        <ele>202.7</ele>
        <time>2015-06-10T08:19:33.000Z</time>
      </trkpt>
      <trkpt lat="43.72863" lon="0.98082">
        <ele>203</ele>
        <time>2015-06-10T08:19:41.000Z</time>
      </trkpt>
      <trkpt lat="43.72873" lon="0.98078">
        <ele>203.5</ele>
        <time>2015-06-10T08:19:49.000Z</time>
      </trkpt>
      <trkpt lat="43.72883" lon="0.98077">
        <ele>203.8</ele>
        <time>2015-06-10T08:19:57.000Z</time>
      </trkpt>
      <trkpt lat="43.72893" lon="0.98076">
        <ele>204.2</ele>
        <time>2015-06-10T08:20:05.000Z</time>
      </trkpt>
      <trkpt lat="43.72903" lon="0.98075">
        <ele>204.6</ele>
        <time>2015-06-10T08:20:13.000Z</time>
      </trkpt>
      <trkpt lat="43.72912" lon="0.98075">
        <ele>204.9</ele>
        <time>2015-06-10T08:20:21.000Z</time>
      </trkpt>
      <trkpt lat="43.72922" lon="0.98076">
        <ele>205.3</ele>
        <time>2015-06-10T08:20:29.000Z</time>
      </trkpt>
      <trkpt lat="43.72931" lon="0.98078">
        <ele>205.6</ele>
        <time>2015-06-10T08:20:36.000Z</time>
      </trkpt>
      <trkpt lat="43.7294" lon="0.98081">
        <ele>205.9</ele>
        <time>2015-06-10T08:20:43.000Z</time>
      </trkpt>
      <trkpt lat="43.72949" lon="0.98086">
        <ele>206.4</ele>
        <time>2015-06-10T08:20:51.000Z</time>
      </trkpt>
      <trkpt lat="43.72958" lon="0.98092">
        <ele>207.3</ele>
        <time>2015-06-10T08:21:00.000Z</time>
      </trkpt>
      <trkpt lat="43.72966" lon="0.98099">
        <ele>208.1</ele>
        <time>2015-06-10T08:21:09.000Z</time>
      </trkpt>
      <trkpt lat="43.72974" lon="0.98107">
        <ele>209</ele>
        <time>2015-06-10T08:21:18.000Z</time>
      </trkpt>
      <trkpt lat="43.72982" lon="0.98115">
        <ele>209.6</ele>
        <time>2015-06-10T08:21:26.000Z</time>
      </trkpt>
      <trkpt lat="43.72989" lon="0.98122">
        <ele>210.1</ele>
        <time>2015-06-10T08:21:34.000Z</time>
      </trkpt>
      <trkpt lat="43.72997" lon="0.9813">
        <ele>210.1</ele>
        <time>2015-06-10T08:21:42.000Z</time>
      </trkpt>
      <trkpt lat="43.73005" lon="0.98137">
        <ele>209.4</ele>
        <time>2015-06-10T08:21:49.000Z</time>
      </trkpt>
      <trkpt lat="43.73013" lon="0.98146">
        <ele>209</ele>
        <time>2015-06-10T08:21:57.000Z</time>
      </trkpt>
      <trkpt lat="43.7302" lon="0.98154">
        <ele>208.3</ele>
        <time>2015-06-10T08:22:05.000Z</time>
      </trkpt>
      <trkpt lat="43.73028" lon="0.98162">
        <ele>207.7</ele>
        <time>2015-06-10T08:22:13.000Z</time>
      </trkpt>
      <trkpt lat="43.73036" lon="0.98171">
        <ele>206.3</ele>
        <time>2015-06-10T08:22:21.000Z</time>
      </trkpt>
      <trkpt lat="43.73043" lon="0.98179">
        <ele>205.1</ele>
        <time>2015-06-10T08:22:29.000Z</time>
      </trkpt>
      <trkpt lat="43.73051" lon="0.98187">
        <ele>204</ele>
        <time>2015-06-10T08:22:37.000Z</time>
      </trkpt>
      <trkpt lat="43.73059" lon="0.98195">
        <ele>202.9</ele>
        <time>2015-06-10T08:22:45.000Z</time>
      </trkpt>
      <trkpt lat="43.73068" lon="0.98201">
        <ele>201.3</ele>
        <time>2015-06-10T08:22:53.000Z</time>
      </trkpt>
      <trkpt lat="43.73076" lon="0.98205">
        <ele>200.1</ele>
        <time>2015-06-10T08:23:00.000Z</time>
      </trkpt>
      <trkpt lat="43.73084" lon="0.98213">
        <ele>199.1</ele>
        <time>2015-06-10T08:23:09.000Z</time>
      </trkpt>
      <trkpt lat="43.73092" lon="0.9822">
        <ele>197.8</ele>
        <time>2015-06-10T08:23:17.000Z</time>
      </trkpt>
      <trkpt lat="43.731" lon="0.98229">
        <ele>196.7</ele>
        <time>2015-06-10T08:23:25.000Z</time>
      </trkpt>
      <trkpt lat="43.73107" lon="0.98237">
        <ele>195.3</ele>
        <time>2015-06-10T08:23:33.000Z</time>
      </trkpt>
      <trkpt lat="43.73116" lon="0.98244">
        <ele>194.2</ele>
        <time>2015-06-10T08:23:41.000Z</time>
      </trkpt>
      <trkpt lat="43.73121" lon="0.98255">
        <ele>192.9</ele>
        <time>2015-06-10T08:23:51.000Z</time>
      </trkpt>
      <trkpt lat="43.73117" lon="0.98268">
        <ele>192.1</ele>
        <time>2015-06-10T08:23:59.000Z</time>
      </trkpt>
      <trkpt lat="43.73113" lon="0.9828">
        <ele>191.6</ele>
        <time>2015-06-10T08:24:07.000Z</time>
      </trkpt>
      <trkpt lat="43.73116" lon="0.98292">
        <ele>191</ele>
        <time>2015-06-10T08:24:15.000Z</time>
      </trkpt>
      <trkpt lat="43.73124" lon="0.983">
        <ele>190.2</ele>
        <time>2015-06-10T08:24:22.000Z</time>
      </trkpt>
      <trkpt lat="43.73131" lon="0.98308">
        <ele>189.3</ele>
        <time>2015-06-10T08:24:30.000Z</time>
      </trkpt>
      <trkpt lat="43.73139" lon="0.98315">
        <ele>188.7</ele>
        <time>2015-06-10T08:24:37.000Z</time>
      </trkpt>
      <trkpt lat="43.73148" lon="0.98322">
        <ele>188.1</ele>
        <time>2015-06-10T08:24:45.000Z</time>
      </trkpt>
      <trkpt lat="43.73156" lon="0.9833">
        <ele>187</ele>
        <time>2015-06-10T08:24:52.000Z</time>
      </trkpt>
      <trkpt lat="43.73163" lon="0.98337">
        <ele>186.8</ele>
        <time>2015-06-10T08:24:59.000Z</time>
      </trkpt>
      <trkpt lat="43.73171" lon="0.98347">
        <ele>185.5</ele>
        <time>2015-06-10T08:25:06.000Z</time>
      </trkpt>
      <trkpt lat="43.73179" lon="0.98355">
        <ele>184.6</ele>
        <time>2015-06-10T08:25:14.000Z</time>
      </trkpt>
      <trkpt lat="43.73187" lon="0.98362">
        <ele>183.6</ele>
        <time>2015-06-10T08:25:22.000Z</time>
      </trkpt>
      <trkpt lat="43.73196" lon="0.98368">
        <ele>182.9</ele>
        <time>2015-06-10T08:25:31.000Z</time>
      </trkpt>
      <trkpt lat="43.73204" lon="0.98374">
        <ele>182.6</ele>
        <time>2015-06-10T08:25:38.000Z</time>
      </trkpt>
      <trkpt lat="43.73213" lon="0.98367">
        <ele>181.7</ele>
        <time>2015-06-10T08:25:50.000Z</time>
      </trkpt>
      <trkpt lat="43.73215" lon="0.98354">
        <ele>181.2</ele>
        <time>2015-06-10T08:26:01.000Z</time>
      </trkpt>
      <trkpt lat="43.7322" lon="0.98343">
        <ele>180.6</ele>
        <time>2015-06-10T08:26:09.000Z</time>
      </trkpt>
      <trkpt lat="43.73225" lon="0.98333">
        <ele>180.8</ele>
        <time>2015-06-10T08:26:17.000Z</time>
      </trkpt>
      <trkpt lat="43.73229" lon="0.9832">
        <ele>180.8</ele>
        <time>2015-06-10T08:26:27.000Z</time>
      </trkpt>
      <trkpt lat="43.73234" lon="0.98308">
        <ele>181.4</ele>
        <time>2015-06-10T08:26:34.000Z</time>
      </trkpt>
      <trkpt lat="43.73238" lon="0.98295">
        <ele>181.8</ele>
        <time>2015-06-10T08:26:40.000Z</time>
      </trkpt>
      <trkpt lat="43.73241" lon="0.98282">
        <ele>182.1</ele>
        <time>2015-06-10T08:26:48.000Z</time>
      </trkpt>
      <trkpt lat="43.73246" lon="0.9827">
        <ele>182.6</ele>
        <time>2015-06-10T08:26:57.000Z</time>
      </trkpt>
      <trkpt lat="43.73247" lon="0.98258">
        <ele>183</ele>
        <time>2015-06-10T08:27:03.000Z</time>
      </trkpt>
      <trkpt lat="43.7325" lon="0.98244">
        <ele>183.5</ele>
        <time>2015-06-10T08:27:11.000Z</time>
      </trkpt>
      <trkpt lat="43.73254" lon="0.98232">
        <ele>183.8</ele>
        <time>2015-06-10T08:27:19.000Z</time>
      </trkpt>
      <trkpt lat="43.73259" lon="0.9822">
        <ele>184</ele>
        <time>2015-06-10T08:27:27.000Z</time>
      </trkpt>
      <trkpt lat="43.73263" lon="0.98208">
        <ele>184.2</ele>
        <time>2015-06-10T08:27:34.000Z</time>
      </trkpt>
      <trkpt lat="43.73266" lon="0.98195">
        <ele>184.3</ele>
        <time>2015-06-10T08:27:41.000Z</time>
      </trkpt>
      <trkpt lat="43.73271" lon="0.98184">
        <ele>184.4</ele>
        <time>2015-06-10T08:27:48.000Z</time>
      </trkpt>
      <trkpt lat="43.73276" lon="0.98173">
        <ele>184.4</ele>
        <time>2015-06-10T08:27:55.000Z</time>
      </trkpt>
      <trkpt lat="43.7328" lon="0.98161">
        <ele>184.4</ele>
        <time>2015-06-10T08:28:02.000Z</time>
      </trkpt>
      <trkpt lat="43.73285" lon="0.98149">
        <ele>184.6</ele>
        <time>2015-06-10T08:28:09.000Z</time>
      </trkpt>
      <trkpt lat="43.73289" lon="0.98137">
        <ele>184.7</ele>
        <time>2015-06-10T08:28:16.000Z</time>
      </trkpt>
      <trkpt lat="43.73293" lon="0.98125">
        <ele>184.9</ele>
        <time>2015-06-10T08:28:24.000Z</time>
      </trkpt>
      <trkpt lat="43.73298" lon="0.98113">
        <ele>184.9</ele>
        <time>2015-06-10T08:28:32.000Z</time>
      </trkpt>
      <trkpt lat="43.73303" lon="0.98101">
        <ele>185.1</ele>
        <time>2015-06-10T08:28:40.000Z</time>
      </trkpt>
      <trkpt lat="43.73307" lon="0.98089">
        <ele>185</ele>
        <time>2015-06-10T08:28:48.000Z</time>
      </trkpt>
      <trkpt lat="43.73312" lon="0.98076">
        <ele>185.3</ele>
        <time>2015-06-10T08:28:56.000Z</time>
      </trkpt>
      <trkpt lat="43.73316" lon="0.98065">
        <ele>185.5</ele>
        <time>2015-06-10T08:29:03.000Z</time>
      </trkpt>
      <trkpt lat="43.7332" lon="0.98053">
        <ele>185.7</ele>
        <time>2015-06-10T08:29:10.000Z</time>
      </trkpt>
      <trkpt lat="43.73324" lon="0.98041">
        <ele>185.9</ele>
        <time>2015-06-10T08:29:17.000Z</time>
      </trkpt>
      <trkpt lat="43.73328" lon="0.9803">
        <ele>186</ele>
        <time>2015-06-10T08:29:24.000Z</time>
      </trkpt>
      <trkpt lat="43.73332" lon="0.98018">
        <ele>185.8</ele>
        <time>2015-06-10T08:29:31.000Z</time>
      </trkpt>
      <trkpt lat="43.73335" lon="0.98006">
        <ele>186.1</ele>
        <time>2015-06-10T08:29:38.000Z</time>
      </trkpt>
      <trkpt lat="43.73337" lon="0.97992">
        <ele>186.6</ele>
        <time>2015-06-10T08:29:46.000Z</time>
      </trkpt>
      <trkpt lat="43.73337" lon="0.97979">
        <ele>186.7</ele>
        <time>2015-06-10T08:29:53.000Z</time>
      </trkpt>
      <trkpt lat="43.73335" lon="0.97965">
        <ele>187</ele>
        <time>2015-06-10T08:30:01.000Z</time>
      </trkpt>
      <trkpt lat="43.73332" lon="0.97953">
        <ele>187.1</ele>
        <time>2015-06-10T08:30:08.000Z</time>
      </trkpt>
      <trkpt lat="43.73327" lon="0.97941">
        <ele>187.5</ele>
        <time>2015-06-10T08:30:16.000Z</time>
      </trkpt>
      <trkpt lat="43.73324" lon="0.97929">
        <ele>187.9</ele>
        <time>2015-06-10T08:30:25.000Z</time>
      </trkpt>
      <trkpt lat="43.7332" lon="0.97916">
        <ele>188.3</ele>
        <time>2015-06-10T08:30:33.000Z</time>
      </trkpt>
      <trkpt lat="43.73316" lon="0.97904">
        <ele>188.9</ele>
        <time>2015-06-10T08:30:40.000Z</time>
      </trkpt>
      <trkpt lat="43.73311" lon="0.97892">
        <ele>189.1</ele>
        <time>2015-06-10T08:30:48.000Z</time>
      </trkpt>
      <trkpt lat="43.73306" lon="0.97881">
        <ele>189.6</ele>
        <time>2015-06-10T08:30:55.000Z</time>
      </trkpt>
      <trkpt lat="43.73302" lon="0.97869">
        <ele>190.3</ele>
        <time>2015-06-10T08:31:03.000Z</time>
      </trkpt>
      <trkpt lat="43.73298" lon="0.97858">
        <ele>191</ele>
        <time>2015-06-10T08:31:11.000Z</time>
      </trkpt>
      <trkpt lat="43.73294" lon="0.97846">
        <ele>191.9</ele>
        <time>2015-06-10T08:31:21.000Z</time>
      </trkpt>
      <trkpt lat="43.73292" lon="0.97833">
        <ele>192.7</ele>
        <time>2015-06-10T08:31:30.000Z</time>
      </trkpt>
      <trkpt lat="43.73297" lon="0.97821">
        <ele>193.5</ele>
        <time>2015-06-10T08:31:40.000Z</time>
      </trkpt>
      <trkpt lat="43.73302" lon="0.97809">
        <ele>194.1</ele>
        <time>2015-06-10T08:31:48.000Z</time>
      </trkpt>
      <trkpt lat="43.73307" lon="0.97797">
        <ele>194.5</ele>
        <time>2015-06-10T08:31:56.000Z</time>
      </trkpt>
      <trkpt lat="43.73311" lon="0.97785">
        <ele>194.4</ele>
        <time>2015-06-10T08:32:03.000Z</time>
      </trkpt>
      <trkpt lat="43.73315" lon="0.97773">
        <ele>194.3</ele>
        <time>2015-06-10T08:32:11.000Z</time>
      </trkpt>
      <trkpt lat="43.7332" lon="0.97762">
        <ele>194.2</ele>
        <time>2015-06-10T08:32:18.000Z</time>
      </trkpt>
      <trkpt lat="43.73324" lon="0.97751">
        <ele>194.1</ele>
        <time>2015-06-10T08:32:25.000Z</time>
      </trkpt>
      <trkpt lat="43.73329" lon="0.97739">
        <ele>193.6</ele>
        <time>2015-06-10T08:32:33.000Z</time>
      </trkpt>
      <trkpt lat="43.73336" lon="0.97729">
        <ele>193.5</ele>
        <time>2015-06-10T08:33:19.000Z</time>
      </trkpt>
      <trkpt lat="43.7334" lon="0.97717">
        <ele>193.5</ele>
        <time>2015-06-10T08:33:28.000Z</time>
      </trkpt>
      <trkpt lat="43.73345" lon="0.97704">
        <ele>193.5</ele>
        <time>2015-06-10T08:33:36.000Z</time>
      </trkpt>
      <trkpt lat="43.73349" lon="0.97693">
        <ele>193.6</ele>
        <time>2015-06-10T08:33:43.000Z</time>
      </trkpt>
      <trkpt lat="43.73353" lon="0.97681">
        <ele>193.6</ele>
        <time>2015-06-10T08:33:50.000Z</time>
      </trkpt>
      <trkpt lat="43.73358" lon="0.97669">
        <ele>193.8</ele>
        <time>2015-06-10T08:33:57.000Z</time>
      </trkpt>
      <trkpt lat="43.73363" lon="0.97658">
        <ele>193.7</ele>
        <time>2015-06-10T08:34:04.000Z</time>
      </trkpt>
      <trkpt lat="43.73369" lon="0.97648">
        <ele>193.8</ele>
        <time>2015-06-10T08:34:11.000Z</time>
      </trkpt>
      <trkpt lat="43.73375" lon="0.97638">
        <ele>193.8</ele>
        <time>2015-06-10T08:34:19.000Z</time>
      </trkpt>
      <trkpt lat="43.73382" lon="0.97628">
        <ele>193.6</ele>
        <time>2015-06-10T08:34:27.000Z</time>
      </trkpt>
      <trkpt lat="43.7339" lon="0.9762">
        <ele>193.6</ele>
        <time>2015-06-10T08:34:35.000Z</time>
      </trkpt>
      <trkpt lat="43.73398" lon="0.97612">
        <ele>193.8</ele>
        <time>2015-06-10T08:34:43.000Z</time>
      </trkpt>
      <trkpt lat="43.73406" lon="0.97606">
        <ele>194.1</ele>
        <time>2015-06-10T08:34:51.000Z</time>
      </trkpt>
      <trkpt lat="43.73415" lon="0.97601">
        <ele>194</ele>
        <time>2015-06-10T08:34:59.000Z</time>
      </trkpt>
      <trkpt lat="43.73424" lon="0.97599">
        <ele>193.8</ele>
        <time>2015-06-10T08:35:06.000Z</time>
      </trkpt>
      <trkpt lat="43.73434" lon="0.97598">
        <ele>194</ele>
        <time>2015-06-10T08:35:13.000Z</time>
      </trkpt>
      <trkpt lat="43.73444" lon="0.97597">
        <ele>193.9</ele>
        <time>2015-06-10T08:35:20.000Z</time>
      </trkpt>
      <trkpt lat="43.73454" lon="0.97596">
        <ele>193.9</ele>
        <time>2015-06-10T08:35:27.000Z</time>
      </trkpt>
      <trkpt lat="43.73464" lon="0.97594">
        <ele>193.6</ele>
        <time>2015-06-10T08:35:35.000Z</time>
      </trkpt>
      <trkpt lat="43.73473" lon="0.97593">
        <ele>193.6</ele>
        <time>2015-06-10T08:35:43.000Z</time>
      </trkpt>
      <trkpt lat="43.73482" lon="0.97592">
        <ele>193.3</ele>
        <time>2015-06-10T08:35:51.000Z</time>
      </trkpt>
      <trkpt lat="43.73493" lon="0.97589">
        <ele>192.9</ele>
        <time>2015-06-10T08:35:58.000Z</time>
      </trkpt>
      <trkpt lat="43.73503" lon="0.97588">
        <ele>192.7</ele>
        <time>2015-06-10T08:36:07.000Z</time>
      </trkpt>
      <trkpt lat="43.73512" lon="0.97585">
        <ele>192.5</ele>
        <time>2015-06-10T08:36:15.000Z</time>
      </trkpt>
      <trkpt lat="43.73522" lon="0.97583">
        <ele>192.3</ele>
        <time>2015-06-10T08:36:23.000Z</time>
      </trkpt>
      <trkpt lat="43.73531" lon="0.97578">
        <ele>192.2</ele>
        <time>2015-06-10T08:36:31.000Z</time>
      </trkpt>
      <trkpt lat="43.73541" lon="0.97575">
        <ele>192</ele>
        <time>2015-06-10T08:36:39.000Z</time>
      </trkpt>
      <trkpt lat="43.7355" lon="0.97571">
        <ele>191.8</ele>
        <time>2015-06-10T08:36:47.000Z</time>
      </trkpt>
      <trkpt lat="43.73559" lon="0.97566">
        <ele>191.9</ele>
        <time>2015-06-10T08:36:55.000Z</time>
      </trkpt>
      <trkpt lat="43.73568" lon="0.97561">
        <ele>191.5</ele>
        <time>2015-06-10T08:37:02.000Z</time>
      </trkpt>
      <trkpt lat="43.73577" lon="0.97557">
        <ele>191.4</ele>
        <time>2015-06-10T08:37:10.000Z</time>
      </trkpt>
      <trkpt lat="43.73586" lon="0.97554">
        <ele>191.1</ele>
        <time>2015-06-10T08:37:18.000Z</time>
      </trkpt>
      <trkpt lat="43.73596" lon="0.9755">
        <ele>191.2</ele>
        <time>2015-06-10T08:37:27.000Z</time>
      </trkpt>
      <trkpt lat="43.73606" lon="0.97547">
        <ele>191.3</ele>
        <time>2015-06-10T08:37:34.000Z</time>
      </trkpt>
      <trkpt lat="43.73615" lon="0.9755">
        <ele>191.3</ele>
        <time>2015-06-10T08:37:41.000Z</time>
      </trkpt>
      <trkpt lat="43.73624" lon="0.9755">
        <ele>191</ele>
        <time>2015-06-10T08:37:48.000Z</time>
      </trkpt>
      <trkpt lat="43.73635" lon="0.97551">
        <ele>190.6</ele>
        <time>2015-06-10T08:37:56.000Z</time>
      </trkpt>
      <trkpt lat="43.73645" lon="0.9755">
        <ele>190.6</ele>
        <time>2015-06-10T08:38:03.000Z</time>
      </trkpt>
      <trkpt lat="43.73654" lon="0.97549">
        <ele>190.8</ele>
        <time>2015-06-10T08:38:11.000Z</time>
      </trkpt>
      <trkpt lat="43.73662" lon="0.97545">
        <ele>190.4</ele>
        <time>2015-06-10T08:38:17.000Z</time>
      </trkpt>
      <trkpt lat="43.73672" lon="0.97541">
        <ele>190.5</ele>
        <time>2015-06-10T08:38:24.000Z</time>
      </trkpt>
      <trkpt lat="43.73681" lon="0.97539">
        <ele>190.1</ele>
        <time>2015-06-10T08:38:34.000Z</time>
      </trkpt>
      <trkpt lat="43.7369" lon="0.97533">
        <ele>190</ele>
        <time>2015-06-10T08:38:42.000Z</time>
      </trkpt>
      <trkpt lat="43.73699" lon="0.97529">
        <ele>189.8</ele>
        <time>2015-06-10T08:38:49.000Z</time>
      </trkpt>
      <trkpt lat="43.73707" lon="0.97524">
        <ele>189.9</ele>
        <time>2015-06-10T08:38:56.000Z</time>
      </trkpt>
      <trkpt lat="43.73716" lon="0.9752">
        <ele>189.6</ele>
        <time>2015-06-10T08:39:03.000Z</time>
      </trkpt>
      <trkpt lat="43.73725" lon="0.97515">
        <ele>189.6</ele>
        <time>2015-06-10T08:39:11.000Z</time>
      </trkpt>
      <trkpt lat="43.73734" lon="0.97511">
        <ele>189.7</ele>
        <time>2015-06-10T08:39:19.000Z</time>
      </trkpt>
      <trkpt lat="43.73744" lon="0.97505">
        <ele>189.8</ele>
        <time>2015-06-10T08:39:26.000Z</time>
      </trkpt>
      <trkpt lat="43.73752" lon="0.975">
        <ele>189.5</ele>
        <time>2015-06-10T08:39:31.000Z</time>
      </trkpt>
      <trkpt lat="43.73761" lon="0.97495">
        <ele>189.7</ele>
        <time>2015-06-10T08:39:39.000Z</time>
      </trkpt>
      <trkpt lat="43.7377" lon="0.9749">
        <ele>189.5</ele>
        <time>2015-06-10T08:39:47.000Z</time>
      </trkpt>
      <trkpt lat="43.73778" lon="0.97485">
        <ele>189.7</ele>
        <time>2015-06-10T08:39:54.000Z</time>
      </trkpt>
      <trkpt lat="43.73787" lon="0.9748">
        <ele>189.7</ele>
        <time>2015-06-10T08:40:02.000Z</time>
      </trkpt>
      <trkpt lat="43.73796" lon="0.97474">
        <ele>190.1</ele>
        <time>2015-06-10T08:40:09.000Z</time>
      </trkpt>
      <trkpt lat="43.73804" lon="0.97467">
        <ele>190.5</ele>
        <time>2015-06-10T08:40:17.000Z</time>
      </trkpt>
      <trkpt lat="43.73812" lon="0.9746">
        <ele>190.7</ele>
        <time>2015-06-10T08:40:25.000Z</time>
      </trkpt>
      <trkpt lat="43.73821" lon="0.97452">
        <ele>190.8</ele>
        <time>2015-06-10T08:40:34.000Z</time>
      </trkpt>
      <trkpt lat="43.73828" lon="0.97445">
        <ele>190.6</ele>
        <time>2015-06-10T08:40:41.000Z</time>
      </trkpt>
      <trkpt lat="43.73837" lon="0.97438">
        <ele>190.8</ele>
        <time>2015-06-10T08:40:49.000Z</time>
      </trkpt>
      <trkpt lat="43.73845" lon="0.97431">
        <ele>191</ele>
        <time>2015-06-10T08:40:57.000Z</time>
      </trkpt>
      <trkpt lat="43.73854" lon="0.97425">
        <ele>191.1</ele>
        <time>2015-06-10T08:41:07.000Z</time>
      </trkpt>
      <trkpt lat="43.73862" lon="0.97417">
        <ele>191.6</ele>
        <time>2015-06-10T08:41:16.000Z</time>
      </trkpt>
      <trkpt lat="43.7387" lon="0.97411">
        <ele>191.5</ele>
        <time>2015-06-10T08:41:24.000Z</time>
      </trkpt>
      <trkpt lat="43.73878" lon="0.97404">
        <ele>191.5</ele>
        <time>2015-06-10T08:41:31.000Z</time>
      </trkpt>
      <trkpt lat="43.73885" lon="0.97394">
        <ele>191.8</ele>
        <time>2015-06-10T08:41:39.000Z</time>
      </trkpt>
      <trkpt lat="43.73892" lon="0.97385">
        <ele>192</ele>
        <time>2015-06-10T08:41:46.000Z</time>
      </trkpt>
      <trkpt lat="43.73899" lon="0.97375">
        <ele>192.1</ele>
        <time>2015-06-10T08:41:54.000Z</time>
      </trkpt>
      <trkpt lat="43.73908" lon="0.97368">
        <ele>192.5</ele>
        <time>2015-06-10T08:42:02.000Z</time>
      </trkpt>
      <trkpt lat="43.73916" lon="0.97358">
        <ele>192.9</ele>
        <time>2015-06-10T08:42:10.000Z</time>
      </trkpt>
      <trkpt lat="43.73924" lon="0.97352">
        <ele>192.8</ele>
        <time>2015-06-10T08:42:17.000Z</time>
      </trkpt>
      <trkpt lat="43.73933" lon="0.97347">
        <ele>192.9</ele>
        <time>2015-06-10T08:42:25.000Z</time>
      </trkpt>
      <trkpt lat="43.73942" lon="0.9734">
        <ele>192.9</ele>
        <time>2015-06-10T08:42:33.000Z</time>
      </trkpt>
      <trkpt lat="43.7395" lon="0.97334">
        <ele>192.6</ele>
        <time>2015-06-10T08:42:40.000Z</time>
      </trkpt>
      <trkpt lat="43.73958" lon="0.97326">
        <ele>192.7</ele>
        <time>2015-06-10T08:42:47.000Z</time>
      </trkpt>
      <trkpt lat="43.73966" lon="0.97319">
        <ele>192.6</ele>
        <time>2015-06-10T08:42:55.000Z</time>
      </trkpt>
      <trkpt lat="43.73974" lon="0.9731">
        <ele>192.7</ele>
        <time>2015-06-10T08:43:03.000Z</time>
      </trkpt>
      <trkpt lat="43.73982" lon="0.97304">
        <ele>192.7</ele>
        <time>2015-06-10T08:43:10.000Z</time>
      </trkpt>
      <trkpt lat="43.73991" lon="0.97298">
        <ele>192.4</ele>
        <time>2015-06-10T08:43:18.000Z</time>
      </trkpt>
      <trkpt lat="43.73999" lon="0.97291">
        <ele>192.4</ele>
        <time>2015-06-10T08:43:25.000Z</time>
      </trkpt>
      <trkpt lat="43.74007" lon="0.97284">
        <ele>192.5</ele>
        <time>2015-06-10T08:43:33.000Z</time>
      </trkpt>
      <trkpt lat="43.74015" lon="0.97278">
        <ele>192.5</ele>
        <time>2015-06-10T08:43:41.000Z</time>
      </trkpt>
      <trkpt lat="43.74024" lon="0.97269">
        <ele>192.7</ele>
        <time>2015-06-10T08:43:49.000Z</time>
      </trkpt>
      <trkpt lat="43.74031" lon="0.97262">
        <ele>192.5</ele>
        <time>2015-06-10T08:43:56.000Z</time>
      </trkpt>
      <trkpt lat="43.74039" lon="0.97253">
        <ele>192.7</ele>
        <time>2015-06-10T08:44:04.000Z</time>
      </trkpt>
      <trkpt lat="43.74046" lon="0.97244">
        <ele>192.9</ele>
        <time>2015-06-10T08:44:12.000Z</time>
      </trkpt>
      <trkpt lat="43.74053" lon="0.97235">
        <ele>192.8</ele>
        <time>2015-06-10T08:44:20.000Z</time>
      </trkpt>
      <trkpt lat="43.74061" lon="0.97226">
        <ele>192.9</ele>
        <time>2015-06-10T08:44:28.000Z</time>
      </trkpt>
      <trkpt lat="43.74068" lon="0.97216">
        <ele>193.2</ele>
        <time>2015-06-10T08:44:36.000Z</time>
      </trkpt>
      <trkpt lat="43.74075" lon="0.97207">
        <ele>193.5</ele>
        <time>2015-06-10T08:44:44.000Z</time>
      </trkpt>
      <trkpt lat="43.74082" lon="0.97198">
        <ele>193.3</ele>
        <time>2015-06-10T08:44:51.000Z</time>
      </trkpt>
      <trkpt lat="43.74089" lon="0.97188">
        <ele>193.2</ele>
        <time>2015-06-10T08:44:59.000Z</time>
      </trkpt>
      <trkpt lat="43.74095" lon="0.97178">
        <ele>193.2</ele>
        <time>2015-06-10T08:45:07.000Z</time>
      </trkpt>
      <trkpt lat="43.74101" lon="0.97169">
        <ele>193.1</ele>
        <time>2015-06-10T08:45:14.000Z</time>
      </trkpt>
      <trkpt lat="43.74108" lon="0.97158">
        <ele>193.5</ele>
        <time>2015-06-10T08:45:22.000Z</time>
      </trkpt>
      <trkpt lat="43.74114" lon="0.97149">
        <ele>193.7</ele>
        <time>2015-06-10T08:45:29.000Z</time>
      </trkpt>
      <trkpt lat="43.74121" lon="0.97139">
        <ele>194</ele>
        <time>2015-06-10T08:45:37.000Z</time>
      </trkpt>
      <trkpt lat="43.74127" lon="0.97129">
        <ele>193.8</ele>
        <time>2015-06-10T08:45:44.000Z</time>
      </trkpt>
      <trkpt lat="43.74133" lon="0.97119">
        <ele>194</ele>
        <time>2015-06-10T08:45:52.000Z</time>
      </trkpt>
      <trkpt lat="43.74139" lon="0.97109">
        <ele>194.2</ele>
        <time>2015-06-10T08:46:00.000Z</time>
      </trkpt>
      <trkpt lat="43.74148" lon="0.97114">
        <ele>193.8</ele>
        <time>2015-06-10T08:46:11.000Z</time>
      </trkpt>
      <trkpt lat="43.74156" lon="0.97121">
        <ele>193.6</ele>
        <time>2015-06-10T08:46:24.000Z</time>
      </trkpt>
      <trkpt lat="43.74164" lon="0.97127">
        <ele>192.3</ele>
        <time>2015-06-10T08:46:34.000Z</time>
      </trkpt>
      <trkpt lat="43.74173" lon="0.97134">
        <ele>191.6</ele>
        <time>2015-06-10T08:46:44.000Z</time>
      </trkpt>
      <trkpt lat="43.74181" lon="0.9714">
        <ele>190.9</ele>
        <time>2015-06-10T08:46:53.000Z</time>
      </trkpt>
      <trkpt lat="43.74189" lon="0.97146">
        <ele>190</ele>
        <time>2015-06-10T08:47:00.000Z</time>
      </trkpt>
      <trkpt lat="43.74198" lon="0.97153">
        <ele>189.3</ele>
        <time>2015-06-10T08:47:09.000Z</time>
      </trkpt>
      <trkpt lat="43.74206" lon="0.97159">
        <ele>188.5</ele>
        <time>2015-06-10T08:47:18.000Z</time>
      </trkpt>
      <trkpt lat="43.74215" lon="0.97164">
        <ele>187.3</ele>
        <time>2015-06-10T08:47:26.000Z</time>
      </trkpt>
      <trkpt lat="43.74224" lon="0.97171">
        <ele>186.6</ele>
        <time>2015-06-10T08:47:34.000Z</time>
      </trkpt>
      <trkpt lat="43.74232" lon="0.97178">
        <ele>185.3</ele>
        <time>2015-06-10T08:47:43.000Z</time>
      </trkpt>
      <trkpt lat="43.7424" lon="0.97184">
        <ele>184.6</ele>
        <time>2015-06-10T08:47:52.000Z</time>
      </trkpt>
      <trkpt lat="43.74249" lon="0.97189">
        <ele>183.7</ele>
        <time>2015-06-10T08:48:02.000Z</time>
      </trkpt>
      <trkpt lat="43.74257" lon="0.97195">
        <ele>183.1</ele>
        <time>2015-06-10T08:48:10.000Z</time>
      </trkpt>
      <trkpt lat="43.74264" lon="0.97203">
        <ele>182.3</ele>
        <time>2015-06-10T08:48:18.000Z</time>
      </trkpt>
      <trkpt lat="43.74272" lon="0.97209">
        <ele>181.8</ele>
        <time>2015-06-10T08:48:27.000Z</time>
      </trkpt>
      <trkpt lat="43.74281" lon="0.97215">
        <ele>181.3</ele>
        <time>2015-06-10T08:48:37.000Z</time>
      </trkpt>
      <trkpt lat="43.7429" lon="0.97219">
        <ele>180.6</ele>
        <time>2015-06-10T08:48:47.000Z</time>
      </trkpt>
      <trkpt lat="43.74299" lon="0.97224">
        <ele>180.5</ele>
        <time>2015-06-10T08:48:56.000Z</time>
      </trkpt>
      <trkpt lat="43.74306" lon="0.97232">
        <ele>179.5</ele>
        <time>2015-06-10T08:49:04.000Z</time>
      </trkpt>
      <trkpt lat="43.74315" lon="0.97239">
        <ele>178.9</ele>
        <time>2015-06-10T08:49:13.000Z</time>
      </trkpt>
      <trkpt lat="43.74323" lon="0.97245">
        <ele>177.7</ele>
        <time>2015-06-10T08:49:21.000Z</time>
      </trkpt>
      <trkpt lat="43.74331" lon="0.97251">
        <ele>176.7</ele>
        <time>2015-06-10T08:49:30.000Z</time>
      </trkpt>
      <trkpt lat="43.74339" lon="0.97258">
        <ele>176</ele>
        <time>2015-06-10T08:49:38.000Z</time>
      </trkpt>
      <trkpt lat="43.74346" lon="0.97267">
        <ele>175.7</ele>
        <time>2015-06-10T08:49:48.000Z</time>
      </trkpt>
      <trkpt lat="43.74355" lon="0.97273">
        <ele>174.1</ele>
        <time>2015-06-10T08:49:57.000Z</time>
      </trkpt>
      <trkpt lat="43.74364" lon="0.97279">
        <ele>173</ele>
        <time>2015-06-10T08:50:05.000Z</time>
      </trkpt>
      <trkpt lat="43.74372" lon="0.97286">
        <ele>172.3</ele>
        <time>2015-06-10T08:50:14.000Z</time>
      </trkpt>
      <trkpt lat="43.74381" lon="0.97292">
        <ele>171.1</ele>
        <time>2015-06-10T08:50:23.000Z</time>
      </trkpt>
      <trkpt lat="43.74389" lon="0.97298">
        <ele>169.9</ele>
        <time>2015-06-10T08:50:31.000Z</time>
      </trkpt>
      <trkpt lat="43.74398" lon="0.97304">
        <ele>169</ele>
        <time>2015-06-10T08:50:40.000Z</time>
      </trkpt>
      <trkpt lat="43.74407" lon="0.9731">
        <ele>168.5</ele>
        <time>2015-06-10T08:50:48.000Z</time>
      </trkpt>
      <trkpt lat="43.74415" lon="0.97316">
        <ele>168.3</ele>
        <time>2015-06-10T08:50:56.000Z</time>
      </trkpt>
      <trkpt lat="43.74423" lon="0.97321">
        <ele>167.3</ele>
        <time>2015-06-10T08:51:04.000Z</time>
      </trkpt>
      <trkpt lat="43.74431" lon="0.97328">
        <ele>167.2</ele>
        <time>2015-06-10T08:51:13.000Z</time>
      </trkpt>
      <trkpt lat="43.7444" lon="0.97335">
        <ele>166.8</ele>
        <time>2015-06-10T08:51:22.000Z</time>
      </trkpt>
      <trkpt lat="43.74449" lon="0.97341">
        <ele>166.3</ele>
        <time>2015-06-10T08:51:31.000Z</time>
      </trkpt>
      <trkpt lat="43.74457" lon="0.97348">
        <ele>165.8</ele>
        <time>2015-06-10T08:51:41.000Z</time>
      </trkpt>
      <trkpt lat="43.74466" lon="0.97355">
        <ele>165.3</ele>
        <time>2015-06-10T08:51:50.000Z</time>
      </trkpt>
      <trkpt lat="43.74474" lon="0.97361">
        <ele>165</ele>
        <time>2015-06-10T08:51:58.000Z</time>
      </trkpt>
      <trkpt lat="43.74483" lon="0.97367">
        <ele>164.3</ele>
        <time>2015-06-10T08:52:06.000Z</time>
      </trkpt>
      <trkpt lat="43.74491" lon="0.97372">
        <ele>163.8</ele>
        <time>2015-06-10T08:52:14.000Z</time>
      </trkpt>
      <trkpt lat="43.745" lon="0.97379">
        <ele>163</ele>
        <time>2015-06-10T08:52:22.000Z</time>
      </trkpt>
      <trkpt lat="43.74509" lon="0.97385">
        <ele>162.7</ele>
        <time>2015-06-10T08:52:31.000Z</time>
      </trkpt>
      <trkpt lat="43.74517" lon="0.9739">
        <ele>162.2</ele>
        <time>2015-06-10T08:52:40.000Z</time>
      </trkpt>
      <trkpt lat="43.74526" lon="0.97395">
        <ele>161.6</ele>
        <time>2015-06-10T08:52:49.000Z</time>
      </trkpt>
      <trkpt lat="43.74534" lon="0.97401">
        <ele>160.9</ele>
        <time>2015-06-10T08:52:58.000Z</time>
      </trkpt>
      <trkpt lat="43.74543" lon="0.97408">
        <ele>160.5</ele>
        <time>2015-06-10T08:53:08.000Z</time>
      </trkpt>
      <trkpt lat="43.74551" lon="0.97415">
        <ele>159.7</ele>
        <time>2015-06-10T08:53:17.000Z</time>
      </trkpt>
      <trkpt lat="43.7456" lon="0.97421">
        <ele>159.5</ele>
        <time>2015-06-10T08:53:25.000Z</time>
      </trkpt>
      <trkpt lat="43.74569" lon="0.97427">
        <ele>158.9</ele>
        <time>2015-06-10T08:53:33.000Z</time>
      </trkpt>
      <trkpt lat="43.74577" lon="0.97434">
        <ele>158.8</ele>
        <time>2015-06-10T08:53:41.000Z</time>
      </trkpt>
      <trkpt lat="43.74586" lon="0.97439">
        <ele>158.1</ele>
        <time>2015-06-10T08:53:49.000Z</time>
      </trkpt>
      <trkpt lat="43.74594" lon="0.97445">
        <ele>157.8</ele>
        <time>2015-06-10T08:53:57.000Z</time>
      </trkpt>
      <trkpt lat="43.74602" lon="0.97451">
        <ele>156.7</ele>
        <time>2015-06-10T08:54:05.000Z</time>
      </trkpt>
      <trkpt lat="43.7461" lon="0.97457">
        <ele>156.1</ele>
        <time>2015-06-10T08:54:14.000Z</time>
      </trkpt>
      <trkpt lat="43.74618" lon="0.97462">
        <ele>156</ele>
        <time>2015-06-10T08:54:22.000Z</time>
      </trkpt>
      <trkpt lat="43.74626" lon="0.97469">
        <ele>155.2</ele>
        <time>2015-06-10T08:54:31.000Z</time>
      </trkpt>
      <trkpt lat="43.74635" lon="0.97476">
        <ele>154.6</ele>
        <time>2015-06-10T08:54:40.000Z</time>
      </trkpt>
      <trkpt lat="43.74644" lon="0.97482">
        <ele>153.9</ele>
        <time>2015-06-10T08:54:51.000Z</time>
      </trkpt>
      <trkpt lat="43.74652" lon="0.97488">
        <ele>153.5</ele>
        <time>2015-06-10T08:55:01.000Z</time>
      </trkpt>
      <trkpt lat="43.74662" lon="0.97494">
        <ele>152.6</ele>
        <time>2015-06-10T08:56:00.000Z</time>
      </trkpt>
      <trkpt lat="43.7467" lon="0.97502">
        <ele>152.6</ele>
        <time>2015-06-10T08:56:11.000Z</time>
      </trkpt>
      <trkpt lat="43.74678" lon="0.97508">
        <ele>152.5</ele>
        <time>2015-06-10T08:56:20.000Z</time>
      </trkpt>
      <trkpt lat="43.74687" lon="0.97517">
        <ele>151.6</ele>
        <time>2015-06-10T08:56:29.000Z</time>
      </trkpt>
      <trkpt lat="43.74695" lon="0.97522">
        <ele>151</ele>
        <time>2015-06-10T08:56:38.000Z</time>
      </trkpt>
      <trkpt lat="43.74703" lon="0.9753">
        <ele>150.2</ele>
        <time>2015-06-10T08:56:48.000Z</time>
      </trkpt>
      <trkpt lat="43.74711" lon="0.97537">
        <ele>149.3</ele>
        <time>2015-06-10T08:56:57.000Z</time>
      </trkpt>
      <trkpt lat="43.74718" lon="0.97544">
        <ele>148.2</ele>
        <time>2015-06-10T08:57:07.000Z</time>
      </trkpt>
      <trkpt lat="43.74727" lon="0.97549">
        <ele>147.7</ele>
        <time>2015-06-10T08:57:52.000Z</time>
      </trkpt>
      <trkpt lat="43.74736" lon="0.97554">
        <ele>147.3</ele>
        <time>2015-06-10T08:58:01.000Z</time>
      </trkpt>
      <trkpt lat="43.74745" lon="0.9756">
        <ele>146.6</ele>
        <time>2015-06-10T08:58:10.000Z</time>
      </trkpt>
      <trkpt lat="43.74753" lon="0.97566">
        <ele>146.3</ele>
        <time>2015-06-10T08:58:16.000Z</time>
      </trkpt>
      <trkpt lat="43.7476" lon="0.97575">
        <ele>146</ele>
        <time>2015-06-10T08:58:26.000Z</time>
      </trkpt>
      <trkpt lat="43.74768" lon="0.97584">
        <ele>145.5</ele>
        <time>2015-06-10T08:58:35.000Z</time>
      </trkpt>
      <trkpt lat="43.74776" lon="0.97591">
        <ele>145.3</ele>
        <time>2015-06-10T08:58:45.000Z</time>
      </trkpt>
      <trkpt lat="43.74786" lon="0.97591">
        <ele>144.9</ele>
        <time>2015-06-10T08:58:53.000Z</time>
      </trkpt>
      <trkpt lat="43.74795" lon="0.97589">
        <ele>143.6</ele>
        <time>2015-06-10T08:59:57.000Z</time>
      </trkpt>
      <trkpt lat="43.74804" lon="0.97593">
        <ele>143.3</ele>
        <time>2015-06-10T09:00:04.000Z</time>
      </trkpt>
      <trkpt lat="43.74812" lon="0.976">
        <ele>142.9</ele>
        <time>2015-06-10T09:00:13.000Z</time>
      </trkpt>
      <trkpt lat="43.74821" lon="0.97607">
        <ele>142</ele>
        <time>2015-06-10T09:00:21.000Z</time>
      </trkpt>
      <trkpt lat="43.74829" lon="0.97614">
        <ele>141.4</ele>
        <time>2015-06-10T09:00:30.000Z</time>
      </trkpt>
      <trkpt lat="43.74838" lon="0.9762">
        <ele>141.2</ele>
        <time>2015-06-10T09:00:37.000Z</time>
      </trkpt>
      <trkpt lat="43.74847" lon="0.97626">
        <ele>140.2</ele>
        <time>2015-06-10T09:00:44.000Z</time>
      </trkpt>
      <trkpt lat="43.74856" lon="0.97634">
        <ele>140</ele>
        <time>2015-06-10T09:00:51.000Z</time>
      </trkpt>
      <trkpt lat="43.74864" lon="0.97641">
        <ele>139.5</ele>
        <time>2015-06-10T09:00:58.000Z</time>
      </trkpt>
      <trkpt lat="43.7487" lon="0.97652">
        <ele>138.3</ele>
        <time>2015-06-10T09:01:07.000Z</time>
      </trkpt>
      <trkpt lat="43.74869" lon="0.97665">
        <ele>137.8</ele>
        <time>2015-06-10T09:01:16.000Z</time>
      </trkpt>
      <trkpt lat="43.74867" lon="0.97677">
        <ele>137.6</ele>
        <time>2015-06-10T09:01:24.000Z</time>
      </trkpt>
      <trkpt lat="43.74865" lon="0.9769">
        <ele>137.5</ele>
        <time>2015-06-10T09:01:32.000Z</time>
      </trkpt>
      <trkpt lat="43.74862" lon="0.97703">
        <ele>137.5</ele>
        <time>2015-06-10T09:01:41.000Z</time>
      </trkpt>
      <trkpt lat="43.74861" lon="0.97716">
        <ele>137.3</ele>
        <time>2015-06-10T09:01:51.000Z</time>
      </trkpt>
      <trkpt lat="43.74857" lon="0.97728">
        <ele>137.5</ele>
        <time>2015-06-10T09:01:58.000Z</time>
      </trkpt>
      <trkpt lat="43.74853" lon="0.97739">
        <ele>137.7</ele>
        <time>2015-06-10T09:02:06.000Z</time>
      </trkpt>
      <trkpt lat="43.74847" lon="0.9775">
        <ele>137.5</ele>
        <time>2015-06-10T09:02:14.000Z</time>
      </trkpt>
      <trkpt lat="43.74854" lon="0.9776">
        <ele>137.5</ele>
        <time>2015-06-10T09:02:27.000Z</time>
      </trkpt>
      <trkpt lat="43.74863" lon="0.97764">
        <ele>137.6</ele>
        <time>2015-06-10T09:02:34.000Z</time>
      </trkpt>
      <trkpt lat="43.74871" lon="0.97768">
        <ele>137.6</ele>
        <time>2015-06-10T09:02:43.000Z</time>
      </trkpt>
      <trkpt lat="43.7488" lon="0.97772">
        <ele>137.3</ele>
        <time>2015-06-10T09:02:50.000Z</time>
      </trkpt>
      <trkpt lat="43.74889" lon="0.97776">
        <ele>137.4</ele>
        <time>2015-06-10T09:02:57.000Z</time>
      </trkpt>
      <trkpt lat="43.74899" lon="0.97781">
        <ele>137.4</ele>
        <time>2015-06-10T09:03:06.000Z</time>
      </trkpt>
      <trkpt lat="43.74907" lon="0.97785">
        <ele>137.4</ele>
        <time>2015-06-10T09:03:13.000Z</time>
      </trkpt>
      <trkpt lat="43.74917" lon="0.97789">
        <ele>137.3</ele>
        <time>2015-06-10T09:03:21.000Z</time>
      </trkpt>
      <trkpt lat="43.74927" lon="0.97791">
        <ele>137.8</ele>
        <time>2015-06-10T09:03:32.000Z</time>
      </trkpt>
      <trkpt lat="43.74935" lon="0.97795">
        <ele>138.1</ele>
        <time>2015-06-10T09:03:40.000Z</time>
      </trkpt>
      <trkpt lat="43.74944" lon="0.97799">
        <ele>138.6</ele>
        <time>2015-06-10T09:03:49.000Z</time>
      </trkpt>
      <trkpt lat="43.74949" lon="0.97811">
        <ele>139</ele>
        <time>2015-06-10T09:03:59.000Z</time>
      </trkpt>
      <trkpt lat="43.74947" lon="0.97824">
        <ele>139.7</ele>
        <time>2015-06-10T09:04:08.000Z</time>
      </trkpt>
      <trkpt lat="43.74946" lon="0.97837">
        <ele>139.7</ele>
        <time>2015-06-10T09:04:16.000Z</time>
      </trkpt>
      <trkpt lat="43.74946" lon="0.97851">
        <ele>139.7</ele>
        <time>2015-06-10T09:04:24.000Z</time>
      </trkpt>
      <trkpt lat="43.74946" lon="0.97864">
        <ele>139.6</ele>
        <time>2015-06-10T09:04:32.000Z</time>
      </trkpt>
      <trkpt lat="43.74946" lon="0.97877">
        <ele>139.5</ele>
        <time>2015-06-10T09:04:40.000Z</time>
      </trkpt>
      <trkpt lat="43.74948" lon="0.97889">
        <ele>139.9</ele>
        <time>2015-06-10T09:04:48.000Z</time>
      </trkpt>
      <trkpt lat="43.74949" lon="0.97903">
        <ele>140.3</ele>
        <time>2015-06-10T09:04:57.000Z</time>
      </trkpt>
      <trkpt lat="43.74951" lon="0.97916">
        <ele>141.2</ele>
        <time>2015-06-10T09:05:06.000Z</time>
      </trkpt>
      <trkpt lat="43.74952" lon="0.97929">
        <ele>141.8</ele>
        <time>2015-06-10T09:05:15.000Z</time>
      </trkpt>
      <trkpt lat="43.74954" lon="0.97942">
        <ele>142.5</ele>
        <time>2015-06-10T09:05:23.000Z</time>
      </trkpt>
      <trkpt lat="43.74956" lon="0.97954">
        <ele>143.5</ele>
        <time>2015-06-10T09:05:31.000Z</time>
      </trkpt>
      <trkpt lat="43.74956" lon="0.97968">
        <ele>144.6</ele>
        <time>2015-06-10T09:05:41.000Z</time>
      </trkpt>
      <trkpt lat="43.74959" lon="0.9798">
        <ele>145.1</ele>
        <time>2015-06-10T09:05:49.000Z</time>
      </trkpt>
      <trkpt lat="43.74962" lon="0.97993">
        <ele>146.3</ele>
        <time>2015-06-10T09:05:58.000Z</time>
      </trkpt>
      <trkpt lat="43.74965" lon="0.98006">
        <ele>147.6</ele>
        <time>2015-06-10T09:06:08.000Z</time>
      </trkpt>
      <trkpt lat="43.74969" lon="0.98018">
        <ele>148.9</ele>
        <time>2015-06-10T09:06:18.000Z</time>
      </trkpt>
      <trkpt lat="43.74969" lon="0.98033">
        <ele>150.6</ele>
        <time>2015-06-10T09:06:34.000Z</time>
      </trkpt>
      <trkpt lat="43.74967" lon="0.98046">
        <ele>150.9</ele>
        <time>2015-06-10T09:06:43.000Z</time>
      </trkpt>
      <trkpt lat="43.74963" lon="0.98059">
        <ele>151</ele>
        <time>2015-06-10T09:06:53.000Z</time>
      </trkpt>
      <trkpt lat="43.74959" lon="0.98071">
        <ele>151.5</ele>
        <time>2015-06-10T09:07:02.000Z</time>
      </trkpt>
      <trkpt lat="43.74958" lon="0.98083">
        <ele>151.4</ele>
        <time>2015-06-10T09:07:11.000Z</time>
      </trkpt>
      <trkpt lat="43.74961" lon="0.98096">
        <ele>151.5</ele>
        <time>2015-06-10T09:07:20.000Z</time>
      </trkpt>
      <trkpt lat="43.74959" lon="0.98109">
        <ele>151.5</ele>
        <time>2015-06-10T09:07:28.000Z</time>
      </trkpt>
      <trkpt lat="43.74957" lon="0.98123">
        <ele>151.4</ele>
        <time>2015-06-10T09:07:35.000Z</time>
      </trkpt>
      <trkpt lat="43.74957" lon="0.98137">
        <ele>151.5</ele>
        <time>2015-06-10T09:07:43.000Z</time>
      </trkpt>
      <trkpt lat="43.74957" lon="0.98151">
        <ele>151.7</ele>
        <time>2015-06-10T09:07:52.000Z</time>
      </trkpt>
      <trkpt lat="43.74957" lon="0.98164">
        <ele>151.9</ele>
        <time>2015-06-10T09:08:00.000Z</time>
      </trkpt>
      <trkpt lat="43.74957" lon="0.98176">
        <ele>152.1</ele>
        <time>2015-06-10T09:08:08.000Z</time>
      </trkpt>
      <trkpt lat="43.74956" lon="0.9819">
        <ele>152.3</ele>
        <time>2015-06-10T09:08:17.000Z</time>
      </trkpt>
      <trkpt lat="43.74956" lon="0.98202">
        <ele>152.6</ele>
        <time>2015-06-10T09:08:26.000Z</time>
      </trkpt>
      <trkpt lat="43.74955" lon="0.98215">
        <ele>152.9</ele>
        <time>2015-06-10T09:08:34.000Z</time>
      </trkpt>
      <trkpt lat="43.74954" lon="0.98227">
        <ele>153.1</ele>
        <time>2015-06-10T09:08:42.000Z</time>
      </trkpt>
      <trkpt lat="43.74954" lon="0.9824">
        <ele>153.4</ele>
        <time>2015-06-10T09:08:51.000Z</time>
      </trkpt>
      <trkpt lat="43.74953" lon="0.98254">
        <ele>153.9</ele>
        <time>2015-06-10T09:09:00.000Z</time>
      </trkpt>
      <trkpt lat="43.74953" lon="0.98268">
        <ele>154.2</ele>
        <time>2015-06-10T09:09:09.000Z</time>
      </trkpt>
      <trkpt lat="43.74952" lon="0.9828">
        <ele>154.8</ele>
        <time>2015-06-10T09:09:17.000Z</time>
      </trkpt>
      <trkpt lat="43.74952" lon="0.98293">
        <ele>155.6</ele>
        <time>2015-06-10T09:09:26.000Z</time>
      </trkpt>
      <trkpt lat="43.74951" lon="0.98307">
        <ele>155.8</ele>
        <time>2015-06-10T09:09:35.000Z</time>
      </trkpt>
      <trkpt lat="43.7495" lon="0.9832">
        <ele>156.5</ele>
        <time>2015-06-10T09:09:44.000Z</time>
      </trkpt>
      <trkpt lat="43.7495" lon="0.98334">
        <ele>157.2</ele>
        <time>2015-06-10T09:09:53.000Z</time>
      </trkpt>
      <trkpt lat="43.74949" lon="0.98347">
        <ele>157.7</ele>
        <time>2015-06-10T09:10:01.000Z</time>
      </trkpt>
      <trkpt lat="43.74949" lon="0.98359">
        <ele>158.1</ele>
        <time>2015-06-10T09:10:09.000Z</time>
      </trkpt>
      <trkpt lat="43.74948" lon="0.98373">
        <ele>158.7</ele>
        <time>2015-06-10T09:10:18.000Z</time>
      </trkpt>
      <trkpt lat="43.74948" lon="0.98386">
        <ele>159.2</ele>
        <time>2015-06-10T09:10:26.000Z</time>
      </trkpt>
      <trkpt lat="43.74947" lon="0.98398">
        <ele>159.9</ele>
        <time>2015-06-10T09:10:34.000Z</time>
      </trkpt>
      <trkpt lat="43.74946" lon="0.98411">
        <ele>160.7</ele>
        <time>2015-06-10T09:10:42.000Z</time>
      </trkpt>
      <trkpt lat="43.74946" lon="0.98424">
        <ele>161.6</ele>
        <time>2015-06-10T09:10:51.000Z</time>
      </trkpt>
      <trkpt lat="43.74945" lon="0.98438">
        <ele>162.3</ele>
        <time>2015-06-10T09:11:00.000Z</time>
      </trkpt>
      <trkpt lat="43.74943" lon="0.9845">
        <ele>163.1</ele>
        <time>2015-06-10T09:11:08.000Z</time>
      </trkpt>
      <trkpt lat="43.74941" lon="0.98463">
        <ele>163.6</ele>
        <time>2015-06-10T09:11:16.000Z</time>
      </trkpt>
      <trkpt lat="43.74938" lon="0.98474">
        <ele>163.6</ele>
        <time>2015-06-10T09:11:24.000Z</time>
      </trkpt>
      <trkpt lat="43.74934" lon="0.98487">
        <ele>164.2</ele>
        <time>2015-06-10T09:11:33.000Z</time>
      </trkpt>
      <trkpt lat="43.74932" lon="0.98499">
        <ele>164.4</ele>
        <time>2015-06-10T09:11:41.000Z</time>
      </trkpt>
      <trkpt lat="43.74931" lon="0.98512">
        <ele>164.6</ele>
        <time>2015-06-10T09:12:27.000Z</time>
      </trkpt>
      <trkpt lat="43.74939" lon="0.98522">
        <ele>166.7</ele>
        <time>2015-06-10T09:14:16.000Z</time>
      </trkpt>
      <trkpt lat="43.74939" lon="0.98535">
        <ele>166.3</ele>
        <time>2015-06-10T09:14:54.000Z</time>
      </trkpt>
      <trkpt lat="43.74932" lon="0.98526">
        <ele>164.8</ele>
        <time>2015-06-10T09:15:40.000Z</time>
      </trkpt>
      <trkpt lat="43.74931" lon="0.98514">
        <ele>163.8</ele>
        <time>2015-06-10T09:15:55.000Z</time>
      </trkpt>
      <trkpt lat="43.74923" lon="0.9852">
        <ele>163.7</ele>
        <time>2015-06-10T09:16:14.000Z</time>
      </trkpt>
      <trkpt lat="43.74923" lon="0.98533">
        <ele>162.7</ele>
        <time>2015-06-10T09:16:24.000Z</time>
      </trkpt>
      <trkpt lat="43.74925" lon="0.98547">
        <ele>161.4</ele>
        <time>2015-06-10T09:16:32.000Z</time>
      </trkpt>
      <trkpt lat="43.74929" lon="0.98558">
        <ele>160.5</ele>
        <time>2015-06-10T09:16:40.000Z</time>
      </trkpt>
      <trkpt lat="43.74932" lon="0.98571">
        <ele>159.5</ele>
        <time>2015-06-10T09:16:50.000Z</time>
      </trkpt>
      <trkpt lat="43.74936" lon="0.98583">
        <ele>158.4</ele>
        <time>2015-06-10T09:16:58.000Z</time>
      </trkpt>
      <trkpt lat="43.74939" lon="0.98595">
        <ele>157.8</ele>
        <time>2015-06-10T09:17:11.000Z</time>
      </trkpt>
      <trkpt lat="43.74918" lon="0.98589">
        <ele>154</ele>
        <time>2015-06-10T09:20:12.000Z</time>
      </trkpt>
      <trkpt lat="43.74908" lon="0.98591">
        <ele>153.7</ele>
        <time>2015-06-10T09:20:19.000Z</time>
      </trkpt>
      <trkpt lat="43.74899" lon="0.98589">
        <ele>153.4</ele>
        <time>2015-06-10T09:20:27.000Z</time>
      </trkpt>
      <trkpt lat="43.74889" lon="0.98588">
        <ele>152.9</ele>
        <time>2015-06-10T09:20:35.000Z</time>
      </trkpt>
      <trkpt lat="43.7488" lon="0.98586">
        <ele>151.8</ele>
        <time>2015-06-10T09:20:44.000Z</time>
      </trkpt>
      <trkpt lat="43.7487" lon="0.98586">
        <ele>151.3</ele>
        <time>2015-06-10T09:20:51.000Z</time>
      </trkpt>
      <trkpt lat="43.74861" lon="0.98584">
        <ele>150.8</ele>
        <time>2015-06-10T09:20:59.000Z</time>
      </trkpt>
      <trkpt lat="43.74852" lon="0.98581">
        <ele>149.7</ele>
        <time>2015-06-10T09:21:07.000Z</time>
      </trkpt>
      <trkpt lat="43.74843" lon="0.98576">
        <ele>148.9</ele>
        <time>2015-06-10T09:21:16.000Z</time>
      </trkpt>
      <trkpt lat="43.74836" lon="0.98568">
        <ele>148.2</ele>
        <time>2015-06-10T09:21:24.000Z</time>
      </trkpt>
      <trkpt lat="43.7483" lon="0.98558">
        <ele>147.5</ele>
        <time>2015-06-10T09:21:32.000Z</time>
      </trkpt>
      <trkpt lat="43.74825" lon="0.98547">
        <ele>146.7</ele>
        <time>2015-06-10T09:21:40.000Z</time>
      </trkpt>
      <trkpt lat="43.74821" lon="0.98535">
        <ele>146.3</ele>
        <time>2015-06-10T09:21:48.000Z</time>
      </trkpt>
      <trkpt lat="43.74816" lon="0.98523">
        <ele>145.6</ele>
        <time>2015-06-10T09:21:56.000Z</time>
      </trkpt>
      <trkpt lat="43.7481" lon="0.98512">
        <ele>145.1</ele>
        <time>2015-06-10T09:22:04.000Z</time>
      </trkpt>
      <trkpt lat="43.74804" lon="0.985">
        <ele>144.9</ele>
        <time>2015-06-10T09:22:12.000Z</time>
      </trkpt>
      <trkpt lat="43.74799" lon="0.98488">
        <ele>144.3</ele>
        <time>2015-06-10T09:22:20.000Z</time>
      </trkpt>
      <trkpt lat="43.74793" lon="0.98477">
        <ele>143.3</ele>
        <time>2015-06-10T09:22:27.000Z</time>
      </trkpt>
      <trkpt lat="43.74787" lon="0.98466">
        <ele>142.8</ele>
        <time>2015-06-10T09:22:35.000Z</time>
      </trkpt>
      <trkpt lat="43.74782" lon="0.98456">
        <ele>142.2</ele>
        <time>2015-06-10T09:22:42.000Z</time>
      </trkpt>
      <trkpt lat="43.74777" lon="0.98445">
        <ele>141.4</ele>
        <time>2015-06-10T09:22:49.000Z</time>
      </trkpt>
      <trkpt lat="43.74772" lon="0.98433">
        <ele>141.5</ele>
        <time>2015-06-10T09:22:57.000Z</time>
      </trkpt>
      <trkpt lat="43.74767" lon="0.98422">
        <ele>140.9</ele>
        <time>2015-06-10T09:23:06.000Z</time>
      </trkpt>
      <trkpt lat="43.74762" lon="0.9841">
        <ele>140.1</ele>
        <time>2015-06-10T09:23:14.000Z</time>
      </trkpt>
      <trkpt lat="43.74757" lon="0.98398">
        <ele>139.1</ele>
        <time>2015-06-10T09:23:22.000Z</time>
      </trkpt>
      <trkpt lat="43.74752" lon="0.98387">
        <ele>138.7</ele>
        <time>2015-06-10T09:23:34.000Z</time>
      </trkpt>
      <trkpt lat="43.74746" lon="0.98377">
        <ele>138</ele>
        <time>2015-06-10T09:23:43.000Z</time>
      </trkpt>
      <trkpt lat="43.7474" lon="0.98365">
        <ele>137.8</ele>
        <time>2015-06-10T09:23:51.000Z</time>
      </trkpt>
      <trkpt lat="43.74735" lon="0.98355">
        <ele>137.5</ele>
        <time>2015-06-10T09:23:58.000Z</time>
      </trkpt>
      <trkpt lat="43.74729" lon="0.98346">
        <ele>136.8</ele>
        <time>2015-06-10T09:24:05.000Z</time>
      </trkpt>
      <trkpt lat="43.74721" lon="0.98337">
        <ele>136.7</ele>
        <time>2015-06-10T09:24:13.000Z</time>
      </trkpt>
      <trkpt lat="43.74712" lon="0.98329">
        <ele>136.6</ele>
        <time>2015-06-10T09:24:22.000Z</time>
      </trkpt>
      <trkpt lat="43.74704" lon="0.98322">
        <ele>136.2</ele>
        <time>2015-06-10T09:24:30.000Z</time>
      </trkpt>
      <trkpt lat="43.74696" lon="0.98316">
        <ele>135.8</ele>
        <time>2015-06-10T09:24:37.000Z</time>
      </trkpt>
      <trkpt lat="43.74687" lon="0.98312">
        <ele>136</ele>
        <time>2015-06-10T09:24:44.000Z</time>
      </trkpt>
      <trkpt lat="43.74678" lon="0.98307">
        <ele>135.9</ele>
        <time>2015-06-10T09:24:52.000Z</time>
      </trkpt>
      <trkpt lat="43.74668" lon="0.98302">
        <ele>135.8</ele>
        <time>2015-06-10T09:25:00.000Z</time>
      </trkpt>
      <trkpt lat="43.74659" lon="0.983">
        <ele>135.8</ele>
        <time>2015-06-10T09:25:07.000Z</time>
      </trkpt>
      <trkpt lat="43.7465" lon="0.98299">
        <ele>135.8</ele>
        <time>2015-06-10T09:25:14.000Z</time>
      </trkpt>
      <trkpt lat="43.7464" lon="0.98297">
        <ele>135.7</ele>
        <time>2015-06-10T09:25:22.000Z</time>
      </trkpt>
      <trkpt lat="43.7463" lon="0.98295">
        <ele>136</ele>
        <time>2015-06-10T09:25:30.000Z</time>
      </trkpt>
      <trkpt lat="43.7462" lon="0.98297">
        <ele>135.9</ele>
        <time>2015-06-10T09:25:37.000Z</time>
      </trkpt>
      <trkpt lat="43.74611" lon="0.983">
        <ele>135.9</ele>
        <time>2015-06-10T09:25:45.000Z</time>
      </trkpt>
      <trkpt lat="43.74602" lon="0.98304">
        <ele>135.9</ele>
        <time>2015-06-10T09:25:54.000Z</time>
      </trkpt>
      <trkpt lat="43.74593" lon="0.98312">
        <ele>136</ele>
        <time>2015-06-10T09:26:02.000Z</time>
      </trkpt>
      <trkpt lat="43.74587" lon="0.98322">
        <ele>136.1</ele>
        <time>2015-06-10T09:26:09.000Z</time>
      </trkpt>
      <trkpt lat="43.7458" lon="0.98332">
        <ele>136.1</ele>
        <time>2015-06-10T09:26:16.000Z</time>
      </trkpt>
      <trkpt lat="43.74574" lon="0.98344">
        <ele>136</ele>
        <time>2015-06-10T09:26:24.000Z</time>
      </trkpt>
      <trkpt lat="43.74568" lon="0.98354">
        <ele>136.3</ele>
        <time>2015-06-10T09:26:31.000Z</time>
      </trkpt>
      <trkpt lat="43.74563" lon="0.98364">
        <ele>136.3</ele>
        <time>2015-06-10T09:26:39.000Z</time>
      </trkpt>
      <trkpt lat="43.74556" lon="0.98375">
        <ele>136.6</ele>
        <time>2015-06-10T09:26:47.000Z</time>
      </trkpt>
      <trkpt lat="43.74548" lon="0.98382">
        <ele>136.9</ele>
        <time>2015-06-10T09:26:55.000Z</time>
      </trkpt>
      <trkpt lat="43.74539" lon="0.98388">
        <ele>136.9</ele>
        <time>2015-06-10T09:27:03.000Z</time>
      </trkpt>
      <trkpt lat="43.7453" lon="0.98393">
        <ele>137.1</ele>
        <time>2015-06-10T09:27:11.000Z</time>
      </trkpt>
      <trkpt lat="43.74521" lon="0.98398">
        <ele>137</ele>
        <time>2015-06-10T09:27:18.000Z</time>
      </trkpt>
      <trkpt lat="43.74512" lon="0.98403">
        <ele>137.3</ele>
        <time>2015-06-10T09:27:25.000Z</time>
      </trkpt>
      <trkpt lat="43.74503" lon="0.98407">
        <ele>137.4</ele>
        <time>2015-06-10T09:27:31.000Z</time>
      </trkpt>
      <trkpt lat="43.74494" lon="0.9841">
        <ele>137.8</ele>
        <time>2015-06-10T09:27:37.000Z</time>
      </trkpt>
      <trkpt lat="43.74485" lon="0.98413">
        <ele>137.9</ele>
        <time>2015-06-10T09:27:44.000Z</time>
      </trkpt>
      <trkpt lat="43.74476" lon="0.98415">
        <ele>138.2</ele>
        <time>2015-06-10T09:27:51.000Z</time>
      </trkpt>
      <trkpt lat="43.74466" lon="0.98417">
        <ele>138.2</ele>
        <time>2015-06-10T09:27:59.000Z</time>
      </trkpt>
      <trkpt lat="43.74457" lon="0.98422">
        <ele>138.1</ele>
        <time>2015-06-10T09:28:08.000Z</time>
      </trkpt>
      <trkpt lat="43.74451" lon="0.9843">
        <ele>138</ele>
        <time>2015-06-10T09:28:17.000Z</time>
      </trkpt>
      <trkpt lat="43.74443" lon="0.98438">
        <ele>138.1</ele>
        <time>2015-06-10T09:28:25.000Z</time>
      </trkpt>
      <trkpt lat="43.74435" lon="0.98445">
        <ele>138.2</ele>
        <time>2015-06-10T09:28:32.000Z</time>
      </trkpt>
      <trkpt lat="43.74427" lon="0.98453">
        <ele>137.7</ele>
        <time>2015-06-10T09:28:40.000Z</time>
      </trkpt>
      <trkpt lat="43.74418" lon="0.9846">
        <ele>137.9</ele>
        <time>2015-06-10T09:28:48.000Z</time>
      </trkpt>
      <trkpt lat="43.7441" lon="0.98467">
        <ele>137.5</ele>
        <time>2015-06-10T09:28:56.000Z</time>
      </trkpt>
      <trkpt lat="43.74402" lon="0.98475">
        <ele>137.6</ele>
        <time>2015-06-10T09:29:04.000Z</time>
      </trkpt>
      <trkpt lat="43.74393" lon="0.98482">
        <ele>137.2</ele>
        <time>2015-06-10T09:29:12.000Z</time>
      </trkpt>
      <trkpt lat="43.74385" lon="0.98489">
        <ele>137.1</ele>
        <time>2015-06-10T09:29:20.000Z</time>
      </trkpt>
      <trkpt lat="43.74377" lon="0.98497">
        <ele>137.3</ele>
        <time>2015-06-10T09:29:28.000Z</time>
      </trkpt>
      <trkpt lat="43.74368" lon="0.98503">
        <ele>137.3</ele>
        <time>2015-06-10T09:29:36.000Z</time>
      </trkpt>
      <trkpt lat="43.74359" lon="0.98511">
        <ele>137.4</ele>
        <time>2015-06-10T09:29:44.000Z</time>
      </trkpt>
      <trkpt lat="43.74352" lon="0.98518">
        <ele>137.6</ele>
        <time>2015-06-10T09:29:52.000Z</time>
      </trkpt>
      <trkpt lat="43.74343" lon="0.98524">
        <ele>137.7</ele>
        <time>2015-06-10T09:30:00.000Z</time>
      </trkpt>
      <trkpt lat="43.74335" lon="0.9853">
        <ele>137.6</ele>
        <time>2015-06-10T09:30:07.000Z</time>
      </trkpt>
      <trkpt lat="43.74327" lon="0.98537">
        <ele>137.5</ele>
        <time>2015-06-10T09:30:14.000Z</time>
      </trkpt>
      <trkpt lat="43.74319" lon="0.98544">
        <ele>137.3</ele>
        <time>2015-06-10T09:30:22.000Z</time>
      </trkpt>
      <trkpt lat="43.74311" lon="0.98551">
        <ele>136.8</ele>
        <time>2015-06-10T09:30:30.000Z</time>
      </trkpt>
      <trkpt lat="43.74302" lon="0.98556">
        <ele>136.7</ele>
        <time>2015-06-10T09:30:37.000Z</time>
      </trkpt>
      <trkpt lat="43.74294" lon="0.98563">
        <ele>136.9</ele>
        <time>2015-06-10T09:30:45.000Z</time>
      </trkpt>
      <trkpt lat="43.74286" lon="0.9857">
        <ele>137</ele>
        <time>2015-06-10T09:30:53.000Z</time>
      </trkpt>
      <trkpt lat="43.74278" lon="0.98577">
        <ele>136.8</ele>
        <time>2015-06-10T09:31:01.000Z</time>
      </trkpt>
      <trkpt lat="43.7427" lon="0.98585">
        <ele>136.9</ele>
        <time>2015-06-10T09:31:07.000Z</time>
      </trkpt>
      <trkpt lat="43.74263" lon="0.98593">
        <ele>137.2</ele>
        <time>2015-06-10T09:31:16.000Z</time>
      </trkpt>
      <trkpt lat="43.74256" lon="0.98602">
        <ele>136.9</ele>
        <time>2015-06-10T09:31:24.000Z</time>
      </trkpt>
      <trkpt lat="43.74248" lon="0.98611">
        <ele>137</ele>
        <time>2015-06-10T09:31:32.000Z</time>
      </trkpt>
      <trkpt lat="43.74241" lon="0.9862">
        <ele>137.4</ele>
        <time>2015-06-10T09:31:39.000Z</time>
      </trkpt>
      <trkpt lat="43.74234" lon="0.98629">
        <ele>137.3</ele>
        <time>2015-06-10T09:31:48.000Z</time>
      </trkpt>
      <trkpt lat="43.74226" lon="0.98638">
        <ele>137.2</ele>
        <time>2015-06-10T09:31:56.000Z</time>
      </trkpt>
      <trkpt lat="43.74218" lon="0.98644">
        <ele>137.4</ele>
        <time>2015-06-10T09:32:04.000Z</time>
      </trkpt>
      <trkpt lat="43.74209" lon="0.98649">
        <ele>137.7</ele>
        <time>2015-06-10T09:32:12.000Z</time>
      </trkpt>
      <trkpt lat="43.742" lon="0.98655">
        <ele>137.3</ele>
        <time>2015-06-10T09:32:20.000Z</time>
      </trkpt>
      <trkpt lat="43.7419" lon="0.98657">
        <ele>137.8</ele>
        <time>2015-06-10T09:32:29.000Z</time>
      </trkpt>
      <trkpt lat="43.74181" lon="0.9866">
        <ele>137.3</ele>
        <time>2015-06-10T09:32:39.000Z</time>
      </trkpt>
      <trkpt lat="43.74172" lon="0.98664">
        <ele>137.5</ele>
        <time>2015-06-10T09:32:47.000Z</time>
      </trkpt>
      <trkpt lat="43.74162" lon="0.98667">
        <ele>137.3</ele>
        <time>2015-06-10T09:32:55.000Z</time>
      </trkpt>
      <trkpt lat="43.74152" lon="0.98671">
        <ele>137.1</ele>
        <time>2015-06-10T09:33:02.000Z</time>
      </trkpt>
      <trkpt lat="43.74143" lon="0.98672">
        <ele>137.3</ele>
        <time>2015-06-10T09:33:11.000Z</time>
      </trkpt>
      <trkpt lat="43.74134" lon="0.98679">
        <ele>137.4</ele>
        <time>2015-06-10T09:33:17.000Z</time>
      </trkpt>
      <trkpt lat="43.74125" lon="0.98685">
        <ele>137.3</ele>
        <time>2015-06-10T09:33:27.000Z</time>
      </trkpt>
      <trkpt lat="43.74116" lon="0.98691">
        <ele>137.3</ele>
        <time>2015-06-10T09:33:35.000Z</time>
      </trkpt>
      <trkpt lat="43.74107" lon="0.98695">
        <ele>137.7</ele>
        <time>2015-06-10T09:33:42.000Z</time>
      </trkpt>
      <trkpt lat="43.74098" lon="0.987">
        <ele>137.6</ele>
        <time>2015-06-10T09:33:49.000Z</time>
      </trkpt>
      <trkpt lat="43.74089" lon="0.98707">
        <ele>137.5</ele>
        <time>2015-06-10T09:33:55.000Z</time>
      </trkpt>
      <trkpt lat="43.7408" lon="0.98713">
        <ele>137.3</ele>
        <time>2015-06-10T09:34:03.000Z</time>
      </trkpt>
      <trkpt lat="43.74071" lon="0.98717">
        <ele>137.1</ele>
        <time>2015-06-10T09:34:11.000Z</time>
      </trkpt>
      <trkpt lat="43.74062" lon="0.98722">
        <ele>137.1</ele>
        <time>2015-06-10T09:34:20.000Z</time>
      </trkpt>
      <trkpt lat="43.74054" lon="0.98727">
        <ele>136.9</ele>
        <time>2015-06-10T09:34:28.000Z</time>
      </trkpt>
      <trkpt lat="43.74045" lon="0.98733">
        <ele>137.1</ele>
        <time>2015-06-10T09:34:36.000Z</time>
      </trkpt>
      <trkpt lat="43.74036" lon="0.9874">
        <ele>137.5</ele>
        <time>2015-06-10T09:34:45.000Z</time>
      </trkpt>
      <trkpt lat="43.74028" lon="0.98746">
        <ele>137.7</ele>
        <time>2015-06-10T09:34:51.000Z</time>
      </trkpt>
      <trkpt lat="43.7402" lon="0.98754">
        <ele>138.2</ele>
        <time>2015-06-10T09:34:58.000Z</time>
      </trkpt>
      <trkpt lat="43.74012" lon="0.98762">
        <ele>138.9</ele>
        <time>2015-06-10T09:35:05.000Z</time>
      </trkpt>
      <trkpt lat="43.74004" lon="0.9877">
        <ele>138.9</ele>
        <time>2015-06-10T09:35:12.000Z</time>
      </trkpt>
      <trkpt lat="43.73996" lon="0.98778">
        <ele>139.2</ele>
        <time>2015-06-10T09:35:19.000Z</time>
      </trkpt>
      <trkpt lat="43.73988" lon="0.98785">
        <ele>139.4</ele>
        <time>2015-06-10T09:35:28.000Z</time>
      </trkpt>
      <trkpt lat="43.7398" lon="0.98793">
        <ele>139.4</ele>
        <time>2015-06-10T09:35:36.000Z</time>
      </trkpt>
      <trkpt lat="43.73972" lon="0.98801">
        <ele>139.3</ele>
        <time>2015-06-10T09:35:45.000Z</time>
      </trkpt>
      <trkpt lat="43.73963" lon="0.98807">
        <ele>139.2</ele>
        <time>2015-06-10T09:35:54.000Z</time>
      </trkpt>
      <trkpt lat="43.73954" lon="0.98813">
        <ele>139.5</ele>
        <time>2015-06-10T09:36:03.000Z</time>
      </trkpt>
      <trkpt lat="43.73946" lon="0.98819">
        <ele>139.4</ele>
        <time>2015-06-10T09:36:11.000Z</time>
      </trkpt>
      <trkpt lat="43.73938" lon="0.98828">
        <ele>139.2</ele>
        <time>2015-06-10T09:36:18.000Z</time>
      </trkpt>
      <trkpt lat="43.7393" lon="0.98837">
        <ele>139.2</ele>
        <time>2015-06-10T09:36:25.000Z</time>
      </trkpt>
      <trkpt lat="43.73921" lon="0.98845">
        <ele>139.1</ele>
        <time>2015-06-10T09:36:31.000Z</time>
      </trkpt>
      <trkpt lat="43.73915" lon="0.98855">
        <ele>139</ele>
        <time>2015-06-10T09:36:39.000Z</time>
      </trkpt>
      <trkpt lat="43.73909" lon="0.98865">
        <ele>139</ele>
        <time>2015-06-10T09:36:47.000Z</time>
      </trkpt>
      <trkpt lat="43.73903" lon="0.98876">
        <ele>139</ele>
        <time>2015-06-10T09:36:56.000Z</time>
      </trkpt>
      <trkpt lat="43.73897" lon="0.98886">
        <ele>139.2</ele>
        <time>2015-06-10T09:37:03.000Z</time>
      </trkpt>
      <trkpt lat="43.73892" lon="0.98896">
        <ele>139.6</ele>
        <time>2015-06-10T09:37:10.000Z</time>
      </trkpt>
      <trkpt lat="43.73885" lon="0.98905">
        <ele>140.1</ele>
        <time>2015-06-10T09:37:17.000Z</time>
      </trkpt>
      <trkpt lat="43.73879" lon="0.98913">
        <ele>140.1</ele>
        <time>2015-06-10T09:37:24.000Z</time>
      </trkpt>
      <trkpt lat="43.73872" lon="0.98923">
        <ele>140.2</ele>
        <time>2015-06-10T09:37:32.000Z</time>
      </trkpt>
      <trkpt lat="43.73865" lon="0.9893">
        <ele>140.3</ele>
        <time>2015-06-10T09:37:41.000Z</time>
      </trkpt>
      <trkpt lat="43.73857" lon="0.98937">
        <ele>139.9</ele>
        <time>2015-06-10T09:37:48.000Z</time>
      </trkpt>
      <trkpt lat="43.7385" lon="0.98943">
        <ele>140</ele>
        <time>2015-06-10T09:37:56.000Z</time>
      </trkpt>
      <trkpt lat="43.73843" lon="0.98953">
        <ele>140.2</ele>
        <time>2015-06-10T09:38:03.000Z</time>
      </trkpt>
      <trkpt lat="43.73834" lon="0.9896">
        <ele>140</ele>
        <time>2015-06-10T09:38:11.000Z</time>
      </trkpt>
      <trkpt lat="43.73827" lon="0.98967">
        <ele>139.9</ele>
        <time>2015-06-10T09:38:18.000Z</time>
      </trkpt>
      <trkpt lat="43.73818" lon="0.98973">
        <ele>140</ele>
        <time>2015-06-10T09:38:26.000Z</time>
      </trkpt>
      <trkpt lat="43.73809" lon="0.9898">
        <ele>139.9</ele>
        <time>2015-06-10T09:38:34.000Z</time>
      </trkpt>
      <trkpt lat="43.738" lon="0.98984">
        <ele>139.8</ele>
        <time>2015-06-10T09:38:42.000Z</time>
      </trkpt>
      <trkpt lat="43.73792" lon="0.98989">
        <ele>139.4</ele>
        <time>2015-06-10T09:38:49.000Z</time>
      </trkpt>
      <trkpt lat="43.73784" lon="0.98995">
        <ele>139.4</ele>
        <time>2015-06-10T09:38:56.000Z</time>
      </trkpt>
      <trkpt lat="43.73775" lon="0.98999">
        <ele>139.8</ele>
        <time>2015-06-10T09:39:04.000Z</time>
      </trkpt>
      <trkpt lat="43.73767" lon="0.99005">
        <ele>139.6</ele>
        <time>2015-06-10T09:39:12.000Z</time>
      </trkpt>
      <trkpt lat="43.73758" lon="0.99011">
        <ele>139.9</ele>
        <time>2015-06-10T09:39:20.000Z</time>
      </trkpt>
      <trkpt lat="43.73749" lon="0.99015">
        <ele>140.1</ele>
        <time>2015-06-10T09:39:30.000Z</time>
      </trkpt>
      <trkpt lat="43.7374" lon="0.99018">
        <ele>140.7</ele>
        <time>2015-06-10T09:43:35.000Z</time>
      </trkpt>
      <trkpt lat="43.73732" lon="0.99025">
        <ele>141.1</ele>
        <time>2015-06-10T09:43:41.000Z</time>
      </trkpt>
      <trkpt lat="43.73723" lon="0.9903">
        <ele>141.5</ele>
        <time>2015-06-10T09:43:48.000Z</time>
      </trkpt>
      <trkpt lat="43.73714" lon="0.99035">
        <ele>141.8</ele>
        <time>2015-06-10T09:43:56.000Z</time>
      </trkpt>
      <trkpt lat="43.73705" lon="0.9904">
        <ele>141.9</ele>
        <time>2015-06-10T09:44:04.000Z</time>
      </trkpt>
      <trkpt lat="43.73696" lon="0.99044">
        <ele>141.9</ele>
        <time>2015-06-10T09:44:13.000Z</time>
      </trkpt>
      <trkpt lat="43.73687" lon="0.99049">
        <ele>142.3</ele>
        <time>2015-06-10T09:44:21.000Z</time>
      </trkpt>
      <trkpt lat="43.73679" lon="0.99056">
        <ele>142.9</ele>
        <time>2015-06-10T09:44:30.000Z</time>
      </trkpt>
      <trkpt lat="43.7367" lon="0.99061">
        <ele>143.8</ele>
        <time>2015-06-10T09:44:39.000Z</time>
      </trkpt>
      <trkpt lat="43.73661" lon="0.99066">
        <ele>144.1</ele>
        <time>2015-06-10T09:44:47.000Z</time>
      </trkpt>
      <trkpt lat="43.73652" lon="0.99072">
        <ele>144.8</ele>
        <time>2015-06-10T09:44:56.000Z</time>
      </trkpt>
      <trkpt lat="43.73643" lon="0.99077">
        <ele>145.5</ele>
        <time>2015-06-10T09:45:05.000Z</time>
      </trkpt>
      <trkpt lat="43.73634" lon="0.99081">
        <ele>146</ele>
        <time>2015-06-10T09:45:13.000Z</time>
      </trkpt>
      <trkpt lat="43.73624" lon="0.99086">
        <ele>146.5</ele>
        <time>2015-06-10T09:45:22.000Z</time>
      </trkpt>
      <trkpt lat="43.73615" lon="0.99089">
        <ele>146.9</ele>
        <time>2015-06-10T09:45:32.000Z</time>
      </trkpt>
      <trkpt lat="43.73607" lon="0.99096">
        <ele>147.2</ele>
        <time>2015-06-10T09:45:40.000Z</time>
      </trkpt>
      <trkpt lat="43.73598" lon="0.99102">
        <ele>146.7</ele>
        <time>2015-06-10T09:45:46.000Z</time>
      </trkpt>
      <trkpt lat="43.73589" lon="0.99104">
        <ele>146.8</ele>
        <time>2015-06-10T09:45:53.000Z</time>
      </trkpt>
      <trkpt lat="43.7358" lon="0.9911">
        <ele>147.2</ele>
        <time>2015-06-10T09:46:03.000Z</time>
      </trkpt>
      <trkpt lat="43.73573" lon="0.99121">
        <ele>147.4</ele>
        <time>2015-06-10T09:46:12.000Z</time>
      </trkpt>
      <trkpt lat="43.73567" lon="0.9913">
        <ele>147.4</ele>
        <time>2015-06-10T09:46:21.000Z</time>
      </trkpt>
      <trkpt lat="43.73561" lon="0.99142">
        <ele>147.9</ele>
        <time>2015-06-10T09:46:28.000Z</time>
      </trkpt>
      <trkpt lat="43.73556" lon="0.99153">
        <ele>148.3</ele>
        <time>2015-06-10T09:46:36.000Z</time>
      </trkpt>
      <trkpt lat="43.7355" lon="0.99164">
        <ele>148.9</ele>
        <time>2015-06-10T09:46:45.000Z</time>
      </trkpt>
      <trkpt lat="43.73545" lon="0.99176">
        <ele>149.4</ele>
        <time>2015-06-10T09:46:54.000Z</time>
      </trkpt>
      <trkpt lat="43.73539" lon="0.99186">
        <ele>149.5</ele>
        <time>2015-06-10T09:47:01.000Z</time>
      </trkpt>
      <trkpt lat="43.73534" lon="0.99198">
        <ele>149.9</ele>
        <time>2015-06-10T09:47:09.000Z</time>
      </trkpt>
      <trkpt lat="43.73527" lon="0.99208">
        <ele>150.1</ele>
        <time>2015-06-10T09:47:18.000Z</time>
      </trkpt>
      <trkpt lat="43.73522" lon="0.9922">
        <ele>150.6</ele>
        <time>2015-06-10T09:47:27.000Z</time>
      </trkpt>
      <trkpt lat="43.73516" lon="0.99232">
        <ele>150.9</ele>
        <time>2015-06-10T09:47:35.000Z</time>
      </trkpt>
      <trkpt lat="43.73511" lon="0.99243">
        <ele>150.6</ele>
        <time>2015-06-10T09:47:43.000Z</time>
      </trkpt>
      <trkpt lat="43.73505" lon="0.99254">
        <ele>150.6</ele>
        <time>2015-06-10T09:47:51.000Z</time>
      </trkpt>
      <trkpt lat="43.735" lon="0.99265">
        <ele>150.8</ele>
        <time>2015-06-10T09:47:59.000Z</time>
      </trkpt>
      <trkpt lat="43.73495" lon="0.99276">
        <ele>150.7</ele>
        <time>2015-06-10T09:48:06.000Z</time>
      </trkpt>
      <trkpt lat="43.7349" lon="0.99287">
        <ele>150.9</ele>
        <time>2015-06-10T09:48:14.000Z</time>
      </trkpt>
      <trkpt lat="43.73485" lon="0.99298">
        <ele>151.2</ele>
        <time>2015-06-10T09:48:22.000Z</time>
      </trkpt>
      <trkpt lat="43.7348" lon="0.99309">
        <ele>151.5</ele>
        <time>2015-06-10T09:48:29.000Z</time>
      </trkpt>
      <trkpt lat="43.73475" lon="0.9932">
        <ele>151.4</ele>
        <time>2015-06-10T09:48:36.000Z</time>
      </trkpt>
      <trkpt lat="43.73469" lon="0.99331">
        <ele>151.5</ele>
        <time>2015-06-10T09:48:44.000Z</time>
      </trkpt>
      <trkpt lat="43.73463" lon="0.99342">
        <ele>151.5</ele>
        <time>2015-06-10T09:48:53.000Z</time>
      </trkpt>
      <trkpt lat="43.73457" lon="0.99353">
        <ele>151.4</ele>
        <time>2015-06-10T09:49:01.000Z</time>
      </trkpt>
      <trkpt lat="43.73452" lon="0.99364">
        <ele>151.7</ele>
        <time>2015-06-10T09:49:08.000Z</time>
      </trkpt>
      <trkpt lat="43.73446" lon="0.99374">
        <ele>151.3</ele>
        <time>2015-06-10T09:49:16.000Z</time>
      </trkpt>
      <trkpt lat="43.7344" lon="0.99384">
        <ele>151.1</ele>
        <time>2015-06-10T09:49:23.000Z</time>
      </trkpt>
      <trkpt lat="43.73433" lon="0.99394">
        <ele>151</ele>
        <time>2015-06-10T09:49:31.000Z</time>
      </trkpt>
      <trkpt lat="43.73428" lon="0.99404">
        <ele>150.8</ele>
        <time>2015-06-10T09:49:38.000Z</time>
      </trkpt>
      <trkpt lat="43.73421" lon="0.99414">
        <ele>150.9</ele>
        <time>2015-06-10T09:49:46.000Z</time>
      </trkpt>
      <trkpt lat="43.73414" lon="0.99422">
        <ele>150.8</ele>
        <time>2015-06-10T09:49:54.000Z</time>
      </trkpt>
      <trkpt lat="43.73406" lon="0.99431">
        <ele>150.9</ele>
        <time>2015-06-10T09:50:02.000Z</time>
      </trkpt>
      <trkpt lat="43.73398" lon="0.99438">
        <ele>151.2</ele>
        <time>2015-06-10T09:50:11.000Z</time>
      </trkpt>
      <trkpt lat="43.7339" lon="0.99445">
        <ele>151.8</ele>
        <time>2015-06-10T09:50:20.000Z</time>
      </trkpt>
      <trkpt lat="43.73381" lon="0.9945">
        <ele>152.3</ele>
        <time>2015-06-10T09:50:27.000Z</time>
      </trkpt>
      <trkpt lat="43.73372" lon="0.99455">
        <ele>152.9</ele>
        <time>2015-06-10T09:50:34.000Z</time>
      </trkpt>
      <trkpt lat="43.73364" lon="0.99462">
        <ele>153.4</ele>
        <time>2015-06-10T09:50:41.000Z</time>
      </trkpt>
      <trkpt lat="43.73355" lon="0.99466">
        <ele>153.8</ele>
        <time>2015-06-10T09:50:50.000Z</time>
      </trkpt>
      <trkpt lat="43.73346" lon="0.9947">
        <ele>154.2</ele>
        <time>2015-06-10T09:50:58.000Z</time>
      </trkpt>
      <trkpt lat="43.73336" lon="0.99473">
        <ele>154.2</ele>
        <time>2015-06-10T09:51:06.000Z</time>
      </trkpt>
      <trkpt lat="43.73326" lon="0.99476">
        <ele>154.7</ele>
        <time>2015-06-10T09:51:16.000Z</time>
      </trkpt>
      <trkpt lat="43.73317" lon="0.9948">
        <ele>155</ele>
        <time>2015-06-10T09:51:24.000Z</time>
      </trkpt>
      <trkpt lat="43.73308" lon="0.99483">
        <ele>155.2</ele>
        <time>2015-06-10T09:51:31.000Z</time>
      </trkpt>
      <trkpt lat="43.73299" lon="0.99486">
        <ele>155.4</ele>
        <time>2015-06-10T09:51:38.000Z</time>
      </trkpt>
      <trkpt lat="43.73289" lon="0.99489">
        <ele>155.9</ele>
        <time>2015-06-10T09:51:46.000Z</time>
      </trkpt>
      <trkpt lat="43.7328" lon="0.9949">
        <ele>156.2</ele>
        <time>2015-06-10T09:51:54.000Z</time>
      </trkpt>
      <trkpt lat="43.7327" lon="0.99491">
        <ele>156.4</ele>
        <time>2015-06-10T09:52:02.000Z</time>
      </trkpt>
      <trkpt lat="43.73261" lon="0.99492">
        <ele>156.7</ele>
        <time>2015-06-10T09:52:10.000Z</time>
      </trkpt>
      <trkpt lat="43.73252" lon="0.99495">
        <ele>157.3</ele>
        <time>2015-06-10T09:52:18.000Z</time>
      </trkpt>
      <trkpt lat="43.73242" lon="0.99498">
        <ele>157.8</ele>
        <time>2015-06-10T09:52:26.000Z</time>
      </trkpt>
      <trkpt lat="43.73233" lon="0.99499">
        <ele>157.9</ele>
        <time>2015-06-10T09:52:34.000Z</time>
      </trkpt>
      <trkpt lat="43.73223" lon="0.99502">
        <ele>158.5</ele>
        <time>2015-06-10T09:52:43.000Z</time>
      </trkpt>
      <trkpt lat="43.73214" lon="0.99504">
        <ele>158.6</ele>
        <time>2015-06-10T09:52:51.000Z</time>
      </trkpt>
      <trkpt lat="43.73204" lon="0.99506">
        <ele>158.7</ele>
        <time>2015-06-10T09:52:59.000Z</time>
      </trkpt>
      <trkpt lat="43.73195" lon="0.9951">
        <ele>159</ele>
        <time>2015-06-10T09:53:06.000Z</time>
      </trkpt>
      <trkpt lat="43.73186" lon="0.99515">
        <ele>159.1</ele>
        <time>2015-06-10T09:53:14.000Z</time>
      </trkpt>
      <trkpt lat="43.73176" lon="0.99518">
        <ele>159.2</ele>
        <time>2015-06-10T09:53:22.000Z</time>
      </trkpt>
      <trkpt lat="43.73167" lon="0.99522">
        <ele>159.2</ele>
        <time>2015-06-10T09:53:30.000Z</time>
      </trkpt>
      <trkpt lat="43.73158" lon="0.99526">
        <ele>159.1</ele>
        <time>2015-06-10T09:53:38.000Z</time>
      </trkpt>
      <trkpt lat="43.73148" lon="0.99526">
        <ele>158.6</ele>
        <time>2015-06-10T09:53:46.000Z</time>
      </trkpt>
      <trkpt lat="43.73139" lon="0.99529">
        <ele>157.9</ele>
        <time>2015-06-10T09:53:54.000Z</time>
      </trkpt>
      <trkpt lat="43.7313" lon="0.99534">
        <ele>157.3</ele>
        <time>2015-06-10T09:54:02.000Z</time>
      </trkpt>
      <trkpt lat="43.73122" lon="0.99541">
        <ele>156.4</ele>
        <time>2015-06-10T09:54:10.000Z</time>
      </trkpt>
      <trkpt lat="43.73113" lon="0.99545">
        <ele>155.3</ele>
        <time>2015-06-10T09:54:17.000Z</time>
      </trkpt>
      <trkpt lat="43.73104" lon="0.99548">
        <ele>153.7</ele>
        <time>2015-06-10T09:54:26.000Z</time>
      </trkpt>
      <trkpt lat="43.73095" lon="0.99551">
        <ele>152.5</ele>
        <time>2015-06-10T09:54:34.000Z</time>
      </trkpt>
      <trkpt lat="43.73086" lon="0.99555">
        <ele>151.6</ele>
        <time>2015-06-10T09:54:42.000Z</time>
      </trkpt>
      <trkpt lat="43.73077" lon="0.9956">
        <ele>150.4</ele>
        <time>2015-06-10T09:54:53.000Z</time>
      </trkpt>
      <trkpt lat="43.73068" lon="0.99565">
        <ele>149</ele>
        <time>2015-06-10T09:55:05.000Z</time>
      </trkpt>
      <trkpt lat="43.73058" lon="0.99565">
        <ele>148.3</ele>
        <time>2015-06-10T09:55:13.000Z</time>
      </trkpt>
      <trkpt lat="43.73049" lon="0.99568">
        <ele>147.9</ele>
        <time>2015-06-10T09:55:21.000Z</time>
      </trkpt>
      <trkpt lat="43.7304" lon="0.99572">
        <ele>147.5</ele>
        <time>2015-06-10T09:55:29.000Z</time>
      </trkpt>
      <trkpt lat="43.73032" lon="0.99575">
        <ele>147.4</ele>
        <time>2015-06-10T09:55:37.000Z</time>
      </trkpt>
      <trkpt lat="43.73022" lon="0.99575">
        <ele>147.4</ele>
        <time>2015-06-10T09:55:45.000Z</time>
      </trkpt>
      <trkpt lat="43.73013" lon="0.99577">
        <ele>147.5</ele>
        <time>2015-06-10T09:55:53.000Z</time>
      </trkpt>
      <trkpt lat="43.73004" lon="0.9958">
        <ele>147.8</ele>
        <time>2015-06-10T09:56:01.000Z</time>
      </trkpt>
      <trkpt lat="43.72995" lon="0.99586">
        <ele>148.2</ele>
        <time>2015-06-10T09:56:08.000Z</time>
      </trkpt>
      <trkpt lat="43.72986" lon="0.99592">
        <ele>148.6</ele>
        <time>2015-06-10T09:56:15.000Z</time>
      </trkpt>
      <trkpt lat="43.72977" lon="0.99594">
        <ele>149.2</ele>
        <time>2015-06-10T09:56:25.000Z</time>
      </trkpt>
      <trkpt lat="43.72968" lon="0.99598">
        <ele>150</ele>
        <time>2015-06-10T09:56:34.000Z</time>
      </trkpt>
      <trkpt lat="43.72959" lon="0.99602">
        <ele>150.7</ele>
        <time>2015-06-10T09:56:42.000Z</time>
      </trkpt>
      <trkpt lat="43.7295" lon="0.99607">
        <ele>151.1</ele>
        <time>2015-06-10T09:56:49.000Z</time>
      </trkpt>
      <trkpt lat="43.72941" lon="0.99611">
        <ele>151.9</ele>
        <time>2015-06-10T09:56:58.000Z</time>
      </trkpt>
      <trkpt lat="43.72931" lon="0.99617">
        <ele>152.4</ele>
        <time>2015-06-10T09:57:06.000Z</time>
      </trkpt>
      <trkpt lat="43.72923" lon="0.99623">
        <ele>153.4</ele>
        <time>2015-06-10T09:57:15.000Z</time>
      </trkpt>
      <trkpt lat="43.72915" lon="0.9963">
        <ele>154.1</ele>
        <time>2015-06-10T09:57:23.000Z</time>
      </trkpt>
      <trkpt lat="43.72907" lon="0.99636">
        <ele>154.6</ele>
        <time>2015-06-10T09:57:31.000Z</time>
      </trkpt>
      <trkpt lat="43.72898" lon="0.99641">
        <ele>155.2</ele>
        <time>2015-06-10T09:57:40.000Z</time>
      </trkpt>
      <trkpt lat="43.72889" lon="0.99647">
        <ele>155.5</ele>
        <time>2015-06-10T09:57:48.000Z</time>
      </trkpt>
      <trkpt lat="43.7288" lon="0.9965">
        <ele>155.9</ele>
        <time>2015-06-10T09:57:57.000Z</time>
      </trkpt>
      <trkpt lat="43.72871" lon="0.99655">
        <ele>156.7</ele>
        <time>2015-06-10T09:58:06.000Z</time>
      </trkpt>
      <trkpt lat="43.72862" lon="0.9966">
        <ele>157.4</ele>
        <time>2015-06-10T09:58:15.000Z</time>
      </trkpt>
      <trkpt lat="43.72853" lon="0.99666">
        <ele>157.7</ele>
        <time>2015-06-10T09:58:23.000Z</time>
      </trkpt>
      <trkpt lat="43.72845" lon="0.99673">
        <ele>158.2</ele>
        <time>2015-06-10T09:58:30.000Z</time>
      </trkpt>
      <trkpt lat="43.72837" lon="0.9968">
        <ele>158.6</ele>
        <time>2015-06-10T09:58:38.000Z</time>
      </trkpt>
      <trkpt lat="43.72828" lon="0.99685">
        <ele>159.2</ele>
        <time>2015-06-10T09:58:46.000Z</time>
      </trkpt>
      <trkpt lat="43.7282" lon="0.9969">
        <ele>159.5</ele>
        <time>2015-06-10T09:58:53.000Z</time>
      </trkpt>
      <trkpt lat="43.72811" lon="0.99694">
        <ele>160</ele>
        <time>2015-06-10T09:59:01.000Z</time>
      </trkpt>
      <trkpt lat="43.72801" lon="0.99695">
        <ele>160.4</ele>
        <time>2015-06-10T09:59:10.000Z</time>
      </trkpt>
      <trkpt lat="43.72792" lon="0.99696">
        <ele>160.9</ele>
        <time>2015-06-10T09:59:19.000Z</time>
      </trkpt>
      <trkpt lat="43.72783" lon="0.99699">
        <ele>161.3</ele>
        <time>2015-06-10T09:59:27.000Z</time>
      </trkpt>
      <trkpt lat="43.72773" lon="0.99698">
        <ele>162.1</ele>
        <time>2015-06-10T09:59:38.000Z</time>
      </trkpt>
      <trkpt lat="43.72764" lon="0.99702">
        <ele>162.7</ele>
        <time>2015-06-10T09:59:49.000Z</time>
      </trkpt>
      <trkpt lat="43.72754" lon="0.99705">
        <ele>163.4</ele>
        <time>2015-06-10T09:59:57.000Z</time>
      </trkpt>
      <trkpt lat="43.72744" lon="0.99705">
        <ele>164.2</ele>
        <time>2015-06-10T10:00:05.000Z</time>
      </trkpt>
      <trkpt lat="43.72735" lon="0.99708">
        <ele>164.9</ele>
        <time>2015-06-10T10:00:13.000Z</time>
      </trkpt>
      <trkpt lat="43.72725" lon="0.99709">
        <ele>165.4</ele>
        <time>2015-06-10T10:00:22.000Z</time>
      </trkpt>
      <trkpt lat="43.72716" lon="0.9971">
        <ele>166.3</ele>
        <time>2015-06-10T10:00:31.000Z</time>
      </trkpt>
      <trkpt lat="43.72707" lon="0.99714">
        <ele>167.3</ele>
        <time>2015-06-10T10:00:40.000Z</time>
      </trkpt>
      <trkpt lat="43.72697" lon="0.99717">
        <ele>168.3</ele>
        <time>2015-06-10T10:00:51.000Z</time>
      </trkpt>
      <trkpt lat="43.72688" lon="0.99723">
        <ele>169</ele>
        <time>2015-06-10T10:01:00.000Z</time>
      </trkpt>
      <trkpt lat="43.72679" lon="0.99726">
        <ele>169.8</ele>
        <time>2015-06-10T10:01:11.000Z</time>
      </trkpt>
      <trkpt lat="43.72669" lon="0.99732">
        <ele>170.4</ele>
        <time>2015-06-10T10:01:20.000Z</time>
      </trkpt>
      <trkpt lat="43.7266" lon="0.99737">
        <ele>170.6</ele>
        <time>2015-06-10T10:01:30.000Z</time>
      </trkpt>
      <trkpt lat="43.72651" lon="0.99741">
        <ele>171.1</ele>
        <time>2015-06-10T10:01:40.000Z</time>
      </trkpt>
      <trkpt lat="43.72642" lon="0.99747">
        <ele>171.1</ele>
        <time>2015-06-10T10:01:47.000Z</time>
      </trkpt>
      <trkpt lat="43.72634" lon="0.99754">
        <ele>171.4</ele>
        <time>2015-06-10T10:01:53.000Z</time>
      </trkpt>
      <trkpt lat="43.72626" lon="0.99761">
        <ele>171.5</ele>
        <time>2015-06-10T10:02:01.000Z</time>
      </trkpt>
      <trkpt lat="43.72618" lon="0.99767">
        <ele>171.7</ele>
        <time>2015-06-10T10:02:09.000Z</time>
      </trkpt>
      <trkpt lat="43.72609" lon="0.99774">
        <ele>171.5</ele>
        <time>2015-06-10T10:02:18.000Z</time>
      </trkpt>
      <trkpt lat="43.72602" lon="0.99782">
        <ele>171.8</ele>
        <time>2015-06-10T10:02:26.000Z</time>
      </trkpt>
      <trkpt lat="43.72594" lon="0.9979">
        <ele>171.8</ele>
        <time>2015-06-10T10:02:34.000Z</time>
      </trkpt>
      <trkpt lat="43.72586" lon="0.99797">
        <ele>171.9</ele>
        <time>2015-06-10T10:02:44.000Z</time>
      </trkpt>
      <trkpt lat="43.72577" lon="0.99803">
        <ele>172.2</ele>
        <time>2015-06-10T10:02:54.000Z</time>
      </trkpt>
      <trkpt lat="43.7257" lon="0.99811">
        <ele>172.7</ele>
        <time>2015-06-10T10:03:03.000Z</time>
      </trkpt>
      <trkpt lat="43.72563" lon="0.9982">
        <ele>172.8</ele>
        <time>2015-06-10T10:03:11.000Z</time>
      </trkpt>
      <trkpt lat="43.72556" lon="0.99828">
        <ele>173.1</ele>
        <time>2015-06-10T10:03:21.000Z</time>
      </trkpt>
      <trkpt lat="43.72548" lon="0.99836">
        <ele>173</ele>
        <time>2015-06-10T10:03:30.000Z</time>
      </trkpt>
      <trkpt lat="43.72539" lon="0.99845">
        <ele>173.2</ele>
        <time>2015-06-10T10:03:39.000Z</time>
      </trkpt>
      <trkpt lat="43.72532" lon="0.99854">
        <ele>173.4</ele>
        <time>2015-06-10T10:03:48.000Z</time>
      </trkpt>
      <trkpt lat="43.72525" lon="0.99863">
        <ele>173.8</ele>
        <time>2015-06-10T10:03:55.000Z</time>
      </trkpt>
      <trkpt lat="43.72518" lon="0.99873">
        <ele>174</ele>
        <time>2015-06-10T10:04:04.000Z</time>
      </trkpt>
      <trkpt lat="43.72511" lon="0.99881">
        <ele>174.5</ele>
        <time>2015-06-10T10:04:13.000Z</time>
      </trkpt>
      <trkpt lat="43.72503" lon="0.99888">
        <ele>174.5</ele>
        <time>2015-06-10T10:04:22.000Z</time>
      </trkpt>
      <trkpt lat="43.72495" lon="0.99897">
        <ele>174.7</ele>
        <time>2015-06-10T10:04:30.000Z</time>
      </trkpt>
      <trkpt lat="43.72488" lon="0.99905">
        <ele>174.4</ele>
        <time>2015-06-10T10:04:40.000Z</time>
      </trkpt>
      <trkpt lat="43.72479" lon="0.99905">
        <ele>174.5</ele>
        <time>2015-06-10T10:06:41.000Z</time>
      </trkpt>
      <trkpt lat="43.72469" lon="0.99905">
        <ele>174.6</ele>
        <time>2015-06-10T10:06:48.000Z</time>
      </trkpt>
      <trkpt lat="43.72459" lon="0.99904">
        <ele>174.4</ele>
        <time>2015-06-10T10:06:57.000Z</time>
      </trkpt>
      <trkpt lat="43.72449" lon="0.99906">
        <ele>174.5</ele>
        <time>2015-06-10T10:07:05.000Z</time>
      </trkpt>
      <trkpt lat="43.72437" lon="0.99901">
        <ele>174.9</ele>
        <time>2015-06-10T10:07:19.000Z</time>
      </trkpt>
      <trkpt lat="43.72428" lon="0.99899">
        <ele>175</ele>
        <time>2015-06-10T10:07:27.000Z</time>
      </trkpt>
      <trkpt lat="43.72418" lon="0.99903">
        <ele>175.3</ele>
        <time>2015-06-10T10:07:34.000Z</time>
      </trkpt>
      <trkpt lat="43.72409" lon="0.99906">
        <ele>175.7</ele>
        <time>2015-06-10T10:07:41.000Z</time>
      </trkpt>
      <trkpt lat="43.724" lon="0.99907">
        <ele>175.9</ele>
        <time>2015-06-10T10:07:48.000Z</time>
      </trkpt>
      <trkpt lat="43.7239" lon="0.99909">
        <ele>176.3</ele>
        <time>2015-06-10T10:07:56.000Z</time>
      </trkpt>
      <trkpt lat="43.72381" lon="0.9991">
        <ele>176.6</ele>
        <time>2015-06-10T10:08:03.000Z</time>
      </trkpt>
      <trkpt lat="43.72371" lon="0.99911">
        <ele>176.8</ele>
        <time>2015-06-10T10:08:11.000Z</time>
      </trkpt>
      <trkpt lat="43.72362" lon="0.99912">
        <ele>176.8</ele>
        <time>2015-06-10T10:08:19.000Z</time>
      </trkpt>
      <trkpt lat="43.72352" lon="0.9991">
        <ele>177.1</ele>
        <time>2015-06-10T10:08:27.000Z</time>
      </trkpt>
      <trkpt lat="43.72342" lon="0.99908">
        <ele>177.4</ele>
        <time>2015-06-10T10:08:35.000Z</time>
      </trkpt>
      <trkpt lat="43.72333" lon="0.99905">
        <ele>177.6</ele>
        <time>2015-06-10T10:08:42.000Z</time>
      </trkpt>
      <trkpt lat="43.72325" lon="0.99902">
        <ele>177.6</ele>
        <time>2015-06-10T10:08:50.000Z</time>
      </trkpt>
      <trkpt lat="43.72315" lon="0.999">
        <ele>177.8</ele>
        <time>2015-06-10T10:08:59.000Z</time>
      </trkpt>
      <trkpt lat="43.72305" lon="0.99896">
        <ele>177.9</ele>
        <time>2015-06-10T10:09:08.000Z</time>
      </trkpt>
      <trkpt lat="43.72296" lon="0.99893">
        <ele>178.3</ele>
        <time>2015-06-10T10:09:16.000Z</time>
      </trkpt>
      <trkpt lat="43.72287" lon="0.9989">
        <ele>178.6</ele>
        <time>2015-06-10T10:09:23.000Z</time>
      </trkpt>
      <trkpt lat="43.72278" lon="0.99887">
        <ele>178.9</ele>
        <time>2015-06-10T10:09:30.000Z</time>
      </trkpt>
      <trkpt lat="43.72268" lon="0.99883">
        <ele>179.2</ele>
        <time>2015-06-10T10:09:38.000Z</time>
      </trkpt>
      <trkpt lat="43.72259" lon="0.9988">
        <ele>179.7</ele>
        <time>2015-06-10T10:09:46.000Z</time>
      </trkpt>
      <trkpt lat="43.7225" lon="0.99876">
        <ele>180.3</ele>
        <time>2015-06-10T10:09:55.000Z</time>
      </trkpt>
      <trkpt lat="43.72241" lon="0.99873">
        <ele>181</ele>
        <time>2015-06-10T10:10:03.000Z</time>
      </trkpt>
      <trkpt lat="43.72232" lon="0.99869">
        <ele>181.5</ele>
        <time>2015-06-10T10:10:11.000Z</time>
      </trkpt>
      <trkpt lat="43.72223" lon="0.99866">
        <ele>182.4</ele>
        <time>2015-06-10T10:10:20.000Z</time>
      </trkpt>
      <trkpt lat="43.72214" lon="0.99862">
        <ele>183.2</ele>
        <time>2015-06-10T10:10:28.000Z</time>
      </trkpt>
      <trkpt lat="43.72205" lon="0.9986">
        <ele>184.1</ele>
        <time>2015-06-10T10:10:36.000Z</time>
      </trkpt>
      <trkpt lat="43.72195" lon="0.99861">
        <ele>184.7</ele>
        <time>2015-06-10T10:10:45.000Z</time>
      </trkpt>
      <trkpt lat="43.72186" lon="0.99867">
        <ele>185.5</ele>
        <time>2015-06-10T10:10:54.000Z</time>
      </trkpt>
      <trkpt lat="43.72178" lon="0.99876">
        <ele>186</ele>
        <time>2015-06-10T10:11:03.000Z</time>
      </trkpt>
      <trkpt lat="43.72173" lon="0.99886">
        <ele>186.8</ele>
        <time>2015-06-10T10:11:11.000Z</time>
      </trkpt>
      <trkpt lat="43.72168" lon="0.99897">
        <ele>186.7</ele>
        <time>2015-06-10T10:11:17.000Z</time>
      </trkpt>
      <trkpt lat="43.72161" lon="0.99907">
        <ele>187.1</ele>
        <time>2015-06-10T10:11:25.000Z</time>
      </trkpt>
      <trkpt lat="43.72155" lon="0.99916">
        <ele>187.5</ele>
        <time>2015-06-10T10:11:33.000Z</time>
      </trkpt>
      <trkpt lat="43.7215" lon="0.99926">
        <ele>187.4</ele>
        <time>2015-06-10T10:11:40.000Z</time>
      </trkpt>
      <trkpt lat="43.72143" lon="0.99935">
        <ele>187.4</ele>
        <time>2015-06-10T10:11:47.000Z</time>
      </trkpt>
      <trkpt lat="43.72136" lon="0.99944">
        <ele>187.7</ele>
        <time>2015-06-10T10:11:55.000Z</time>
      </trkpt>
      <trkpt lat="43.72128" lon="0.99951">
        <ele>187.9</ele>
        <time>2015-06-10T10:12:03.000Z</time>
      </trkpt>
      <trkpt lat="43.7212" lon="0.9996">
        <ele>188</ele>
        <time>2015-06-10T10:12:11.000Z</time>
      </trkpt>
      <trkpt lat="43.72112" lon="0.99968">
        <ele>188.2</ele>
        <time>2015-06-10T10:12:20.000Z</time>
      </trkpt>
      <trkpt lat="43.72104" lon="0.99975">
        <ele>188.3</ele>
        <time>2015-06-10T10:12:28.000Z</time>
      </trkpt>
      <trkpt lat="43.72095" lon="0.99983">
        <ele>188.1</ele>
        <time>2015-06-10T10:12:36.000Z</time>
      </trkpt>
      <trkpt lat="43.72088" lon="0.9999">
        <ele>187.8</ele>
        <time>2015-06-10T10:12:43.000Z</time>
      </trkpt>
      <trkpt lat="43.7208" lon="0.99997">
        <ele>188.1</ele>
        <time>2015-06-10T10:12:51.000Z</time>
      </trkpt>
      <trkpt lat="43.72071" lon="1.00005">
        <ele>188.1</ele>
        <time>2015-06-10T10:12:59.000Z</time>
      </trkpt>
      <trkpt lat="43.72063" lon="1.00012">
        <ele>188.2</ele>
        <time>2015-06-10T10:13:07.000Z</time>
      </trkpt>
      <trkpt lat="43.72054" lon="1.0002">
        <ele>188.7</ele>
        <time>2015-06-10T10:13:15.000Z</time>
      </trkpt>
      <trkpt lat="43.72045" lon="1.00025">
        <ele>188.7</ele>
        <time>2015-06-10T10:13:23.000Z</time>
      </trkpt>
      <trkpt lat="43.72037" lon="1.00031">
        <ele>188.6</ele>
        <time>2015-06-10T10:13:31.000Z</time>
      </trkpt>
      <trkpt lat="43.72028" lon="1.00037">
        <ele>188.3</ele>
        <time>2015-06-10T10:13:39.000Z</time>
      </trkpt>
      <trkpt lat="43.72019" lon="1.00039">
        <ele>188.4</ele>
        <time>2015-06-10T10:13:47.000Z</time>
      </trkpt>
      <trkpt lat="43.7201" lon="1.00038">
        <ele>188.2</ele>
        <time>2015-06-10T10:13:55.000Z</time>
      </trkpt>
      <trkpt lat="43.72" lon="1.00037">
        <ele>187.9</ele>
        <time>2015-06-10T10:14:04.000Z</time>
      </trkpt>
      <trkpt lat="43.71991" lon="1.00034">
        <ele>187.6</ele>
        <time>2015-06-10T10:14:12.000Z</time>
      </trkpt>
      <trkpt lat="43.71982" lon="1.00029">
        <ele>187.7</ele>
        <time>2015-06-10T10:14:21.000Z</time>
      </trkpt>
      <trkpt lat="43.71974" lon="1.00024">
        <ele>187.6</ele>
        <time>2015-06-10T10:14:29.000Z</time>
      </trkpt>
      <trkpt lat="43.71965" lon="1.00019">
        <ele>187.6</ele>
        <time>2015-06-10T10:14:37.000Z</time>
      </trkpt>
      <trkpt lat="43.71957" lon="1.00013">
        <ele>187.3</ele>
        <time>2015-06-10T10:14:45.000Z</time>
      </trkpt>
      <trkpt lat="43.71948" lon="1.00009">
        <ele>187.3</ele>
        <time>2015-06-10T10:14:53.000Z</time>
      </trkpt>
      <trkpt lat="43.7194" lon="1.00004">
        <ele>187.5</ele>
        <time>2015-06-10T10:15:00.000Z</time>
      </trkpt>
      <trkpt lat="43.71932" lon="0.99998">
        <ele>187.4</ele>
        <time>2015-06-10T10:15:07.000Z</time>
      </trkpt>
      <trkpt lat="43.71923" lon="0.99992">
        <ele>187.5</ele>
        <time>2015-06-10T10:15:15.000Z</time>
      </trkpt>
      <trkpt lat="43.71914" lon="0.99985">
        <ele>187.7</ele>
        <time>2015-06-10T10:15:23.000Z</time>
      </trkpt>
      <trkpt lat="43.71906" lon="0.99979">
        <ele>187.6</ele>
        <time>2015-06-10T10:15:31.000Z</time>
      </trkpt>
      <trkpt lat="43.71897" lon="0.99974">
        <ele>187.8</ele>
        <time>2015-06-10T10:15:40.000Z</time>
      </trkpt>
      <trkpt lat="43.71888" lon="0.99969">
        <ele>187.8</ele>
        <time>2015-06-10T10:15:48.000Z</time>
      </trkpt>
      <trkpt lat="43.71879" lon="0.99963">
        <ele>188.1</ele>
        <time>2015-06-10T10:15:56.000Z</time>
      </trkpt>
      <trkpt lat="43.71871" lon="0.99957">
        <ele>188.6</ele>
        <time>2015-06-10T10:16:04.000Z</time>
      </trkpt>
      <trkpt lat="43.71862" lon="0.99951">
        <ele>188.5</ele>
        <time>2015-06-10T10:16:12.000Z</time>
      </trkpt>
      <trkpt lat="43.71853" lon="0.99945">
        <ele>188.9</ele>
        <time>2015-06-10T10:16:20.000Z</time>
      </trkpt>
      <trkpt lat="43.71844" lon="0.99938">
        <ele>189</ele>
        <time>2015-06-10T10:16:28.000Z</time>
      </trkpt>
      <trkpt lat="43.71835" lon="0.99932">
        <ele>189.3</ele>
        <time>2015-06-10T10:16:36.000Z</time>
      </trkpt>
      <trkpt lat="43.71827" lon="0.99926">
        <ele>189.9</ele>
        <time>2015-06-10T10:16:43.000Z</time>
      </trkpt>
      <trkpt lat="43.71818" lon="0.99921">
        <ele>190.4</ele>
        <time>2015-06-10T10:16:51.000Z</time>
      </trkpt>
      <trkpt lat="43.71809" lon="0.99916">
        <ele>190.8</ele>
        <time>2015-06-10T10:16:59.000Z</time>
      </trkpt>
      <trkpt lat="43.71799" lon="0.99912">
        <ele>191.2</ele>
        <time>2015-06-10T10:17:07.000Z</time>
      </trkpt>
      <trkpt lat="43.7179" lon="0.99909">
        <ele>191.3</ele>
        <time>2015-06-10T10:17:15.000Z</time>
      </trkpt>
      <trkpt lat="43.7178" lon="0.99907">
        <ele>192</ele>
        <time>2015-06-10T10:17:23.000Z</time>
      </trkpt>
      <trkpt lat="43.7177" lon="0.99908">
        <ele>192.1</ele>
        <time>2015-06-10T10:17:31.000Z</time>
      </trkpt>
      <trkpt lat="43.71761" lon="0.99909">
        <ele>192.7</ele>
        <time>2015-06-10T10:17:38.000Z</time>
      </trkpt>
      <trkpt lat="43.71752" lon="0.99909">
        <ele>193.2</ele>
        <time>2015-06-10T10:17:45.000Z</time>
      </trkpt>
      <trkpt lat="43.71743" lon="0.99911">
        <ele>193.2</ele>
        <time>2015-06-10T10:17:53.000Z</time>
      </trkpt>
      <trkpt lat="43.71735" lon="0.99918">
        <ele>193.5</ele>
        <time>2015-06-10T10:18:02.000Z</time>
      </trkpt>
      <trkpt lat="43.71731" lon="0.9993">
        <ele>193.7</ele>
        <time>2015-06-10T10:18:11.000Z</time>
      </trkpt>
      <trkpt lat="43.71725" lon="0.99941">
        <ele>193.9</ele>
        <time>2015-06-10T10:18:19.000Z</time>
      </trkpt>
      <trkpt lat="43.7172" lon="0.99952">
        <ele>193.7</ele>
        <time>2015-06-10T10:18:27.000Z</time>
      </trkpt>
      <trkpt lat="43.71716" lon="0.99963">
        <ele>193.6</ele>
        <time>2015-06-10T10:18:34.000Z</time>
      </trkpt>
      <trkpt lat="43.71711" lon="0.99975">
        <ele>193.5</ele>
        <time>2015-06-10T10:18:42.000Z</time>
      </trkpt>
      <trkpt lat="43.71706" lon="0.99987">
        <ele>193.4</ele>
        <time>2015-06-10T10:18:50.000Z</time>
      </trkpt>
      <trkpt lat="43.71702" lon="0.99998">
        <ele>193.9</ele>
        <time>2015-06-10T10:18:57.000Z</time>
      </trkpt>
      <trkpt lat="43.71696" lon="1.00008">
        <ele>194</ele>
        <time>2015-06-10T10:19:04.000Z</time>
      </trkpt>
      <trkpt lat="43.7169" lon="1.00018">
        <ele>194.1</ele>
        <time>2015-06-10T10:19:13.000Z</time>
      </trkpt>
      <trkpt lat="43.71684" lon="1.00028">
        <ele>194.1</ele>
        <time>2015-06-10T10:19:20.000Z</time>
      </trkpt>
      <trkpt lat="43.7168" lon="1.0004">
        <ele>194.4</ele>
        <time>2015-06-10T10:19:27.000Z</time>
      </trkpt>
      <trkpt lat="43.71675" lon="1.00051">
        <ele>194.4</ele>
        <time>2015-06-10T10:19:33.000Z</time>
      </trkpt>
      <trkpt lat="43.71671" lon="1.00063">
        <ele>194.6</ele>
        <time>2015-06-10T10:19:41.000Z</time>
      </trkpt>
      <trkpt lat="43.71669" lon="1.00076">
        <ele>195.5</ele>
        <time>2015-06-10T10:19:55.000Z</time>
      </trkpt>
      <trkpt lat="43.71676" lon="1.00085">
        <ele>195.5</ele>
        <time>2015-06-10T10:20:04.000Z</time>
      </trkpt>
      <trkpt lat="43.71685" lon="1.0009">
        <ele>196.4</ele>
        <time>2015-06-10T10:20:21.000Z</time>
      </trkpt>
      <trkpt lat="43.71693" lon="1.00084">
        <ele>196.8</ele>
        <time>2015-06-10T10:20:29.000Z</time>
      </trkpt>
      <trkpt lat="43.71698" lon="1.00072">
        <ele>196.5</ele>
        <time>2015-06-10T10:20:37.000Z</time>
      </trkpt>
      <trkpt lat="43.71701" lon="1.0006">
        <ele>196.9</ele>
        <time>2015-06-10T10:20:45.000Z</time>
      </trkpt>
      <trkpt lat="43.71702" lon="1.00047">
        <ele>197.6</ele>
        <time>2015-06-10T10:20:53.000Z</time>
      </trkpt>
      <trkpt lat="43.71703" lon="1.00035">
        <ele>197.6</ele>
        <time>2015-06-10T10:43:10.000Z</time>
      </trkpt>
      <trkpt lat="43.71703" lon="1.00022">
        <ele>198.1</ele>
        <time>2015-06-10T10:43:21.000Z</time>
      </trkpt>
      <trkpt lat="43.71702" lon="1.00035">
        <ele>197.9</ele>
        <time>2015-06-10T10:44:42.000Z</time>
      </trkpt>
      <trkpt lat="43.7171" lon="1.0004">
        <ele>196.4</ele>
        <time>2015-06-10T10:54:16.000Z</time>
      </trkpt>
      <trkpt lat="43.71714" lon="1.00054">
        <ele>197.8</ele>
        <time>2015-06-10T10:56:43.000Z</time>
      </trkpt>
      <trkpt lat="43.71706" lon="1.00062">
        <ele>197.6</ele>
        <time>2015-06-10T10:56:57.000Z</time>
      </trkpt>
      <trkpt lat="43.71698" lon="1.0007">
        <ele>197.5</ele>
        <time>2015-06-10T10:57:07.000Z</time>
      </trkpt>
      <trkpt lat="43.71693" lon="1.00081">
        <ele>197.4</ele>
        <time>2015-06-10T10:57:17.000Z</time>
      </trkpt>
      <trkpt lat="43.71684" lon="1.00086">
        <ele>197</ele>
        <time>2015-06-10T10:57:28.000Z</time>
      </trkpt>
      <trkpt lat="43.71675" lon="1.00079">
        <ele>196.7</ele>
        <time>2015-06-10T10:57:41.000Z</time>
      </trkpt>
      <trkpt lat="43.71667" lon="1.00085">
        <ele>196.6</ele>
        <time>2015-06-10T10:57:52.000Z</time>
      </trkpt>
      <trkpt lat="43.71664" lon="1.00098">
        <ele>196.6</ele>
        <time>2015-06-10T10:58:01.000Z</time>
      </trkpt>
      <trkpt lat="43.71663" lon="1.00111">
        <ele>196.6</ele>
        <time>2015-06-10T10:58:08.000Z</time>
      </trkpt>
      <trkpt lat="43.71661" lon="1.00123">
        <ele>196.6</ele>
        <time>2015-06-10T10:58:18.000Z</time>
      </trkpt>
      <trkpt lat="43.71661" lon="1.00137">
        <ele>196.6</ele>
        <time>2015-06-10T10:58:25.000Z</time>
      </trkpt>
      <trkpt lat="43.71659" lon="1.00151">
        <ele>196.6</ele>
        <time>2015-06-10T10:58:33.000Z</time>
      </trkpt>
      <trkpt lat="43.71653" lon="1.00163">
        <ele>196.6</ele>
        <time>2015-06-10T10:58:41.000Z</time>
      </trkpt>
      <trkpt lat="43.71645" lon="1.00172">
        <ele>196.7</ele>
        <time>2015-06-10T10:58:47.000Z</time>
      </trkpt>
      <trkpt lat="43.71639" lon="1.00181">
        <ele>196.8</ele>
        <time>2015-06-10T10:58:55.000Z</time>
      </trkpt>
      <trkpt lat="43.71631" lon="1.00189">
        <ele>196.9</ele>
        <time>2015-06-10T10:59:05.000Z</time>
      </trkpt>
      <trkpt lat="43.71624" lon="1.00198">
        <ele>196.9</ele>
        <time>2015-06-10T10:59:13.000Z</time>
      </trkpt>
      <trkpt lat="43.71616" lon="1.00204">
        <ele>196.9</ele>
        <time>2015-06-10T10:59:21.000Z</time>
      </trkpt>
      <trkpt lat="43.71607" lon="1.00204">
        <ele>197.5</ele>
        <time>2015-06-10T10:59:37.000Z</time>
      </trkpt>
      <trkpt lat="43.71601" lon="1.00214">
        <ele>197.4</ele>
        <time>2015-06-10T10:59:45.000Z</time>
      </trkpt>
      <trkpt lat="43.71594" lon="1.00224">
        <ele>197.4</ele>
        <time>2015-06-10T10:59:52.000Z</time>
      </trkpt>
      <trkpt lat="43.71589" lon="1.00236">
        <ele>197.5</ele>
        <time>2015-06-10T11:00:01.000Z</time>
      </trkpt>
      <trkpt lat="43.71581" lon="1.00243">
        <ele>197.7</ele>
        <time>2015-06-10T11:00:09.000Z</time>
      </trkpt>
      <trkpt lat="43.71577" lon="1.00256">
        <ele>197.5</ele>
        <time>2015-06-10T11:00:18.000Z</time>
      </trkpt>
      <trkpt lat="43.71582" lon="1.00267">
        <ele>197.5</ele>
        <time>2015-06-10T11:00:26.000Z</time>
      </trkpt>
      <trkpt lat="43.7159" lon="1.00274">
        <ele>197.4</ele>
        <time>2015-06-10T11:00:37.000Z</time>
      </trkpt>
      <trkpt lat="43.71596" lon="1.00284">
        <ele>197.2</ele>
        <time>2015-06-10T11:00:46.000Z</time>
      </trkpt>
      <trkpt lat="43.71605" lon="1.00292">
        <ele>196.1</ele>
        <time>2015-06-10T11:00:54.000Z</time>
      </trkpt>
      <trkpt lat="43.71614" lon="1.00295">
        <ele>195.5</ele>
        <time>2015-06-10T11:00:58.000Z</time>
      </trkpt>
      <trkpt lat="43.71622" lon="1.00298">
        <ele>195.4</ele>
        <time>2015-06-10T11:01:01.000Z</time>
      </trkpt>
      <trkpt lat="43.71632" lon="1.00301">
        <ele>195.1</ele>
        <time>2015-06-10T11:01:05.000Z</time>
      </trkpt>
      <trkpt lat="43.71641" lon="1.00301">
        <ele>194.5</ele>
        <time>2015-06-10T11:01:08.000Z</time>
      </trkpt>
      <trkpt lat="43.71651" lon="1.00301">
        <ele>194</ele>
        <time>2015-06-10T11:01:11.000Z</time>
      </trkpt>
      <trkpt lat="43.7166" lon="1.00304">
        <ele>193.6</ele>
        <time>2015-06-10T11:01:14.000Z</time>
      </trkpt>
      <trkpt lat="43.71671" lon="1.00307">
        <ele>193.2</ele>
        <time>2015-06-10T11:01:18.000Z</time>
      </trkpt>
      <trkpt lat="43.71682" lon="1.00313">
        <ele>192.5</ele>
        <time>2015-06-10T11:01:22.000Z</time>
      </trkpt>
      <trkpt lat="43.71678" lon="1.00325">
        <ele>190.6</ele>
        <time>2015-06-10T11:01:33.000Z</time>
      </trkpt>
      <trkpt lat="43.71679" lon="1.00338">
        <ele>189.1</ele>
        <time>2015-06-10T11:01:44.000Z</time>
      </trkpt>
      <trkpt lat="43.71689" lon="1.00344">
        <ele>187.8</ele>
        <time>2015-06-10T11:01:53.000Z</time>
      </trkpt>
      <trkpt lat="43.71691" lon="1.00357">
        <ele>186.4</ele>
        <time>2015-06-10T11:02:01.000Z</time>
      </trkpt>
      <trkpt lat="43.7169" lon="1.00369">
        <ele>185</ele>
        <time>2015-06-10T11:02:12.000Z</time>
      </trkpt>
      <trkpt lat="43.71693" lon="1.00381">
        <ele>183.4</ele>
        <time>2015-06-10T11:02:22.000Z</time>
      </trkpt>
      <trkpt lat="43.71702" lon="1.00388">
        <ele>182.6</ele>
        <time>2015-06-10T11:02:27.000Z</time>
      </trkpt>
      <trkpt lat="43.71711" lon="1.00396">
        <ele>181.7</ele>
        <time>2015-06-10T11:02:33.000Z</time>
      </trkpt>
      <trkpt lat="43.71718" lon="1.00404">
        <ele>181.6</ele>
        <time>2015-06-10T11:02:38.000Z</time>
      </trkpt>
      <trkpt lat="43.71725" lon="1.00413">
        <ele>180.3</ele>
        <time>2015-06-10T11:02:44.000Z</time>
      </trkpt>
      <trkpt lat="43.71733" lon="1.00421">
        <ele>179.5</ele>
        <time>2015-06-10T11:02:50.000Z</time>
      </trkpt>
      <trkpt lat="43.71734" lon="1.00435">
        <ele>178.8</ele>
        <time>2015-06-10T11:02:57.000Z</time>
      </trkpt>
      <trkpt lat="43.7174" lon="1.00447">
        <ele>178.5</ele>
        <time>2015-06-10T11:03:05.000Z</time>
      </trkpt>
      <trkpt lat="43.71744" lon="1.00458">
        <ele>177.3</ele>
        <time>2015-06-10T11:03:13.000Z</time>
      </trkpt>
      <trkpt lat="43.71752" lon="1.00467">
        <ele>176.5</ele>
        <time>2015-06-10T11:03:21.000Z</time>
      </trkpt>
      <trkpt lat="43.71757" lon="1.00478">
        <ele>176.2</ele>
        <time>2015-06-10T11:03:28.000Z</time>
      </trkpt>
      <trkpt lat="43.71761" lon="1.0049">
        <ele>176</ele>
        <time>2015-06-10T11:03:38.000Z</time>
      </trkpt>
      <trkpt lat="43.71764" lon="1.00503">
        <ele>175.5</ele>
        <time>2015-06-10T11:03:46.000Z</time>
      </trkpt>
      <trkpt lat="43.71767" lon="1.00516">
        <ele>175.4</ele>
        <time>2015-06-10T11:03:54.000Z</time>
      </trkpt>
      <trkpt lat="43.71769" lon="1.00528">
        <ele>175.5</ele>
        <time>2015-06-10T11:04:02.000Z</time>
      </trkpt>
      <trkpt lat="43.71765" lon="1.00539">
        <ele>175.7</ele>
        <time>2015-06-10T11:04:06.000Z</time>
      </trkpt>
      <trkpt lat="43.71762" lon="1.00552">
        <ele>175.4</ele>
        <time>2015-06-10T11:04:12.000Z</time>
      </trkpt>
      <trkpt lat="43.71761" lon="1.00564">
        <ele>175.5</ele>
        <time>2015-06-10T11:04:19.000Z</time>
      </trkpt>
      <trkpt lat="43.71758" lon="1.00578">
        <ele>175.9</ele>
        <time>2015-06-10T11:04:27.000Z</time>
      </trkpt>
      <trkpt lat="43.71758" lon="1.00592">
        <ele>175.6</ele>
        <time>2015-06-10T11:04:35.000Z</time>
      </trkpt>
      <trkpt lat="43.71758" lon="1.00606">
        <ele>175.5</ele>
        <time>2015-06-10T11:04:43.000Z</time>
      </trkpt>
      <trkpt lat="43.71757" lon="1.00618">
        <ele>175.5</ele>
        <time>2015-06-10T11:04:51.000Z</time>
      </trkpt>
      <trkpt lat="43.71758" lon="1.00632">
        <ele>175.6</ele>
        <time>2015-06-10T11:04:59.000Z</time>
      </trkpt>
      <trkpt lat="43.7176" lon="1.00646">
        <ele>175.8</ele>
        <time>2015-06-10T11:05:07.000Z</time>
      </trkpt>
      <trkpt lat="43.71763" lon="1.00659">
        <ele>175.6</ele>
        <time>2015-06-10T11:05:15.000Z</time>
      </trkpt>
      <trkpt lat="43.71767" lon="1.00672">
        <ele>175.5</ele>
        <time>2015-06-10T11:05:23.000Z</time>
      </trkpt>
      <trkpt lat="43.71771" lon="1.00684">
        <ele>175.3</ele>
        <time>2015-06-10T11:05:30.000Z</time>
      </trkpt>
      <trkpt lat="43.71774" lon="1.00696">
        <ele>175.4</ele>
        <time>2015-06-10T11:05:39.000Z</time>
      </trkpt>
      <trkpt lat="43.71778" lon="1.00708">
        <ele>175.4</ele>
        <time>2015-06-10T11:05:51.000Z</time>
      </trkpt>
      <trkpt lat="43.71781" lon="1.0072">
        <ele>175.7</ele>
        <time>2015-06-10T11:06:00.000Z</time>
      </trkpt>
      <trkpt lat="43.71785" lon="1.00732">
        <ele>175.9</ele>
        <time>2015-06-10T11:06:08.000Z</time>
      </trkpt>
      <trkpt lat="43.71789" lon="1.00745">
        <ele>176.4</ele>
        <time>2015-06-10T11:06:17.000Z</time>
      </trkpt>
      <trkpt lat="43.7179" lon="1.00758">
        <ele>176.6</ele>
        <time>2015-06-10T11:06:26.000Z</time>
      </trkpt>
      <trkpt lat="43.71793" lon="1.00771">
        <ele>177.2</ele>
        <time>2015-06-10T11:06:35.000Z</time>
      </trkpt>
      <trkpt lat="43.71797" lon="1.00782">
        <ele>177.4</ele>
        <time>2015-06-10T11:06:43.000Z</time>
      </trkpt>
      <trkpt lat="43.71801" lon="1.00794">
        <ele>177.8</ele>
        <time>2015-06-10T11:06:51.000Z</time>
      </trkpt>
      <trkpt lat="43.71804" lon="1.00807">
        <ele>178.4</ele>
        <time>2015-06-10T11:07:00.000Z</time>
      </trkpt>
      <trkpt lat="43.71809" lon="1.00819">
        <ele>178.9</ele>
        <time>2015-06-10T11:07:09.000Z</time>
      </trkpt>
      <trkpt lat="43.71815" lon="1.00829">
        <ele>179.3</ele>
        <time>2015-06-10T11:07:17.000Z</time>
      </trkpt>
      <trkpt lat="43.71822" lon="1.00839">
        <ele>179.7</ele>
        <time>2015-06-10T11:07:26.000Z</time>
      </trkpt>
      <trkpt lat="43.71828" lon="1.00849">
        <ele>180.2</ele>
        <time>2015-06-10T11:07:35.000Z</time>
      </trkpt>
      <trkpt lat="43.71834" lon="1.00858">
        <ele>180.7</ele>
        <time>2015-06-10T11:07:44.000Z</time>
      </trkpt>
      <trkpt lat="43.71841" lon="1.00868">
        <ele>181.1</ele>
        <time>2015-06-10T11:07:53.000Z</time>
      </trkpt>
      <trkpt lat="43.71848" lon="1.00877">
        <ele>181.5</ele>
        <time>2015-06-10T11:08:02.000Z</time>
      </trkpt>
      <trkpt lat="43.71856" lon="1.00885">
        <ele>182</ele>
        <time>2015-06-10T11:08:10.000Z</time>
      </trkpt>
      <trkpt lat="43.71864" lon="1.0089">
        <ele>182.1</ele>
        <time>2015-06-10T11:08:18.000Z</time>
      </trkpt>
      <trkpt lat="43.71873" lon="1.00895">
        <ele>182.5</ele>
        <time>2015-06-10T11:08:26.000Z</time>
      </trkpt>
      <trkpt lat="43.71882" lon="1.009">
        <ele>182.6</ele>
        <time>2015-06-10T11:08:34.000Z</time>
      </trkpt>
      <trkpt lat="43.71884" lon="1.00915">
        <ele>183.2</ele>
        <time>2015-06-10T11:09:40.000Z</time>
      </trkpt>
      <trkpt lat="43.71882" lon="1.00928">
        <ele>183.1</ele>
        <time>2015-06-10T11:09:48.000Z</time>
      </trkpt>
      <trkpt lat="43.71877" lon="1.00939">
        <ele>182.9</ele>
        <time>2015-06-10T11:09:55.000Z</time>
      </trkpt>
      <trkpt lat="43.71873" lon="1.0095">
        <ele>182.6</ele>
        <time>2015-06-10T11:10:05.000Z</time>
      </trkpt>
      <trkpt lat="43.71869" lon="1.00961">
        <ele>182.3</ele>
        <time>2015-06-10T11:10:14.000Z</time>
      </trkpt>
      <trkpt lat="43.71866" lon="1.00973">
        <ele>181.5</ele>
        <time>2015-06-10T11:10:24.000Z</time>
      </trkpt>
      <trkpt lat="43.71862" lon="1.00986">
        <ele>180.8</ele>
        <time>2015-06-10T11:10:34.000Z</time>
      </trkpt>
      <trkpt lat="43.71858" lon="1.00999">
        <ele>180.1</ele>
        <time>2015-06-10T11:10:44.000Z</time>
      </trkpt>
      <trkpt lat="43.71855" lon="1.01012">
        <ele>179.4</ele>
        <time>2015-06-10T11:10:53.000Z</time>
      </trkpt>
      <trkpt lat="43.71852" lon="1.01025">
        <ele>178.7</ele>
        <time>2015-06-10T11:11:00.000Z</time>
      </trkpt>
      <trkpt lat="43.71847" lon="1.01036">
        <ele>177.5</ele>
        <time>2015-06-10T11:11:11.000Z</time>
      </trkpt>
      <trkpt lat="43.71843" lon="1.01047">
        <ele>176.3</ele>
        <time>2015-06-10T11:11:22.000Z</time>
      </trkpt>
      <trkpt lat="43.71841" lon="1.01061">
        <ele>175.3</ele>
        <time>2015-06-10T11:11:30.000Z</time>
      </trkpt>
      <trkpt lat="43.71838" lon="1.01073">
        <ele>174.1</ele>
        <time>2015-06-10T11:11:41.000Z</time>
      </trkpt>
      <trkpt lat="43.71835" lon="1.01085">
        <ele>172.7</ele>
        <time>2015-06-10T11:11:51.000Z</time>
      </trkpt>
      <trkpt lat="43.71833" lon="1.01097">
        <ele>170.3</ele>
        <time>2015-06-10T11:12:07.000Z</time>
      </trkpt>
      <trkpt lat="43.71832" lon="1.0111">
        <ele>168.5</ele>
        <time>2015-06-10T11:12:20.000Z</time>
      </trkpt>
      <trkpt lat="43.71831" lon="1.01122">
        <ele>166.7</ele>
        <time>2015-06-10T11:12:32.000Z</time>
      </trkpt>
      <trkpt lat="43.7183" lon="1.01135">
        <ele>165.4</ele>
        <time>2015-06-10T11:12:42.000Z</time>
      </trkpt>
      <trkpt lat="43.71827" lon="1.01147">
        <ele>164.4</ele>
        <time>2015-06-10T11:12:54.000Z</time>
      </trkpt>
      <trkpt lat="43.71825" lon="1.01159">
        <ele>163.3</ele>
        <time>2015-06-10T11:13:02.000Z</time>
      </trkpt>
      <trkpt lat="43.71826" lon="1.01173">
        <ele>162.5</ele>
        <time>2015-06-10T11:13:10.000Z</time>
      </trkpt>
      <trkpt lat="43.71828" lon="1.01186">
        <ele>161</ele>
        <time>2015-06-10T11:13:20.000Z</time>
      </trkpt>
      <trkpt lat="43.71825" lon="1.01198">
        <ele>158.8</ele>
        <time>2015-06-10T11:13:32.000Z</time>
      </trkpt>
      <trkpt lat="43.7182" lon="1.0121">
        <ele>158.3</ele>
        <time>2015-06-10T11:13:36.000Z</time>
      </trkpt>
      <trkpt lat="43.71815" lon="1.01222">
        <ele>157.9</ele>
        <time>2015-06-10T11:13:40.000Z</time>
      </trkpt>
      <trkpt lat="43.7181" lon="1.01236">
        <ele>157.5</ele>
        <time>2015-06-10T11:13:44.000Z</time>
      </trkpt>
      <trkpt lat="43.71802" lon="1.01246">
        <ele>157.3</ele>
        <time>2015-06-10T11:13:47.000Z</time>
      </trkpt>
      <trkpt lat="43.71797" lon="1.01259">
        <ele>157.2</ele>
        <time>2015-06-10T11:13:52.000Z</time>
      </trkpt>
      <trkpt lat="43.71806" lon="1.01266">
        <ele>156.9</ele>
        <time>2015-06-10T11:13:59.000Z</time>
      </trkpt>
      <trkpt lat="43.7181" lon="1.01277">
        <ele>156.6</ele>
        <time>2015-06-10T11:14:14.000Z</time>
      </trkpt>
      <trkpt lat="43.71802" lon="1.01287">
        <ele>156.6</ele>
        <time>2015-06-10T11:14:23.000Z</time>
      </trkpt>
      <trkpt lat="43.71797" lon="1.01298">
        <ele>156.7</ele>
        <time>2015-06-10T11:14:36.000Z</time>
      </trkpt>
      <trkpt lat="43.71765" lon="1.01328">
        <ele>167</ele>
        <time>2015-06-10T11:18:06.000Z</time>
      </trkpt>
      <trkpt lat="43.71753" lon="1.01344">
        <ele>167.8</ele>
        <time>2015-06-10T11:18:11.000Z</time>
      </trkpt>
      <trkpt lat="43.71747" lon="1.01354">
        <ele>167.8</ele>
        <time>2015-06-10T11:18:12.000Z</time>
      </trkpt>
      <trkpt lat="43.7174" lon="1.01367">
        <ele>167.8</ele>
        <time>2015-06-10T11:18:14.000Z</time>
      </trkpt>
      <trkpt lat="43.71733" lon="1.01378">
        <ele>167.9</ele>
        <time>2015-06-10T11:18:17.000Z</time>
      </trkpt>
      <trkpt lat="43.71727" lon="1.01388">
        <ele>167.9</ele>
        <time>2015-06-10T11:18:19.000Z</time>
      </trkpt>
      <trkpt lat="43.71721" lon="1.01399">
        <ele>168</ele>
        <time>2015-06-10T11:18:22.000Z</time>
      </trkpt>
      <trkpt lat="43.71715" lon="1.01411">
        <ele>168.2</ele>
        <time>2015-06-10T11:18:26.000Z</time>
      </trkpt>
      <trkpt lat="43.71708" lon="1.01422">
        <ele>168.4</ele>
        <time>2015-06-10T11:18:30.000Z</time>
      </trkpt>
      <trkpt lat="43.71702" lon="1.01431">
        <ele>168.5</ele>
        <time>2015-06-10T11:18:33.000Z</time>
      </trkpt>
      <trkpt lat="43.71693" lon="1.01439">
        <ele>168.8</ele>
        <time>2015-06-10T11:18:39.000Z</time>
      </trkpt>
      <trkpt lat="43.71686" lon="1.01448">
        <ele>168.9</ele>
        <time>2015-06-10T11:18:43.000Z</time>
      </trkpt>
      <trkpt lat="43.71679" lon="1.01458">
        <ele>169.2</ele>
        <time>2015-06-10T11:18:49.000Z</time>
      </trkpt>
      <trkpt lat="43.71672" lon="1.0148">
        <ele>169</ele>
        <time>2015-06-10T11:19:04.000Z</time>
      </trkpt>
      <trkpt lat="43.71666" lon="1.01493">
        <ele>170</ele>
        <time>2015-06-10T11:19:12.000Z</time>
      </trkpt>
      <trkpt lat="43.71659" lon="1.01503">
        <ele>170.1</ele>
        <time>2015-06-10T11:19:15.000Z</time>
      </trkpt>
      <trkpt lat="43.71645" lon="1.0152">
        <ele>170</ele>
        <time>2015-06-10T11:19:28.000Z</time>
      </trkpt>
      <trkpt lat="43.71637" lon="1.0153">
        <ele>170.9</ele>
        <time>2015-06-10T11:19:34.000Z</time>
      </trkpt>
      <trkpt lat="43.71631" lon="1.01542">
        <ele>171</ele>
        <time>2015-06-10T11:19:39.000Z</time>
      </trkpt>
      <trkpt lat="43.71625" lon="1.01551">
        <ele>171.4</ele>
        <time>2015-06-10T11:19:46.000Z</time>
      </trkpt>
      <trkpt lat="43.71619" lon="1.01564">
        <ele>171.6</ele>
        <time>2015-06-10T11:19:51.000Z</time>
      </trkpt>
      <trkpt lat="43.71613" lon="1.01573">
        <ele>171.8</ele>
        <time>2015-06-10T11:19:57.000Z</time>
      </trkpt>
      <trkpt lat="43.71604" lon="1.01583">
        <ele>172.2</ele>
        <time>2015-06-10T11:20:03.000Z</time>
      </trkpt>
      <trkpt lat="43.71597" lon="1.01593">
        <ele>172.4</ele>
        <time>2015-06-10T11:20:06.000Z</time>
      </trkpt>
      <trkpt lat="43.7159" lon="1.01603">
        <ele>172.6</ele>
        <time>2015-06-10T11:20:10.000Z</time>
      </trkpt>
      <trkpt lat="43.71582" lon="1.01611">
        <ele>172.9</ele>
        <time>2015-06-10T11:20:16.000Z</time>
      </trkpt>
      <trkpt lat="43.71575" lon="1.01621">
        <ele>172.9</ele>
        <time>2015-06-10T11:20:22.000Z</time>
      </trkpt>
      <trkpt lat="43.7157" lon="1.01633">
        <ele>172.9</ele>
        <time>2015-06-10T11:20:27.000Z</time>
      </trkpt>
      <trkpt lat="43.71566" lon="1.01645">
        <ele>172.9</ele>
        <time>2015-06-10T11:20:36.000Z</time>
      </trkpt>
      <trkpt lat="43.71559" lon="1.01654">
        <ele>173.3</ele>
        <time>2015-06-10T11:21:11.000Z</time>
      </trkpt>
      <trkpt lat="43.71554" lon="1.01665">
        <ele>173.8</ele>
        <time>2015-06-10T11:21:21.000Z</time>
      </trkpt>
      <trkpt lat="43.71548" lon="1.01676">
        <ele>173.8</ele>
        <time>2015-06-10T11:21:33.000Z</time>
      </trkpt>
      <trkpt lat="43.7154" lon="1.01685">
        <ele>174.4</ele>
        <time>2015-06-10T11:21:42.000Z</time>
      </trkpt>
      <trkpt lat="43.71533" lon="1.01692">
        <ele>174.6</ele>
        <time>2015-06-10T11:21:50.000Z</time>
      </trkpt>
      <trkpt lat="43.71526" lon="1.01701">
        <ele>174.9</ele>
        <time>2015-06-10T11:21:57.000Z</time>
      </trkpt>
      <trkpt lat="43.71519" lon="1.01711">
        <ele>175</ele>
        <time>2015-06-10T11:22:05.000Z</time>
      </trkpt>
      <trkpt lat="43.71513" lon="1.0172">
        <ele>175.4</ele>
        <time>2015-06-10T11:22:15.000Z</time>
      </trkpt>
      <trkpt lat="43.71507" lon="1.01732">
        <ele>175.5</ele>
        <time>2015-06-10T11:22:25.000Z</time>
      </trkpt>
      <trkpt lat="43.71504" lon="1.01744">
        <ele>176.5</ele>
        <time>2015-06-10T11:22:45.000Z</time>
      </trkpt>
      <trkpt lat="43.71499" lon="1.01755">
        <ele>176.5</ele>
        <time>2015-06-10T11:22:56.000Z</time>
      </trkpt>
      <trkpt lat="43.71496" lon="1.01768">
        <ele>176.8</ele>
        <time>2015-06-10T11:23:10.000Z</time>
      </trkpt>
      <trkpt lat="43.71487" lon="1.01787">
        <ele>177</ele>
        <time>2015-06-10T11:23:29.000Z</time>
      </trkpt>
      <trkpt lat="43.71484" lon="1.018">
        <ele>177.9</ele>
        <time>2015-06-10T11:25:11.000Z</time>
      </trkpt>
      <trkpt lat="43.71479" lon="1.01813">
        <ele>178</ele>
        <time>2015-06-10T11:25:19.000Z</time>
      </trkpt>
      <trkpt lat="43.71475" lon="1.01824">
        <ele>178.3</ele>
        <time>2015-06-10T11:25:28.000Z</time>
      </trkpt>
      <trkpt lat="43.71473" lon="1.01837">
        <ele>178.5</ele>
        <time>2015-06-10T11:25:36.000Z</time>
      </trkpt>
      <trkpt lat="43.7147" lon="1.0185">
        <ele>178.6</ele>
        <time>2015-06-10T11:25:45.000Z</time>
      </trkpt>
      <trkpt lat="43.71466" lon="1.01862">
        <ele>178.2</ele>
        <time>2015-06-10T11:25:53.000Z</time>
      </trkpt>
      <trkpt lat="43.71462" lon="1.01874">
        <ele>178.1</ele>
        <time>2015-06-10T11:26:00.000Z</time>
      </trkpt>
      <trkpt lat="43.71457" lon="1.01885">
        <ele>178</ele>
        <time>2015-06-10T11:26:09.000Z</time>
      </trkpt>
      <trkpt lat="43.71454" lon="1.01898">
        <ele>178.3</ele>
        <time>2015-06-10T11:26:16.000Z</time>
      </trkpt>
      <trkpt lat="43.71449" lon="1.01909">
        <ele>178.5</ele>
        <time>2015-06-10T11:26:29.000Z</time>
      </trkpt>
      <trkpt lat="43.71443" lon="1.01919">
        <ele>178.8</ele>
        <time>2015-06-10T11:26:39.000Z</time>
      </trkpt>
      <trkpt lat="43.71436" lon="1.01929">
        <ele>178.5</ele>
        <time>2015-06-10T11:26:47.000Z</time>
      </trkpt>
      <trkpt lat="43.7143" lon="1.01939">
        <ele>178.4</ele>
        <time>2015-06-10T11:26:54.000Z</time>
      </trkpt>
      <trkpt lat="43.71425" lon="1.0195">
        <ele>178.3</ele>
        <time>2015-06-10T11:27:03.000Z</time>
      </trkpt>
      <trkpt lat="43.71419" lon="1.01961">
        <ele>178.1</ele>
        <time>2015-06-10T11:27:12.000Z</time>
      </trkpt>
      <trkpt lat="43.71414" lon="1.01972">
        <ele>178.2</ele>
        <time>2015-06-10T11:27:21.000Z</time>
      </trkpt>
      <trkpt lat="43.71409" lon="1.01983">
        <ele>178.1</ele>
        <time>2015-06-10T11:27:31.000Z</time>
      </trkpt>
      <trkpt lat="43.71405" lon="1.01996">
        <ele>178.2</ele>
        <time>2015-06-10T11:27:40.000Z</time>
      </trkpt>
      <trkpt lat="43.714" lon="1.02007">
        <ele>178.4</ele>
        <time>2015-06-10T11:27:49.000Z</time>
      </trkpt>
      <trkpt lat="43.71397" lon="1.02019">
        <ele>178.1</ele>
        <time>2015-06-10T11:27:55.000Z</time>
      </trkpt>
      <trkpt lat="43.71392" lon="1.02032">
        <ele>177.9</ele>
        <time>2015-06-10T11:28:02.000Z</time>
      </trkpt>
      <trkpt lat="43.71388" lon="1.02044">
        <ele>177.6</ele>
        <time>2015-06-10T11:28:12.000Z</time>
      </trkpt>
      <trkpt lat="43.71385" lon="1.02057">
        <ele>177.4</ele>
        <time>2015-06-10T11:28:20.000Z</time>
      </trkpt>
      <trkpt lat="43.7138" lon="1.02067">
        <ele>176.7</ele>
        <time>2015-06-10T11:28:32.000Z</time>
      </trkpt>
      <trkpt lat="43.71376" lon="1.0208">
        <ele>176.6</ele>
        <time>2015-06-10T11:28:40.000Z</time>
      </trkpt>
      <trkpt lat="43.71371" lon="1.02092">
        <ele>176.5</ele>
        <time>2015-06-10T11:28:48.000Z</time>
      </trkpt>
      <trkpt lat="43.71368" lon="1.02104">
        <ele>175.9</ele>
        <time>2015-06-10T11:28:56.000Z</time>
      </trkpt>
      <trkpt lat="43.71363" lon="1.02115">
        <ele>175.3</ele>
        <time>2015-06-10T11:29:05.000Z</time>
      </trkpt>
      <trkpt lat="43.71361" lon="1.02127">
        <ele>175.3</ele>
        <time>2015-06-10T11:29:12.000Z</time>
      </trkpt>
      <trkpt lat="43.71357" lon="1.02139">
        <ele>175</ele>
        <time>2015-06-10T11:29:19.000Z</time>
      </trkpt>
      <trkpt lat="43.71353" lon="1.02151">
        <ele>175</ele>
        <time>2015-06-10T11:29:26.000Z</time>
      </trkpt>
      <trkpt lat="43.71348" lon="1.02162">
        <ele>174.5</ele>
        <time>2015-06-10T11:29:33.000Z</time>
      </trkpt>
      <trkpt lat="43.71342" lon="1.02172">
        <ele>174.1</ele>
        <time>2015-06-10T11:29:39.000Z</time>
      </trkpt>
      <trkpt lat="43.71337" lon="1.02182">
        <ele>173.4</ele>
        <time>2015-06-10T11:29:47.000Z</time>
      </trkpt>
      <trkpt lat="43.71331" lon="1.02193">
        <ele>173.2</ele>
        <time>2015-06-10T11:29:53.000Z</time>
      </trkpt>
      <trkpt lat="43.71324" lon="1.02202">
        <ele>172.6</ele>
        <time>2015-06-10T11:30:03.000Z</time>
      </trkpt>
      <trkpt lat="43.71318" lon="1.02213">
        <ele>172.2</ele>
        <time>2015-06-10T11:30:12.000Z</time>
      </trkpt>
      <trkpt lat="43.71314" lon="1.02225">
        <ele>171.3</ele>
        <time>2015-06-10T11:30:23.000Z</time>
      </trkpt>
      <trkpt lat="43.7131" lon="1.02237">
        <ele>170.8</ele>
        <time>2015-06-10T11:30:32.000Z</time>
      </trkpt>
      <trkpt lat="43.71306" lon="1.02249">
        <ele>170.3</ele>
        <time>2015-06-10T11:30:42.000Z</time>
      </trkpt>
      <trkpt lat="43.71303" lon="1.02261">
        <ele>168.9</ele>
        <time>2015-06-10T11:30:52.000Z</time>
      </trkpt>
      <trkpt lat="43.71302" lon="1.02275">
        <ele>168.5</ele>
        <time>2015-06-10T11:31:00.000Z</time>
      </trkpt>
      <trkpt lat="43.71299" lon="1.02288">
        <ele>168</ele>
        <time>2015-06-10T11:31:09.000Z</time>
      </trkpt>
      <trkpt lat="43.71297" lon="1.023">
        <ele>167.7</ele>
        <time>2015-06-10T11:31:17.000Z</time>
      </trkpt>
      <trkpt lat="43.71293" lon="1.02313">
        <ele>166.7</ele>
        <time>2015-06-10T11:31:27.000Z</time>
      </trkpt>
      <trkpt lat="43.71292" lon="1.02326">
        <ele>166.2</ele>
        <time>2015-06-10T11:31:34.000Z</time>
      </trkpt>
      <trkpt lat="43.71293" lon="1.0234">
        <ele>166</ele>
        <time>2015-06-10T11:31:42.000Z</time>
      </trkpt>
      <trkpt lat="43.71295" lon="1.02353">
        <ele>165.5</ele>
        <time>2015-06-10T11:31:49.000Z</time>
      </trkpt>
      <trkpt lat="43.71297" lon="1.02366">
        <ele>165.2</ele>
        <time>2015-06-10T11:31:56.000Z</time>
      </trkpt>
      <trkpt lat="43.71299" lon="1.02379">
        <ele>164.9</ele>
        <time>2015-06-10T11:32:05.000Z</time>
      </trkpt>
      <trkpt lat="43.71303" lon="1.02391">
        <ele>164.5</ele>
        <time>2015-06-10T11:32:16.000Z</time>
      </trkpt>
      <trkpt lat="43.71306" lon="1.02404">
        <ele>164.2</ele>
        <time>2015-06-10T11:32:24.000Z</time>
      </trkpt>
      <trkpt lat="43.71306" lon="1.02417">
        <ele>163.8</ele>
        <time>2015-06-10T11:32:32.000Z</time>
      </trkpt>
      <trkpt lat="43.71306" lon="1.0243">
        <ele>163.1</ele>
        <time>2015-06-10T11:32:43.000Z</time>
      </trkpt>
      <trkpt lat="43.7131" lon="1.02442">
        <ele>162.7</ele>
        <time>2015-06-10T11:32:49.000Z</time>
      </trkpt>
      <trkpt lat="43.71312" lon="1.02454">
        <ele>162</ele>
        <time>2015-06-10T11:33:01.000Z</time>
      </trkpt>
      <trkpt lat="43.71316" lon="1.02466">
        <ele>161.4</ele>
        <time>2015-06-10T11:33:17.000Z</time>
      </trkpt>
      <trkpt lat="43.71321" lon="1.02483">
        <ele>160.7</ele>
        <time>2015-06-10T11:36:20.000Z</time>
      </trkpt>
      <trkpt lat="43.71312" lon="1.02483">
        <ele>161.1</ele>
        <time>2015-06-10T11:36:28.000Z</time>
      </trkpt>
      <trkpt lat="43.71309" lon="1.02496">
        <ele>161.4</ele>
        <time>2015-06-10T11:36:35.000Z</time>
      </trkpt>
      <trkpt lat="43.71304" lon="1.02506">
        <ele>161.6</ele>
        <time>2015-06-10T11:36:42.000Z</time>
      </trkpt>
      <trkpt lat="43.71298" lon="1.02517">
        <ele>161.9</ele>
        <time>2015-06-10T11:36:49.000Z</time>
      </trkpt>
      <trkpt lat="43.71291" lon="1.02527">
        <ele>162.4</ele>
        <time>2015-06-10T11:36:56.000Z</time>
      </trkpt>
      <trkpt lat="43.71285" lon="1.02539">
        <ele>162.9</ele>
        <time>2015-06-10T11:37:03.000Z</time>
      </trkpt>
      <trkpt lat="43.71279" lon="1.0255">
        <ele>163.6</ele>
        <time>2015-06-10T11:37:10.000Z</time>
      </trkpt>
      <trkpt lat="43.71273" lon="1.0256">
        <ele>164.3</ele>
        <time>2015-06-10T11:37:17.000Z</time>
      </trkpt>
      <trkpt lat="43.71267" lon="1.02571">
        <ele>165.3</ele>
        <time>2015-06-10T11:37:24.000Z</time>
      </trkpt>
      <trkpt lat="43.7126" lon="1.0258">
        <ele>166.2</ele>
        <time>2015-06-10T11:37:31.000Z</time>
      </trkpt>
      <trkpt lat="43.71254" lon="1.0259">
        <ele>167.5</ele>
        <time>2015-06-10T11:37:39.000Z</time>
      </trkpt>
      <trkpt lat="43.71249" lon="1.02602">
        <ele>168.4</ele>
        <time>2015-06-10T11:37:46.000Z</time>
      </trkpt>
      <trkpt lat="43.71244" lon="1.02614">
        <ele>169.5</ele>
        <time>2015-06-10T11:37:54.000Z</time>
      </trkpt>
      <trkpt lat="43.71238" lon="1.02625">
        <ele>170.5</ele>
        <time>2015-06-10T11:38:01.000Z</time>
      </trkpt>
      <trkpt lat="43.71234" lon="1.02637">
        <ele>171.2</ele>
        <time>2015-06-10T11:38:08.000Z</time>
      </trkpt>
      <trkpt lat="43.71231" lon="1.02648">
        <ele>171.9</ele>
        <time>2015-06-10T11:38:16.000Z</time>
      </trkpt>
      <trkpt lat="43.71225" lon="1.0266">
        <ele>172.7</ele>
        <time>2015-06-10T11:38:24.000Z</time>
      </trkpt>
      <trkpt lat="43.71221" lon="1.02672">
        <ele>173.3</ele>
        <time>2015-06-10T11:38:31.000Z</time>
      </trkpt>
      <trkpt lat="43.71216" lon="1.02685">
        <ele>174.1</ele>
        <time>2015-06-10T11:38:39.000Z</time>
      </trkpt>
      <trkpt lat="43.71212" lon="1.02696">
        <ele>174.7</ele>
        <time>2015-06-10T11:38:46.000Z</time>
      </trkpt>
      <trkpt lat="43.71208" lon="1.02709">
        <ele>175.4</ele>
        <time>2015-06-10T11:38:53.000Z</time>
      </trkpt>
      <trkpt lat="43.71203" lon="1.0272">
        <ele>176.1</ele>
        <time>2015-06-10T11:38:59.000Z</time>
      </trkpt>
      <trkpt lat="43.71199" lon="1.02732">
        <ele>176.4</ele>
        <time>2015-06-10T11:39:05.000Z</time>
      </trkpt>
      <trkpt lat="43.71195" lon="1.02744">
        <ele>176.9</ele>
        <time>2015-06-10T11:39:12.000Z</time>
      </trkpt>
      <trkpt lat="43.71193" lon="1.02756">
        <ele>177.5</ele>
        <time>2015-06-10T11:39:19.000Z</time>
      </trkpt>
      <trkpt lat="43.71189" lon="1.02769">
        <ele>178.1</ele>
        <time>2015-06-10T11:39:27.000Z</time>
      </trkpt>
      <trkpt lat="43.71186" lon="1.02782">
        <ele>178.5</ele>
        <time>2015-06-10T11:39:34.000Z</time>
      </trkpt>
      <trkpt lat="43.71184" lon="1.02795">
        <ele>178.6</ele>
        <time>2015-06-10T11:39:41.000Z</time>
      </trkpt>
      <trkpt lat="43.71182" lon="1.02809">
        <ele>179.2</ele>
        <time>2015-06-10T11:39:48.000Z</time>
      </trkpt>
      <trkpt lat="43.71181" lon="1.02822">
        <ele>179.3</ele>
        <time>2015-06-10T11:39:54.000Z</time>
      </trkpt>
      <trkpt lat="43.71179" lon="1.02835">
        <ele>179.8</ele>
        <time>2015-06-10T11:40:01.000Z</time>
      </trkpt>
      <trkpt lat="43.71177" lon="1.02849">
        <ele>180.4</ele>
        <time>2015-06-10T11:40:08.000Z</time>
      </trkpt>
      <trkpt lat="43.71175" lon="1.02863">
        <ele>180.8</ele>
        <time>2015-06-10T11:40:15.000Z</time>
      </trkpt>
      <trkpt lat="43.71174" lon="1.02876">
        <ele>180.9</ele>
        <time>2015-06-10T11:40:22.000Z</time>
      </trkpt>
      <trkpt lat="43.71172" lon="1.02889">
        <ele>181.3</ele>
        <time>2015-06-10T11:40:29.000Z</time>
      </trkpt>
      <trkpt lat="43.7117" lon="1.02902">
        <ele>182</ele>
        <time>2015-06-10T11:40:36.000Z</time>
      </trkpt>
      <trkpt lat="43.71167" lon="1.02915">
        <ele>182.4</ele>
        <time>2015-06-10T11:40:43.000Z</time>
      </trkpt>
      <trkpt lat="43.71166" lon="1.02928">
        <ele>183</ele>
        <time>2015-06-10T11:40:50.000Z</time>
      </trkpt>
      <trkpt lat="43.71165" lon="1.02941">
        <ele>183.8</ele>
        <time>2015-06-10T11:40:57.000Z</time>
      </trkpt>
      <trkpt lat="43.71163" lon="1.02955">
        <ele>184.1</ele>
        <time>2015-06-10T11:41:04.000Z</time>
      </trkpt>
      <trkpt lat="43.71161" lon="1.02968">
        <ele>184.8</ele>
        <time>2015-06-10T11:41:11.000Z</time>
      </trkpt>
      <trkpt lat="43.71159" lon="1.0298">
        <ele>185.3</ele>
        <time>2015-06-10T11:41:18.000Z</time>
      </trkpt>
      <trkpt lat="43.71156" lon="1.02993">
        <ele>185.6</ele>
        <time>2015-06-10T11:41:25.000Z</time>
      </trkpt>
      <trkpt lat="43.71152" lon="1.03006">
        <ele>185.9</ele>
        <time>2015-06-10T11:41:33.000Z</time>
      </trkpt>
      <trkpt lat="43.71148" lon="1.03017">
        <ele>187.8</ele>
        <time>2015-06-10T11:42:11.000Z</time>
      </trkpt>
      <trkpt lat="43.71154" lon="1.03027">
        <ele>185.8</ele>
        <time>2015-06-10T11:43:33.000Z</time>
      </trkpt>
      <trkpt lat="43.71152" lon="1.03041">
        <ele>185.4</ele>
        <time>2015-06-10T11:43:46.000Z</time>
      </trkpt>
      <trkpt lat="43.71152" lon="1.03054">
        <ele>185.3</ele>
        <time>2015-06-10T11:43:54.000Z</time>
      </trkpt>
      <trkpt lat="43.71153" lon="1.03067">
        <ele>185.5</ele>
        <time>2015-06-10T11:44:03.000Z</time>
      </trkpt>
      <trkpt lat="43.71151" lon="1.0308">
        <ele>185.6</ele>
        <time>2015-06-10T11:44:11.000Z</time>
      </trkpt>
      <trkpt lat="43.71147" lon="1.03092">
        <ele>186.3</ele>
        <time>2015-06-10T11:44:18.000Z</time>
      </trkpt>
      <trkpt lat="43.71144" lon="1.03104">
        <ele>186.6</ele>
        <time>2015-06-10T11:44:27.000Z</time>
      </trkpt>
      <trkpt lat="43.71143" lon="1.03117">
        <ele>186.7</ele>
        <time>2015-06-10T11:44:33.000Z</time>
      </trkpt>
      <trkpt lat="43.71142" lon="1.0313">
        <ele>186.7</ele>
        <time>2015-06-10T11:44:41.000Z</time>
      </trkpt>
      <trkpt lat="43.71141" lon="1.03142">
        <ele>186.8</ele>
        <time>2015-06-10T11:44:49.000Z</time>
      </trkpt>
      <trkpt lat="43.7114" lon="1.03156">
        <ele>187.1</ele>
        <time>2015-06-10T11:44:59.000Z</time>
      </trkpt>
      <trkpt lat="43.71144" lon="1.03169">
        <ele>187.1</ele>
        <time>2015-06-10T11:45:08.000Z</time>
      </trkpt>
      <trkpt lat="43.71153" lon="1.03176">
        <ele>186.3</ele>
        <time>2015-06-10T11:45:17.000Z</time>
      </trkpt>
      <trkpt lat="43.71162" lon="1.03179">
        <ele>186</ele>
        <time>2015-06-10T11:45:26.000Z</time>
      </trkpt>
      <trkpt lat="43.71171" lon="1.03184">
        <ele>185.9</ele>
        <time>2015-06-10T11:45:34.000Z</time>
      </trkpt>
      <trkpt lat="43.7118" lon="1.03186">
        <ele>185.8</ele>
        <time>2015-06-10T11:45:41.000Z</time>
      </trkpt>
      <trkpt lat="43.71189" lon="1.03191">
        <ele>185.7</ele>
        <time>2015-06-10T11:45:50.000Z</time>
      </trkpt>
      <trkpt lat="43.71198" lon="1.03193">
        <ele>185.6</ele>
        <time>2015-06-10T11:45:59.000Z</time>
      </trkpt>
      <trkpt lat="43.71207" lon="1.03198">
        <ele>185.6</ele>
        <time>2015-06-10T11:46:04.000Z</time>
      </trkpt>
      <trkpt lat="43.71216" lon="1.03202">
        <ele>185.4</ele>
        <time>2015-06-10T11:46:11.000Z</time>
      </trkpt>
      <trkpt lat="43.71226" lon="1.03206">
        <ele>185.4</ele>
        <time>2015-06-10T11:46:18.000Z</time>
      </trkpt>
      <trkpt lat="43.71237" lon="1.03209">
        <ele>185.7</ele>
        <time>2015-06-10T11:46:27.000Z</time>
      </trkpt>
      <trkpt lat="43.71247" lon="1.03215">
        <ele>185.9</ele>
        <time>2015-06-10T11:46:33.000Z</time>
      </trkpt>
      <trkpt lat="43.71256" lon="1.0322">
        <ele>186.1</ele>
        <time>2015-06-10T11:46:37.000Z</time>
      </trkpt>
      <trkpt lat="43.71266" lon="1.03225">
        <ele>186.4</ele>
        <time>2015-06-10T11:46:41.000Z</time>
      </trkpt>
      <trkpt lat="43.71264" lon="1.03239">
        <ele>186.9</ele>
        <time>2015-06-10T11:46:48.000Z</time>
      </trkpt>
      <trkpt lat="43.71258" lon="1.03249">
        <ele>187.3</ele>
        <time>2015-06-10T11:46:53.000Z</time>
      </trkpt>
      <trkpt lat="43.71254" lon="1.0326">
        <ele>187.8</ele>
        <time>2015-06-10T11:46:59.000Z</time>
      </trkpt>
      <trkpt lat="43.71249" lon="1.03273">
        <ele>188.2</ele>
        <time>2015-06-10T11:47:05.000Z</time>
      </trkpt>
      <trkpt lat="43.71243" lon="1.03285">
        <ele>189</ele>
        <time>2015-06-10T11:47:15.000Z</time>
      </trkpt>
      <trkpt lat="43.71241" lon="1.03297">
        <ele>189.1</ele>
        <time>2015-06-10T11:47:23.000Z</time>
      </trkpt>
      <trkpt lat="43.7124" lon="1.03311">
        <ele>189.3</ele>
        <time>2015-06-10T11:47:34.000Z</time>
      </trkpt>
      <trkpt lat="43.71239" lon="1.03324">
        <ele>189.4</ele>
        <time>2015-06-10T11:47:42.000Z</time>
      </trkpt>
      <trkpt lat="43.71236" lon="1.03338">
        <ele>189.5</ele>
        <time>2015-06-10T11:47:49.000Z</time>
      </trkpt>
      <trkpt lat="43.71234" lon="1.03351">
        <ele>189.3</ele>
        <time>2015-06-10T11:47:55.000Z</time>
      </trkpt>
      <trkpt lat="43.71227" lon="1.03361">
        <ele>189.2</ele>
        <time>2015-06-10T11:48:02.000Z</time>
      </trkpt>
      <trkpt lat="43.71221" lon="1.03372">
        <ele>189.4</ele>
        <time>2015-06-10T11:48:11.000Z</time>
      </trkpt>
      <trkpt lat="43.71217" lon="1.03383">
        <ele>189.6</ele>
        <time>2015-06-10T11:48:19.000Z</time>
      </trkpt>
      <trkpt lat="43.71214" lon="1.03395">
        <ele>189.8</ele>
        <time>2015-06-10T11:48:27.000Z</time>
      </trkpt>
      <trkpt lat="43.7121" lon="1.03407">
        <ele>190.1</ele>
        <time>2015-06-10T11:48:36.000Z</time>
      </trkpt>
      <trkpt lat="43.71206" lon="1.0342">
        <ele>190.2</ele>
        <time>2015-06-10T11:48:45.000Z</time>
      </trkpt>
      <trkpt lat="43.71203" lon="1.03433">
        <ele>190.2</ele>
        <time>2015-06-10T11:48:54.000Z</time>
      </trkpt>
      <trkpt lat="43.712" lon="1.03446">
        <ele>190.5</ele>
        <time>2015-06-10T11:49:03.000Z</time>
      </trkpt>
      <trkpt lat="43.71197" lon="1.03458">
        <ele>190.8</ele>
        <time>2015-06-10T11:49:12.000Z</time>
      </trkpt>
      <trkpt lat="43.71194" lon="1.0347">
        <ele>191.1</ele>
        <time>2015-06-10T11:49:20.000Z</time>
      </trkpt>
      <trkpt lat="43.7119" lon="1.03484">
        <ele>191.4</ele>
        <time>2015-06-10T11:49:28.000Z</time>
      </trkpt>
      <trkpt lat="43.71186" lon="1.03495">
        <ele>191.8</ele>
        <time>2015-06-10T11:49:35.000Z</time>
      </trkpt>
      <trkpt lat="43.71181" lon="1.03507">
        <ele>192.2</ele>
        <time>2015-06-10T11:49:44.000Z</time>
      </trkpt>
      <trkpt lat="43.71178" lon="1.0352">
        <ele>192.7</ele>
        <time>2015-06-10T11:49:53.000Z</time>
      </trkpt>
      <trkpt lat="43.71174" lon="1.03532">
        <ele>193.2</ele>
        <time>2015-06-10T11:50:01.000Z</time>
      </trkpt>
      <trkpt lat="43.71169" lon="1.03545">
        <ele>193.7</ele>
        <time>2015-06-10T11:50:09.000Z</time>
      </trkpt>
      <trkpt lat="43.71165" lon="1.03557">
        <ele>194.1</ele>
        <time>2015-06-10T11:50:17.000Z</time>
      </trkpt>
      <trkpt lat="43.7116" lon="1.03569">
        <ele>194.7</ele>
        <time>2015-06-10T11:50:25.000Z</time>
      </trkpt>
      <trkpt lat="43.71157" lon="1.03582">
        <ele>195.5</ele>
        <time>2015-06-10T11:50:34.000Z</time>
      </trkpt>
      <trkpt lat="43.71154" lon="1.03594">
        <ele>196.1</ele>
        <time>2015-06-10T11:50:42.000Z</time>
      </trkpt>
      <trkpt lat="43.71151" lon="1.03607">
        <ele>196.7</ele>
        <time>2015-06-10T11:50:50.000Z</time>
      </trkpt>
      <trkpt lat="43.71145" lon="1.03619">
        <ele>197.3</ele>
        <time>2015-06-10T11:50:58.000Z</time>
      </trkpt>
      <trkpt lat="43.71138" lon="1.03626">
        <ele>197.7</ele>
        <time>2015-06-10T11:51:05.000Z</time>
      </trkpt>
      <trkpt lat="43.71134" lon="1.03638">
        <ele>198.2</ele>
        <time>2015-06-10T11:51:15.000Z</time>
      </trkpt>
      <trkpt lat="43.71132" lon="1.03651">
        <ele>199</ele>
        <time>2015-06-10T11:51:25.000Z</time>
      </trkpt>
      <trkpt lat="43.71128" lon="1.03664">
        <ele>199.3</ele>
        <time>2015-06-10T11:51:32.000Z</time>
      </trkpt>
      <trkpt lat="43.71123" lon="1.03675">
        <ele>199.4</ele>
        <time>2015-06-10T11:51:40.000Z</time>
      </trkpt>
      <trkpt lat="43.71115" lon="1.03682">
        <ele>199.6</ele>
        <time>2015-06-10T11:51:46.000Z</time>
      </trkpt>
      <trkpt lat="43.71108" lon="1.03692">
        <ele>199.9</ele>
        <time>2015-06-10T11:51:54.000Z</time>
      </trkpt>
      <trkpt lat="43.71103" lon="1.03703">
        <ele>200.1</ele>
        <time>2015-06-10T11:52:01.000Z</time>
      </trkpt>
      <trkpt lat="43.71098" lon="1.03715">
        <ele>200.3</ele>
        <time>2015-06-10T11:52:08.000Z</time>
      </trkpt>
      <trkpt lat="43.71094" lon="1.03729">
        <ele>200.3</ele>
        <time>2015-06-10T11:52:15.000Z</time>
      </trkpt>
      <trkpt lat="43.71092" lon="1.03743">
        <ele>200.5</ele>
        <time>2015-06-10T11:52:22.000Z</time>
      </trkpt>
      <trkpt lat="43.71088" lon="1.03756">
        <ele>200.9</ele>
        <time>2015-06-10T11:52:31.000Z</time>
      </trkpt>
      <trkpt lat="43.71086" lon="1.03769">
        <ele>201</ele>
        <time>2015-06-10T11:52:38.000Z</time>
      </trkpt>
      <trkpt lat="43.71082" lon="1.03781">
        <ele>201.2</ele>
        <time>2015-06-10T11:52:45.000Z</time>
      </trkpt>
      <trkpt lat="43.7108" lon="1.03795">
        <ele>201</ele>
        <time>2015-06-10T11:52:52.000Z</time>
      </trkpt>
      <trkpt lat="43.71071" lon="1.03801">
        <ele>201</ele>
        <time>2015-06-10T11:52:59.000Z</time>
      </trkpt>
      <trkpt lat="43.71066" lon="1.03812">
        <ele>201</ele>
        <time>2015-06-10T11:53:07.000Z</time>
      </trkpt>
      <trkpt lat="43.71059" lon="1.03823">
        <ele>201.2</ele>
        <time>2015-06-10T11:53:14.000Z</time>
      </trkpt>
      <trkpt lat="43.71055" lon="1.03834">
        <ele>201.2</ele>
        <time>2015-06-10T11:53:19.000Z</time>
      </trkpt>
      <trkpt lat="43.71053" lon="1.03847">
        <ele>201.4</ele>
        <time>2015-06-10T11:53:28.000Z</time>
      </trkpt>
      <trkpt lat="43.71048" lon="1.03857">
        <ele>201.7</ele>
        <time>2015-06-10T11:53:37.000Z</time>
      </trkpt>
      <trkpt lat="43.71043" lon="1.03868">
        <ele>201.5</ele>
        <time>2015-06-10T11:53:45.000Z</time>
      </trkpt>
      <trkpt lat="43.71036" lon="1.03879">
        <ele>201.5</ele>
        <time>2015-06-10T11:53:54.000Z</time>
      </trkpt>
      <trkpt lat="43.71034" lon="1.03892">
        <ele>201.6</ele>
        <time>2015-06-10T11:54:03.000Z</time>
      </trkpt>
      <trkpt lat="43.71034" lon="1.03906">
        <ele>201.7</ele>
        <time>2015-06-10T11:54:11.000Z</time>
      </trkpt>
      <trkpt lat="43.71034" lon="1.03919">
        <ele>202.1</ele>
        <time>2015-06-10T11:54:19.000Z</time>
      </trkpt>
      <trkpt lat="43.71029" lon="1.0393">
        <ele>202.2</ele>
        <time>2015-06-10T11:54:28.000Z</time>
      </trkpt>
      <trkpt lat="43.71025" lon="1.03942">
        <ele>202.5</ele>
        <time>2015-06-10T11:54:36.000Z</time>
      </trkpt>
      <trkpt lat="43.7102" lon="1.03953">
        <ele>202.8</ele>
        <time>2015-06-10T11:54:44.000Z</time>
      </trkpt>
      <trkpt lat="43.71014" lon="1.03965">
        <ele>202.7</ele>
        <time>2015-06-10T11:54:53.000Z</time>
      </trkpt>
      <trkpt lat="43.71009" lon="1.03976">
        <ele>202.7</ele>
        <time>2015-06-10T11:55:02.000Z</time>
      </trkpt>
      <trkpt lat="43.71006" lon="1.03989">
        <ele>202.8</ele>
        <time>2015-06-10T11:55:10.000Z</time>
      </trkpt>
      <trkpt lat="43.71003" lon="1.04001">
        <ele>202.3</ele>
        <time>2015-06-10T11:55:18.000Z</time>
      </trkpt>
      <trkpt lat="43.71" lon="1.04013">
        <ele>202.2</ele>
        <time>2015-06-10T11:55:25.000Z</time>
      </trkpt>
      <trkpt lat="43.70995" lon="1.04024">
        <ele>202</ele>
        <time>2015-06-10T11:55:32.000Z</time>
      </trkpt>
      <trkpt lat="43.70991" lon="1.04037">
        <ele>201.6</ele>
        <time>2015-06-10T11:55:40.000Z</time>
      </trkpt>
      <trkpt lat="43.70987" lon="1.04049">
        <ele>201.3</ele>
        <time>2015-06-10T11:55:47.000Z</time>
      </trkpt>
      <trkpt lat="43.70982" lon="1.04061">
        <ele>201.4</ele>
        <time>2015-06-10T11:55:55.000Z</time>
      </trkpt>
      <trkpt lat="43.70973" lon="1.04067">
        <ele>201.2</ele>
        <time>2015-06-10T11:56:02.000Z</time>
      </trkpt>
      <trkpt lat="43.70967" lon="1.04077">
        <ele>200.6</ele>
        <time>2015-06-10T11:56:10.000Z</time>
      </trkpt>
      <trkpt lat="43.7096" lon="1.04086">
        <ele>200.1</ele>
        <time>2015-06-10T11:56:18.000Z</time>
      </trkpt>
      <trkpt lat="43.70952" lon="1.04095">
        <ele>199.7</ele>
        <time>2015-06-10T11:56:25.000Z</time>
      </trkpt>
      <trkpt lat="43.70945" lon="1.04105">
        <ele>199.6</ele>
        <time>2015-06-10T11:56:35.000Z</time>
      </trkpt>
      <trkpt lat="43.70938" lon="1.04113">
        <ele>199</ele>
        <time>2015-06-10T11:56:45.000Z</time>
      </trkpt>
      <trkpt lat="43.70931" lon="1.04122">
        <ele>199</ele>
        <time>2015-06-10T11:56:53.000Z</time>
      </trkpt>
      <trkpt lat="43.70921" lon="1.04127">
        <ele>199</ele>
        <time>2015-06-10T11:57:03.000Z</time>
      </trkpt>
      <trkpt lat="43.70912" lon="1.04122">
        <ele>199.4</ele>
        <time>2015-06-10T11:57:12.000Z</time>
      </trkpt>
      <trkpt lat="43.70904" lon="1.04116">
        <ele>199.7</ele>
        <time>2015-06-10T11:57:21.000Z</time>
      </trkpt>
      <trkpt lat="43.70895" lon="1.04111">
        <ele>200.1</ele>
        <time>2015-06-10T11:57:30.000Z</time>
      </trkpt>
      <trkpt lat="43.70886" lon="1.04105">
        <ele>200.2</ele>
        <time>2015-06-10T11:57:38.000Z</time>
      </trkpt>
      <trkpt lat="43.70877" lon="1.04101">
        <ele>200.4</ele>
        <time>2015-06-10T11:57:46.000Z</time>
      </trkpt>
      <trkpt lat="43.70867" lon="1.04097">
        <ele>201.1</ele>
        <time>2015-06-10T11:57:55.000Z</time>
      </trkpt>
      <trkpt lat="43.70858" lon="1.04093">
        <ele>201.6</ele>
        <time>2015-06-10T11:58:02.000Z</time>
      </trkpt>
      <trkpt lat="43.70849" lon="1.04089">
        <ele>201.8</ele>
        <time>2015-06-10T11:58:09.000Z</time>
      </trkpt>
      <trkpt lat="43.7084" lon="1.04089">
        <ele>202.3</ele>
        <time>2015-06-10T11:58:18.000Z</time>
      </trkpt>
      <trkpt lat="43.70831" lon="1.04084">
        <ele>202.5</ele>
        <time>2015-06-10T12:00:01.000Z</time>
      </trkpt>
      <trkpt lat="43.70821" lon="1.04079">
        <ele>202.3</ele>
        <time>2015-06-10T12:00:11.000Z</time>
      </trkpt>
      <trkpt lat="43.70812" lon="1.04075">
        <ele>202.9</ele>
        <time>2015-06-10T12:00:20.000Z</time>
      </trkpt>
      <trkpt lat="43.70802" lon="1.04071">
        <ele>203.9</ele>
        <time>2015-06-10T12:00:29.000Z</time>
      </trkpt>
      <trkpt lat="43.70793" lon="1.04066">
        <ele>204.5</ele>
        <time>2015-06-10T12:00:38.000Z</time>
      </trkpt>
      <trkpt lat="43.70784" lon="1.04062">
        <ele>205.2</ele>
        <time>2015-06-10T12:00:46.000Z</time>
      </trkpt>
      <trkpt lat="43.70775" lon="1.04058">
        <ele>205.8</ele>
        <time>2015-06-10T12:00:55.000Z</time>
      </trkpt>
      <trkpt lat="43.70767" lon="1.04051">
        <ele>206.1</ele>
        <time>2015-06-10T12:01:04.000Z</time>
      </trkpt>
      <trkpt lat="43.70759" lon="1.04045">
        <ele>205.7</ele>
        <time>2015-06-10T12:01:16.000Z</time>
      </trkpt>
      <trkpt lat="43.70751" lon="1.04038">
        <ele>205.2</ele>
        <time>2015-06-10T12:01:25.000Z</time>
      </trkpt>
      <trkpt lat="43.70743" lon="1.04031">
        <ele>204</ele>
        <time>2015-06-10T12:01:35.000Z</time>
      </trkpt>
      <trkpt lat="43.70734" lon="1.04024">
        <ele>202.5</ele>
        <time>2015-06-10T12:01:44.000Z</time>
      </trkpt>
      <trkpt lat="43.70726" lon="1.04017">
        <ele>201</ele>
        <time>2015-06-10T12:01:52.000Z</time>
      </trkpt>
      <trkpt lat="43.70717" lon="1.04012">
        <ele>199.6</ele>
        <time>2015-06-10T12:02:00.000Z</time>
      </trkpt>
      <trkpt lat="43.70708" lon="1.04006">
        <ele>197.7</ele>
        <time>2015-06-10T12:02:08.000Z</time>
      </trkpt>
      <trkpt lat="43.70699" lon="1.04003">
        <ele>196.5</ele>
        <time>2015-06-10T12:02:15.000Z</time>
      </trkpt>
      <trkpt lat="43.70689" lon="1.04001">
        <ele>195.1</ele>
        <time>2015-06-10T12:02:22.000Z</time>
      </trkpt>
      <trkpt lat="43.70681" lon="1.03993">
        <ele>193.2</ele>
        <time>2015-06-10T12:02:31.000Z</time>
      </trkpt>
      <trkpt lat="43.70673" lon="1.03987">
        <ele>191.6</ele>
        <time>2015-06-10T12:02:39.000Z</time>
      </trkpt>
      <trkpt lat="43.70664" lon="1.0398">
        <ele>190.2</ele>
        <time>2015-06-10T12:02:47.000Z</time>
      </trkpt>
      <trkpt lat="43.70657" lon="1.03973">
        <ele>188.9</ele>
        <time>2015-06-10T12:02:55.000Z</time>
      </trkpt>
      <trkpt lat="43.70649" lon="1.03967">
        <ele>187.4</ele>
        <time>2015-06-10T12:03:03.000Z</time>
      </trkpt>
      <trkpt lat="43.7064" lon="1.03961">
        <ele>186.2</ele>
        <time>2015-06-10T12:03:11.000Z</time>
      </trkpt>
      <trkpt lat="43.70632" lon="1.03956">
        <ele>185.2</ele>
        <time>2015-06-10T12:03:19.000Z</time>
      </trkpt>
      <trkpt lat="43.70623" lon="1.0395">
        <ele>184.2</ele>
        <time>2015-06-10T12:03:28.000Z</time>
      </trkpt>
      <trkpt lat="43.70614" lon="1.03943">
        <ele>182.5</ele>
        <time>2015-06-10T12:03:36.000Z</time>
      </trkpt>
      <trkpt lat="43.70604" lon="1.03938">
        <ele>181.5</ele>
        <time>2015-06-10T12:03:45.000Z</time>
      </trkpt>
      <trkpt lat="43.70595" lon="1.03934">
        <ele>180.4</ele>
        <time>2015-06-10T12:03:52.000Z</time>
      </trkpt>
      <trkpt lat="43.70587" lon="1.0393">
        <ele>179.3</ele>
        <time>2015-06-10T12:03:59.000Z</time>
      </trkpt>
      <trkpt lat="43.70578" lon="1.03926">
        <ele>178.5</ele>
        <time>2015-06-10T12:04:06.000Z</time>
      </trkpt>
      <trkpt lat="43.70567" lon="1.03924">
        <ele>177.8</ele>
        <time>2015-06-10T12:04:12.000Z</time>
      </trkpt>
      <trkpt lat="43.7056" lon="1.03916">
        <ele>176.8</ele>
        <time>2015-06-10T12:04:21.000Z</time>
      </trkpt>
      <trkpt lat="43.70552" lon="1.03909">
        <ele>176.3</ele>
        <time>2015-06-10T12:04:29.000Z</time>
      </trkpt>
      <trkpt lat="43.70542" lon="1.03905">
        <ele>175.1</ele>
        <time>2015-06-10T12:04:36.000Z</time>
      </trkpt>
      <trkpt lat="43.70533" lon="1.039">
        <ele>174.3</ele>
        <time>2015-06-10T12:04:44.000Z</time>
      </trkpt>
      <trkpt lat="43.70525" lon="1.03893">
        <ele>172.5</ele>
        <time>2015-06-10T12:04:52.000Z</time>
      </trkpt>
      <trkpt lat="43.70516" lon="1.03888">
        <ele>171.3</ele>
        <time>2015-06-10T12:04:59.000Z</time>
      </trkpt>
      <trkpt lat="43.70509" lon="1.0388">
        <ele>169.1</ele>
        <time>2015-06-10T12:05:08.000Z</time>
      </trkpt>
      <trkpt lat="43.70501" lon="1.03887">
        <ele>168.2</ele>
        <time>2015-06-10T12:05:18.000Z</time>
      </trkpt>
      <trkpt lat="43.70499" lon="1.039">
        <ele>167.6</ele>
        <time>2015-06-10T12:05:25.000Z</time>
      </trkpt>
      <trkpt lat="43.70498" lon="1.03914">
        <ele>167.2</ele>
        <time>2015-06-10T12:05:33.000Z</time>
      </trkpt>
      <trkpt lat="43.70494" lon="1.03926">
        <ele>166.7</ele>
        <time>2015-06-10T12:05:42.000Z</time>
      </trkpt>
      <trkpt lat="43.7049" lon="1.03938">
        <ele>166.7</ele>
        <time>2015-06-10T12:05:50.000Z</time>
      </trkpt>
      <trkpt lat="43.70484" lon="1.03948">
        <ele>166.6</ele>
        <time>2015-06-10T12:05:58.000Z</time>
      </trkpt>
      <trkpt lat="43.70478" lon="1.03959">
        <ele>166.8</ele>
        <time>2015-06-10T12:06:06.000Z</time>
      </trkpt>
      <trkpt lat="43.70472" lon="1.03968">
        <ele>166.8</ele>
        <time>2015-06-10T12:06:14.000Z</time>
      </trkpt>
      <trkpt lat="43.70462" lon="1.03962">
        <ele>166.8</ele>
        <time>2015-06-10T12:06:19.000Z</time>
      </trkpt>
      <trkpt lat="43.70453" lon="1.03959">
        <ele>167.3</ele>
        <time>2015-06-10T12:06:24.000Z</time>
      </trkpt>
      <trkpt lat="43.70445" lon="1.03951">
        <ele>167.2</ele>
        <time>2015-06-10T12:06:30.000Z</time>
      </trkpt>
      <trkpt lat="43.70436" lon="1.0395">
        <ele>167.2</ele>
        <time>2015-06-10T12:06:39.000Z</time>
      </trkpt>
      <trkpt lat="43.70426" lon="1.03948">
        <ele>167.6</ele>
        <time>2015-06-10T12:06:48.000Z</time>
      </trkpt>
      <trkpt lat="43.70418" lon="1.0394">
        <ele>168.1</ele>
        <time>2015-06-10T12:06:59.000Z</time>
      </trkpt>
      <trkpt lat="43.70409" lon="1.03935">
        <ele>168.6</ele>
        <time>2015-06-10T12:07:08.000Z</time>
      </trkpt>
      <trkpt lat="43.70401" lon="1.03929">
        <ele>169.5</ele>
        <time>2015-06-10T12:07:19.000Z</time>
      </trkpt>
      <trkpt lat="43.70392" lon="1.03924">
        <ele>170.7</ele>
        <time>2015-06-10T12:07:29.000Z</time>
      </trkpt>
      <trkpt lat="43.70384" lon="1.03918">
        <ele>172</ele>
        <time>2015-06-10T12:07:39.000Z</time>
      </trkpt>
      <trkpt lat="43.70376" lon="1.03911">
        <ele>173.2</ele>
        <time>2015-06-10T12:07:48.000Z</time>
      </trkpt>
      <trkpt lat="43.70367" lon="1.03906">
        <ele>174.2</ele>
        <time>2015-06-10T12:07:57.000Z</time>
      </trkpt>
      <trkpt lat="43.70358" lon="1.03901">
        <ele>175</ele>
        <time>2015-06-10T12:08:06.000Z</time>
      </trkpt>
      <trkpt lat="43.70349" lon="1.03896">
        <ele>176</ele>
        <time>2015-06-10T12:08:14.000Z</time>
      </trkpt>
      <trkpt lat="43.70339" lon="1.03893">
        <ele>176.9</ele>
        <time>2015-06-10T12:08:22.000Z</time>
      </trkpt>
      <trkpt lat="43.7033" lon="1.0389">
        <ele>177.9</ele>
        <time>2015-06-10T12:08:30.000Z</time>
      </trkpt>
      <trkpt lat="43.70321" lon="1.03886">
        <ele>178.8</ele>
        <time>2015-06-10T12:08:38.000Z</time>
      </trkpt>
      <trkpt lat="43.70313" lon="1.03879">
        <ele>180.2</ele>
        <time>2015-06-10T12:08:48.000Z</time>
      </trkpt>
      <trkpt lat="43.70304" lon="1.03874">
        <ele>181.6</ele>
        <time>2015-06-10T12:08:57.000Z</time>
      </trkpt>
      <trkpt lat="43.70295" lon="1.03868">
        <ele>182.7</ele>
        <time>2015-06-10T12:09:06.000Z</time>
      </trkpt>
      <trkpt lat="43.70286" lon="1.03863">
        <ele>184.3</ele>
        <time>2015-06-10T12:09:16.000Z</time>
      </trkpt>
      <trkpt lat="43.70277" lon="1.03858">
        <ele>185.9</ele>
        <time>2015-06-10T12:09:25.000Z</time>
      </trkpt>
      <trkpt lat="43.70268" lon="1.03854">
        <ele>187.4</ele>
        <time>2015-06-10T12:09:35.000Z</time>
      </trkpt>
      <trkpt lat="43.70258" lon="1.03855">
        <ele>189.2</ele>
        <time>2015-06-10T12:09:46.000Z</time>
      </trkpt>
      <trkpt lat="43.70266" lon="1.03845">
        <ele>191.6</ele>
        <time>2015-06-10T12:12:49.000Z</time>
      </trkpt>
      <trkpt lat="43.70257" lon="1.03847">
        <ele>192.1</ele>
        <time>2015-06-10T12:15:03.000Z</time>
      </trkpt>
      <trkpt lat="43.70248" lon="1.03852">
        <ele>192</ele>
        <time>2015-06-10T12:15:11.000Z</time>
      </trkpt>
      <trkpt lat="43.70238" lon="1.03857">
        <ele>192.4</ele>
        <time>2015-06-10T12:15:20.000Z</time>
      </trkpt>
      <trkpt lat="43.70229" lon="1.03856">
        <ele>192.8</ele>
        <time>2015-06-10T12:15:28.000Z</time>
      </trkpt>
      <trkpt lat="43.7022" lon="1.03857">
        <ele>193.1</ele>
        <time>2015-06-10T12:15:35.000Z</time>
      </trkpt>
      <trkpt lat="43.70211" lon="1.03855">
        <ele>193.3</ele>
        <time>2015-06-10T12:15:42.000Z</time>
      </trkpt>
      <trkpt lat="43.70201" lon="1.03853">
        <ele>193.6</ele>
        <time>2015-06-10T12:15:50.000Z</time>
      </trkpt>
      <trkpt lat="43.70192" lon="1.03851">
        <ele>194.1</ele>
        <time>2015-06-10T12:15:58.000Z</time>
      </trkpt>
      <trkpt lat="43.70183" lon="1.03844">
        <ele>194.4</ele>
        <time>2015-06-10T12:16:05.000Z</time>
      </trkpt>
      <trkpt lat="43.70173" lon="1.03841">
        <ele>194.9</ele>
        <time>2015-06-10T12:16:13.000Z</time>
      </trkpt>
      <trkpt lat="43.70164" lon="1.03836">
        <ele>195.4</ele>
        <time>2015-06-10T12:16:21.000Z</time>
      </trkpt>
      <trkpt lat="43.70155" lon="1.03832">
        <ele>196.1</ele>
        <time>2015-06-10T12:16:29.000Z</time>
      </trkpt>
      <trkpt lat="43.70145" lon="1.03828">
        <ele>196.7</ele>
        <time>2015-06-10T12:16:37.000Z</time>
      </trkpt>
      <trkpt lat="43.70137" lon="1.03833">
        <ele>197.5</ele>
        <time>2015-06-10T12:16:46.000Z</time>
      </trkpt>
      <trkpt lat="43.70128" lon="1.03837">
        <ele>198.4</ele>
        <time>2015-06-10T12:16:53.000Z</time>
      </trkpt>
      <trkpt lat="43.70119" lon="1.03841">
        <ele>198.8</ele>
        <time>2015-06-10T12:17:00.000Z</time>
      </trkpt>
      <trkpt lat="43.7011" lon="1.03839">
        <ele>199.6</ele>
        <time>2015-06-10T12:17:07.000Z</time>
      </trkpt>
      <trkpt lat="43.70101" lon="1.03835">
        <ele>200.5</ele>
        <time>2015-06-10T12:17:15.000Z</time>
      </trkpt>
      <trkpt lat="43.70091" lon="1.03831">
        <ele>201.1</ele>
        <time>2015-06-10T12:17:23.000Z</time>
      </trkpt>
      <trkpt lat="43.70083" lon="1.03826">
        <ele>201.8</ele>
        <time>2015-06-10T12:17:31.000Z</time>
      </trkpt>
      <trkpt lat="43.70074" lon="1.03823">
        <ele>202.5</ele>
        <time>2015-06-10T12:17:39.000Z</time>
      </trkpt>
      <trkpt lat="43.70065" lon="1.03818">
        <ele>203.3</ele>
        <time>2015-06-10T12:17:47.000Z</time>
      </trkpt>
      <trkpt lat="43.70056" lon="1.03812">
        <ele>204</ele>
        <time>2015-06-10T12:17:55.000Z</time>
      </trkpt>
      <trkpt lat="43.70049" lon="1.03805">
        <ele>204.5</ele>
        <time>2015-06-10T12:18:02.000Z</time>
      </trkpt>
      <trkpt lat="43.70042" lon="1.03796">
        <ele>205</ele>
        <time>2015-06-10T12:18:09.000Z</time>
      </trkpt>
      <trkpt lat="43.70033" lon="1.0379">
        <ele>205.2</ele>
        <time>2015-06-10T12:18:19.000Z</time>
      </trkpt>
      <trkpt lat="43.70023" lon="1.03789">
        <ele>205</ele>
        <time>2015-06-10T12:18:30.000Z</time>
      </trkpt>
      <trkpt lat="43.70013" lon="1.03788">
        <ele>204.5</ele>
        <time>2015-06-10T12:18:39.000Z</time>
      </trkpt>
      <trkpt lat="43.70008" lon="1.03777">
        <ele>203.4</ele>
        <time>2015-06-10T12:18:50.000Z</time>
      </trkpt>
      <trkpt lat="43.70013" lon="1.03765">
        <ele>203.1</ele>
        <time>2015-06-10T12:18:59.000Z</time>
      </trkpt>
      <trkpt lat="43.70018" lon="1.03755">
        <ele>202.4</ele>
        <time>2015-06-10T12:19:07.000Z</time>
      </trkpt>
      <trkpt lat="43.70023" lon="1.03743">
        <ele>202.1</ele>
        <time>2015-06-10T12:19:15.000Z</time>
      </trkpt>
      <trkpt lat="43.70028" lon="1.03732">
        <ele>202</ele>
        <time>2015-06-10T12:19:23.000Z</time>
      </trkpt>
      <trkpt lat="43.70034" lon="1.03722">
        <ele>201.6</ele>
        <time>2015-06-10T12:19:31.000Z</time>
      </trkpt>
      <trkpt lat="43.70039" lon="1.03711">
        <ele>200.9</ele>
        <time>2015-06-10T12:19:39.000Z</time>
      </trkpt>
      <trkpt lat="43.70045" lon="1.037">
        <ele>200.4</ele>
        <time>2015-06-10T12:19:48.000Z</time>
      </trkpt>
      <trkpt lat="43.70052" lon="1.0369">
        <ele>199.7</ele>
        <time>2015-06-10T12:19:56.000Z</time>
      </trkpt>
      <trkpt lat="43.70057" lon="1.03679">
        <ele>199</ele>
        <time>2015-06-10T12:20:04.000Z</time>
      </trkpt>
      <trkpt lat="43.70062" lon="1.03666">
        <ele>198.3</ele>
        <time>2015-06-10T12:20:12.000Z</time>
      </trkpt>
      <trkpt lat="43.70067" lon="1.03655">
        <ele>197.9</ele>
        <time>2015-06-10T12:20:20.000Z</time>
      </trkpt>
      <trkpt lat="43.70057" lon="1.03654">
        <ele>195.9</ele>
        <time>2015-06-10T12:20:49.000Z</time>
      </trkpt>
      <trkpt lat="43.70048" lon="1.03661">
        <ele>195.4</ele>
        <time>2015-06-10T12:20:59.000Z</time>
      </trkpt>
      <trkpt lat="43.70039" lon="1.03657">
        <ele>195</ele>
        <time>2015-06-10T12:21:09.000Z</time>
      </trkpt>
      <trkpt lat="43.70033" lon="1.03646">
        <ele>194.7</ele>
        <time>2015-06-10T12:21:17.000Z</time>
      </trkpt>
      <trkpt lat="43.70028" lon="1.03635">
        <ele>193.8</ele>
        <time>2015-06-10T12:21:24.000Z</time>
      </trkpt>
      <trkpt lat="43.70022" lon="1.03626">
        <ele>193.5</ele>
        <time>2015-06-10T12:21:32.000Z</time>
      </trkpt>
      <trkpt lat="43.70015" lon="1.03616">
        <ele>193</ele>
        <time>2015-06-10T12:21:40.000Z</time>
      </trkpt>
      <trkpt lat="43.70008" lon="1.03608">
        <ele>192.6</ele>
        <time>2015-06-10T12:21:47.000Z</time>
      </trkpt>
      <trkpt lat="43.70001" lon="1.03599">
        <ele>192</ele>
        <time>2015-06-10T12:21:53.000Z</time>
      </trkpt>
      <trkpt lat="43.69996" lon="1.03587">
        <ele>191.2</ele>
        <time>2015-06-10T12:22:00.000Z</time>
      </trkpt>
      <trkpt lat="43.69996" lon="1.03573">
        <ele>190.5</ele>
        <time>2015-06-10T12:22:09.000Z</time>
      </trkpt>
      <trkpt lat="43.7" lon="1.03562">
        <ele>190.1</ele>
        <time>2015-06-10T12:22:17.000Z</time>
      </trkpt>
      <trkpt lat="43.70003" lon="1.03548">
        <ele>189.9</ele>
        <time>2015-06-10T12:22:25.000Z</time>
      </trkpt>
      <trkpt lat="43.70006" lon="1.03535">
        <ele>189.6</ele>
        <time>2015-06-10T12:22:33.000Z</time>
      </trkpt>
      <trkpt lat="43.7001" lon="1.03522">
        <ele>189.1</ele>
        <time>2015-06-10T12:22:42.000Z</time>
      </trkpt>
      <trkpt lat="43.70012" lon="1.03509">
        <ele>188.8</ele>
        <time>2015-06-10T12:22:50.000Z</time>
      </trkpt>
      <trkpt lat="43.70014" lon="1.03496">
        <ele>188.4</ele>
        <time>2015-06-10T12:22:58.000Z</time>
      </trkpt>
      <trkpt lat="43.70014" lon="1.03484">
        <ele>188.1</ele>
        <time>2015-06-10T12:23:06.000Z</time>
      </trkpt>
      <trkpt lat="43.70011" lon="1.03471">
        <ele>188.1</ele>
        <time>2015-06-10T12:23:16.000Z</time>
      </trkpt>
      <trkpt lat="43.70004" lon="1.03462">
        <ele>188.2</ele>
        <time>2015-06-10T12:23:27.000Z</time>
      </trkpt>
      <trkpt lat="43.69997" lon="1.03455">
        <ele>188.3</ele>
        <time>2015-06-10T12:23:35.000Z</time>
      </trkpt>
      <trkpt lat="43.69988" lon="1.03449">
        <ele>188.7</ele>
        <time>2015-06-10T12:23:44.000Z</time>
      </trkpt>
      <trkpt lat="43.69981" lon="1.0344">
        <ele>189.3</ele>
        <time>2015-06-10T12:23:53.000Z</time>
      </trkpt>
      <trkpt lat="43.69975" lon="1.03429">
        <ele>189.8</ele>
        <time>2015-06-10T12:24:02.000Z</time>
      </trkpt>
      <trkpt lat="43.69971" lon="1.03417">
        <ele>190.3</ele>
        <time>2015-06-10T12:24:11.000Z</time>
      </trkpt>
      <trkpt lat="43.6997" lon="1.03404">
        <ele>191.2</ele>
        <time>2015-06-10T12:24:20.000Z</time>
      </trkpt>
      <trkpt lat="43.69969" lon="1.03391">
        <ele>192</ele>
        <time>2015-06-10T12:24:30.000Z</time>
      </trkpt>
      <trkpt lat="43.69964" lon="1.03381">
        <ele>192.9</ele>
        <time>2015-06-10T12:24:41.000Z</time>
      </trkpt>
      <trkpt lat="43.69955" lon="1.03373">
        <ele>193.6</ele>
        <time>2015-06-10T12:24:51.000Z</time>
      </trkpt>
      <trkpt lat="43.69948" lon="1.03367">
        <ele>194.1</ele>
        <time>2015-06-10T12:25:01.000Z</time>
      </trkpt>
      <trkpt lat="43.69939" lon="1.0336">
        <ele>194.7</ele>
        <time>2015-06-10T12:25:09.000Z</time>
      </trkpt>
      <trkpt lat="43.69932" lon="1.03352">
        <ele>195.3</ele>
        <time>2015-06-10T12:25:18.000Z</time>
      </trkpt>
      <trkpt lat="43.69924" lon="1.03344">
        <ele>196</ele>
        <time>2015-06-10T12:25:28.000Z</time>
      </trkpt>
      <trkpt lat="43.69918" lon="1.03334">
        <ele>196.5</ele>
        <time>2015-06-10T12:25:37.000Z</time>
      </trkpt>
      <trkpt lat="43.69914" lon="1.03322">
        <ele>197.2</ele>
        <time>2015-06-10T12:25:45.000Z</time>
      </trkpt>
      <trkpt lat="43.6991" lon="1.0331">
        <ele>197.6</ele>
        <time>2015-06-10T12:25:53.000Z</time>
      </trkpt>
      <trkpt lat="43.69908" lon="1.03297">
        <ele>198.2</ele>
        <time>2015-06-10T12:26:01.000Z</time>
      </trkpt>
      <trkpt lat="43.69907" lon="1.03284">
        <ele>198.7</ele>
        <time>2015-06-10T12:26:09.000Z</time>
      </trkpt>
      <trkpt lat="43.69906" lon="1.03271">
        <ele>199.5</ele>
        <time>2015-06-10T12:26:19.000Z</time>
      </trkpt>
      <trkpt lat="43.69904" lon="1.03257">
        <ele>200.2</ele>
        <time>2015-06-10T12:26:29.000Z</time>
      </trkpt>
      <trkpt lat="43.69901" lon="1.03245">
        <ele>200.8</ele>
        <time>2015-06-10T12:26:35.000Z</time>
      </trkpt>
      <trkpt lat="43.699" lon="1.03232">
        <ele>201.5</ele>
        <time>2015-06-10T12:26:44.000Z</time>
      </trkpt>
      <trkpt lat="43.69898" lon="1.03219">
        <ele>202.1</ele>
        <time>2015-06-10T12:26:54.000Z</time>
      </trkpt>
      <trkpt lat="43.69894" lon="1.03207">
        <ele>202.7</ele>
        <time>2015-06-10T12:27:04.000Z</time>
      </trkpt>
      <trkpt lat="43.69893" lon="1.03194">
        <ele>203.6</ele>
        <time>2015-06-10T12:27:13.000Z</time>
      </trkpt>
      <trkpt lat="43.69889" lon="1.03182">
        <ele>204.2</ele>
        <time>2015-06-10T12:27:22.000Z</time>
      </trkpt>
      <trkpt lat="43.69886" lon="1.03171">
        <ele>204.5</ele>
        <time>2015-06-10T12:27:30.000Z</time>
      </trkpt>
      <trkpt lat="43.69883" lon="1.03159">
        <ele>204.9</ele>
        <time>2015-06-10T12:27:40.000Z</time>
      </trkpt>
      <trkpt lat="43.69874" lon="1.03152">
        <ele>205.3</ele>
        <time>2015-06-10T12:27:49.000Z</time>
      </trkpt>
      <trkpt lat="43.69865" lon="1.03152">
        <ele>205.9</ele>
        <time>2015-06-10T12:27:58.000Z</time>
      </trkpt>
      <trkpt lat="43.69855" lon="1.03153">
        <ele>206.3</ele>
        <time>2015-06-10T12:28:07.000Z</time>
      </trkpt>
      <trkpt lat="43.69845" lon="1.03153">
        <ele>206.5</ele>
        <time>2015-06-10T12:28:16.000Z</time>
      </trkpt>
      <trkpt lat="43.69835" lon="1.03152">
        <ele>207</ele>
        <time>2015-06-10T12:28:25.000Z</time>
      </trkpt>
      <trkpt lat="43.69826" lon="1.03151">
        <ele>207.1</ele>
        <time>2015-06-10T12:28:34.000Z</time>
      </trkpt>
      <trkpt lat="43.69817" lon="1.03149">
        <ele>207</ele>
        <time>2015-06-10T12:28:42.000Z</time>
      </trkpt>
      <trkpt lat="43.6981" lon="1.03141">
        <ele>205.6</ele>
        <time>2015-06-10T12:31:55.000Z</time>
      </trkpt>
      <trkpt lat="43.69809" lon="1.03128">
        <ele>205.9</ele>
        <time>2015-06-10T12:32:03.000Z</time>
      </trkpt>
      <trkpt lat="43.69808" lon="1.03115">
        <ele>206.2</ele>
        <time>2015-06-10T12:32:14.000Z</time>
      </trkpt>
      <trkpt lat="43.69807" lon="1.03102">
        <ele>206.5</ele>
        <time>2015-06-10T12:32:21.000Z</time>
      </trkpt>
      <trkpt lat="43.69809" lon="1.03089">
        <ele>205.7</ele>
        <time>2015-06-10T12:32:30.000Z</time>
      </trkpt>
      <trkpt lat="43.69811" lon="1.03076">
        <ele>206.3</ele>
        <time>2015-06-10T12:32:39.000Z</time>
      </trkpt>
      <trkpt lat="43.69812" lon="1.03063">
        <ele>206.5</ele>
        <time>2015-06-10T12:32:49.000Z</time>
      </trkpt>
      <trkpt lat="43.69813" lon="1.03048">
        <ele>206.1</ele>
        <time>2015-06-10T12:32:58.000Z</time>
      </trkpt>
      <trkpt lat="43.69816" lon="1.03036">
        <ele>206</ele>
        <time>2015-06-10T12:33:07.000Z</time>
      </trkpt>
      <trkpt lat="43.69817" lon="1.03023">
        <ele>207</ele>
        <time>2015-06-10T12:33:16.000Z</time>
      </trkpt>
      <trkpt lat="43.69819" lon="1.0301">
        <ele>207.1</ele>
        <time>2015-06-10T12:33:24.000Z</time>
      </trkpt>
      <trkpt lat="43.69818" lon="1.02997">
        <ele>207</ele>
        <time>2015-06-10T12:33:30.000Z</time>
      </trkpt>
      <trkpt lat="43.69818" lon="1.02984">
        <ele>207</ele>
        <time>2015-06-10T12:33:37.000Z</time>
      </trkpt>
      <trkpt lat="43.69818" lon="1.02971">
        <ele>206.9</ele>
        <time>2015-06-10T12:33:44.000Z</time>
      </trkpt>
      <trkpt lat="43.69819" lon="1.02958">
        <ele>207</ele>
        <time>2015-06-10T12:33:51.000Z</time>
      </trkpt>
      <trkpt lat="43.6982" lon="1.02943">
        <ele>206.9</ele>
        <time>2015-06-10T12:34:00.000Z</time>
      </trkpt>
      <trkpt lat="43.69822" lon="1.02931">
        <ele>206.6</ele>
        <time>2015-06-10T12:34:06.000Z</time>
      </trkpt>
      <trkpt lat="43.69824" lon="1.02917">
        <ele>206.5</ele>
        <time>2015-06-10T12:34:14.000Z</time>
      </trkpt>
      <trkpt lat="43.69825" lon="1.02903">
        <ele>206.8</ele>
        <time>2015-06-10T12:34:22.000Z</time>
      </trkpt>
      <trkpt lat="43.69829" lon="1.0289">
        <ele>206.4</ele>
        <time>2015-06-10T12:34:29.000Z</time>
      </trkpt>
      <trkpt lat="43.69831" lon="1.02877">
        <ele>206.4</ele>
        <time>2015-06-10T12:34:37.000Z</time>
      </trkpt>
      <trkpt lat="43.69833" lon="1.02864">
        <ele>206.2</ele>
        <time>2015-06-10T12:34:44.000Z</time>
      </trkpt>
      <trkpt lat="43.69835" lon="1.02852">
        <ele>206.1</ele>
        <time>2015-06-10T12:34:51.000Z</time>
      </trkpt>
      <trkpt lat="43.69837" lon="1.0284">
        <ele>206.1</ele>
        <time>2015-06-10T12:34:58.000Z</time>
      </trkpt>
      <trkpt lat="43.69837" lon="1.02826">
        <ele>205.8</ele>
        <time>2015-06-10T12:35:06.000Z</time>
      </trkpt>
      <trkpt lat="43.6984" lon="1.02813">
        <ele>206</ele>
        <time>2015-06-10T12:35:14.000Z</time>
      </trkpt>
      <trkpt lat="43.69841" lon="1.028">
        <ele>206</ele>
        <time>2015-06-10T12:35:21.000Z</time>
      </trkpt>
      <trkpt lat="43.69843" lon="1.02787">
        <ele>205.9</ele>
        <time>2015-06-10T12:35:29.000Z</time>
      </trkpt>
      <trkpt lat="43.69843" lon="1.02773">
        <ele>205.6</ele>
        <time>2015-06-10T12:35:37.000Z</time>
      </trkpt>
      <trkpt lat="43.69845" lon="1.0276">
        <ele>205.6</ele>
        <time>2015-06-10T12:35:45.000Z</time>
      </trkpt>
      <trkpt lat="43.69847" lon="1.02747">
        <ele>205.6</ele>
        <time>2015-06-10T12:35:53.000Z</time>
      </trkpt>
      <trkpt lat="43.69849" lon="1.02735">
        <ele>205.8</ele>
        <time>2015-06-10T12:36:01.000Z</time>
      </trkpt>
      <trkpt lat="43.69851" lon="1.02722">
        <ele>205.8</ele>
        <time>2015-06-10T12:36:10.000Z</time>
      </trkpt>
      <trkpt lat="43.69853" lon="1.02709">
        <ele>205.7</ele>
        <time>2015-06-10T12:36:19.000Z</time>
      </trkpt>
      <trkpt lat="43.69855" lon="1.02696">
        <ele>206.1</ele>
        <time>2015-06-10T12:36:27.000Z</time>
      </trkpt>
      <trkpt lat="43.69856" lon="1.02683">
        <ele>206.3</ele>
        <time>2015-06-10T12:36:35.000Z</time>
      </trkpt>
      <trkpt lat="43.69858" lon="1.02669">
        <ele>206.5</ele>
        <time>2015-06-10T12:36:43.000Z</time>
      </trkpt>
      <trkpt lat="43.69859" lon="1.02655">
        <ele>206.3</ele>
        <time>2015-06-10T12:36:51.000Z</time>
      </trkpt>
      <trkpt lat="43.6986" lon="1.02642">
        <ele>206.5</ele>
        <time>2015-06-10T12:36:59.000Z</time>
      </trkpt>
      <trkpt lat="43.69861" lon="1.02628">
        <ele>206.7</ele>
        <time>2015-06-10T12:37:07.000Z</time>
      </trkpt>
      <trkpt lat="43.69862" lon="1.02614">
        <ele>206.9</ele>
        <time>2015-06-10T12:37:15.000Z</time>
      </trkpt>
      <trkpt lat="43.69864" lon="1.02602">
        <ele>206.9</ele>
        <time>2015-06-10T12:37:23.000Z</time>
      </trkpt>
      <trkpt lat="43.69865" lon="1.02589">
        <ele>206.8</ele>
        <time>2015-06-10T12:37:31.000Z</time>
      </trkpt>
      <trkpt lat="43.69867" lon="1.02576">
        <ele>206.9</ele>
        <time>2015-06-10T12:37:39.000Z</time>
      </trkpt>
      <trkpt lat="43.69868" lon="1.02563">
        <ele>206.6</ele>
        <time>2015-06-10T12:37:46.000Z</time>
      </trkpt>
      <trkpt lat="43.69869" lon="1.02549">
        <ele>206.4</ele>
        <time>2015-06-10T12:37:54.000Z</time>
      </trkpt>
      <trkpt lat="43.69871" lon="1.02536">
        <ele>206.3</ele>
        <time>2015-06-10T12:38:01.000Z</time>
      </trkpt>
      <trkpt lat="43.69872" lon="1.02524">
        <ele>206.2</ele>
        <time>2015-06-10T12:38:08.000Z</time>
      </trkpt>
      <trkpt lat="43.69875" lon="1.02511">
        <ele>206.2</ele>
        <time>2015-06-10T12:38:15.000Z</time>
      </trkpt>
      <trkpt lat="43.69877" lon="1.02498">
        <ele>206</ele>
        <time>2015-06-10T12:38:22.000Z</time>
      </trkpt>
      <trkpt lat="43.6988" lon="1.02486">
        <ele>205.8</ele>
        <time>2015-06-10T12:38:29.000Z</time>
      </trkpt>
      <trkpt lat="43.69882" lon="1.02474">
        <ele>205.7</ele>
        <time>2015-06-10T12:38:36.000Z</time>
      </trkpt>
      <trkpt lat="43.69884" lon="1.0246">
        <ele>205.4</ele>
        <time>2015-06-10T12:38:44.000Z</time>
      </trkpt>
      <trkpt lat="43.69886" lon="1.02446">
        <ele>205.1</ele>
        <time>2015-06-10T12:38:52.000Z</time>
      </trkpt>
      <trkpt lat="43.69887" lon="1.02433">
        <ele>205</ele>
        <time>2015-06-10T12:38:59.000Z</time>
      </trkpt>
      <trkpt lat="43.69888" lon="1.0242">
        <ele>204.5</ele>
        <time>2015-06-10T12:39:06.000Z</time>
      </trkpt>
      <trkpt lat="43.69889" lon="1.02406">
        <ele>204.4</ele>
        <time>2015-06-10T12:39:14.000Z</time>
      </trkpt>
      <trkpt lat="43.6989" lon="1.02393">
        <ele>204.3</ele>
        <time>2015-06-10T12:39:21.000Z</time>
      </trkpt>
      <trkpt lat="43.69891" lon="1.02379">
        <ele>204.1</ele>
        <time>2015-06-10T12:39:29.000Z</time>
      </trkpt>
      <trkpt lat="43.69891" lon="1.02366">
        <ele>204.1</ele>
        <time>2015-06-10T12:39:36.000Z</time>
      </trkpt>
      <trkpt lat="43.69893" lon="1.02352">
        <ele>204.1</ele>
        <time>2015-06-10T12:39:43.000Z</time>
      </trkpt>
      <trkpt lat="43.69894" lon="1.0234">
        <ele>204</ele>
        <time>2015-06-10T12:39:50.000Z</time>
      </trkpt>
      <trkpt lat="43.69896" lon="1.02326">
        <ele>203.8</ele>
        <time>2015-06-10T12:39:58.000Z</time>
      </trkpt>
      <trkpt lat="43.69898" lon="1.02314">
        <ele>203.8</ele>
        <time>2015-06-10T12:40:05.000Z</time>
      </trkpt>
      <trkpt lat="43.69901" lon="1.02302">
        <ele>203.8</ele>
        <time>2015-06-10T12:40:12.000Z</time>
      </trkpt>
      <trkpt lat="43.69906" lon="1.0229">
        <ele>203.6</ele>
        <time>2015-06-10T12:40:19.000Z</time>
      </trkpt>
      <trkpt lat="43.6991" lon="1.02279">
        <ele>203.3</ele>
        <time>2015-06-10T12:40:26.000Z</time>
      </trkpt>
      <trkpt lat="43.69915" lon="1.02267">
        <ele>203.2</ele>
        <time>2015-06-10T12:40:33.000Z</time>
      </trkpt>
      <trkpt lat="43.69919" lon="1.02255">
        <ele>202.9</ele>
        <time>2015-06-10T12:40:40.000Z</time>
      </trkpt>
      <trkpt lat="43.69923" lon="1.02243">
        <ele>202.6</ele>
        <time>2015-06-10T12:40:48.000Z</time>
      </trkpt>
      <trkpt lat="43.69927" lon="1.02232">
        <ele>202.3</ele>
        <time>2015-06-10T12:40:55.000Z</time>
      </trkpt>
      <trkpt lat="43.6993" lon="1.0222">
        <ele>202.1</ele>
        <time>2015-06-10T12:41:02.000Z</time>
      </trkpt>
      <trkpt lat="43.69936" lon="1.02209">
        <ele>202.4</ele>
        <time>2015-06-10T12:41:10.000Z</time>
      </trkpt>
      <trkpt lat="43.6994" lon="1.02198">
        <ele>202.5</ele>
        <time>2015-06-10T12:41:17.000Z</time>
      </trkpt>
      <trkpt lat="43.69944" lon="1.02186">
        <ele>202.2</ele>
        <time>2015-06-10T12:41:25.000Z</time>
      </trkpt>
      <trkpt lat="43.69948" lon="1.02174">
        <ele>202.2</ele>
        <time>2015-06-10T12:41:33.000Z</time>
      </trkpt>
      <trkpt lat="43.69951" lon="1.02162">
        <ele>202.3</ele>
        <time>2015-06-10T12:41:41.000Z</time>
      </trkpt>
      <trkpt lat="43.69955" lon="1.02149">
        <ele>202.5</ele>
        <time>2015-06-10T12:41:49.000Z</time>
      </trkpt>
      <trkpt lat="43.6996" lon="1.02138">
        <ele>202.5</ele>
        <time>2015-06-10T12:41:57.000Z</time>
      </trkpt>
      <trkpt lat="43.69965" lon="1.02126">
        <ele>202.8</ele>
        <time>2015-06-10T12:42:05.000Z</time>
      </trkpt>
      <trkpt lat="43.6997" lon="1.02114">
        <ele>203</ele>
        <time>2015-06-10T12:42:13.000Z</time>
      </trkpt>
      <trkpt lat="43.69975" lon="1.02103">
        <ele>203</ele>
        <time>2015-06-10T12:42:20.000Z</time>
      </trkpt>
      <trkpt lat="43.69979" lon="1.02092">
        <ele>202.9</ele>
        <time>2015-06-10T12:42:27.000Z</time>
      </trkpt>
      <trkpt lat="43.69985" lon="1.02082">
        <ele>202.8</ele>
        <time>2015-06-10T12:42:35.000Z</time>
      </trkpt>
      <trkpt lat="43.6999" lon="1.02071">
        <ele>202.8</ele>
        <time>2015-06-10T12:42:42.000Z</time>
      </trkpt>
      <trkpt lat="43.69996" lon="1.02061">
        <ele>202.6</ele>
        <time>2015-06-10T12:42:50.000Z</time>
      </trkpt>
      <trkpt lat="43.70002" lon="1.02051">
        <ele>202.5</ele>
        <time>2015-06-10T12:42:58.000Z</time>
      </trkpt>
      <trkpt lat="43.70007" lon="1.0204">
        <ele>202.4</ele>
        <time>2015-06-10T12:43:06.000Z</time>
      </trkpt>
      <trkpt lat="43.70013" lon="1.02028">
        <ele>202.1</ele>
        <time>2015-06-10T12:43:14.000Z</time>
      </trkpt>
      <trkpt lat="43.70019" lon="1.02017">
        <ele>202.2</ele>
        <time>2015-06-10T12:43:22.000Z</time>
      </trkpt>
      <trkpt lat="43.70024" lon="1.02007">
        <ele>201.9</ele>
        <time>2015-06-10T12:43:29.000Z</time>
      </trkpt>
      <trkpt lat="43.70029" lon="1.01996">
        <ele>202</ele>
        <time>2015-06-10T12:43:36.000Z</time>
      </trkpt>
      <trkpt lat="43.70034" lon="1.01984">
        <ele>202</ele>
        <time>2015-06-10T12:43:44.000Z</time>
      </trkpt>
      <trkpt lat="43.7004" lon="1.01972">
        <ele>201.8</ele>
        <time>2015-06-10T12:43:52.000Z</time>
      </trkpt>
      <trkpt lat="43.70045" lon="1.01962">
        <ele>201.8</ele>
        <time>2015-06-10T12:43:59.000Z</time>
      </trkpt>
      <trkpt lat="43.70051" lon="1.0195">
        <ele>202</ele>
        <time>2015-06-10T12:44:07.000Z</time>
      </trkpt>
      <trkpt lat="43.70057" lon="1.01939">
        <ele>202</ele>
        <time>2015-06-10T12:44:15.000Z</time>
      </trkpt>
      <trkpt lat="43.70063" lon="1.01929">
        <ele>202.2</ele>
        <time>2015-06-10T12:44:23.000Z</time>
      </trkpt>
      <trkpt lat="43.70068" lon="1.01917">
        <ele>202.3</ele>
        <time>2015-06-10T12:44:30.000Z</time>
      </trkpt>
      <trkpt lat="43.70072" lon="1.01907">
        <ele>202.5</ele>
        <time>2015-06-10T12:44:37.000Z</time>
      </trkpt>
      <trkpt lat="43.70079" lon="1.01896">
        <ele>202.5</ele>
        <time>2015-06-10T12:44:45.000Z</time>
      </trkpt>
      <trkpt lat="43.70082" lon="1.01885">
        <ele>202.7</ele>
        <time>2015-06-10T12:44:52.000Z</time>
      </trkpt>
      <trkpt lat="43.70087" lon="1.01874">
        <ele>202.9</ele>
        <time>2015-06-10T12:45:04.000Z</time>
      </trkpt>
      <trkpt lat="43.70092" lon="1.01862">
        <ele>202.9</ele>
        <time>2015-06-10T12:45:14.000Z</time>
      </trkpt>
      <trkpt lat="43.70096" lon="1.01848">
        <ele>203.2</ele>
        <time>2015-06-10T12:45:22.000Z</time>
      </trkpt>
      <trkpt lat="43.701" lon="1.01836">
        <ele>203.3</ele>
        <time>2015-06-10T12:45:30.000Z</time>
      </trkpt>
      <trkpt lat="43.70103" lon="1.01823">
        <ele>203.2</ele>
        <time>2015-06-10T12:45:38.000Z</time>
      </trkpt>
      <trkpt lat="43.70107" lon="1.01811">
        <ele>203.5</ele>
        <time>2015-06-10T12:45:46.000Z</time>
      </trkpt>
      <trkpt lat="43.70111" lon="1.01798">
        <ele>203.9</ele>
        <time>2015-06-10T12:45:54.000Z</time>
      </trkpt>
      <trkpt lat="43.70114" lon="1.01786">
        <ele>203.7</ele>
        <time>2015-06-10T12:46:02.000Z</time>
      </trkpt>
      <trkpt lat="43.70117" lon="1.01773">
        <ele>203.8</ele>
        <time>2015-06-10T12:46:10.000Z</time>
      </trkpt>
      <trkpt lat="43.70123" lon="1.01762">
        <ele>203.8</ele>
        <time>2015-06-10T12:46:17.000Z</time>
      </trkpt>
      <trkpt lat="43.70127" lon="1.01751">
        <ele>204.2</ele>
        <time>2015-06-10T12:46:25.000Z</time>
      </trkpt>
      <trkpt lat="43.70131" lon="1.01739">
        <ele>204.2</ele>
        <time>2015-06-10T12:46:32.000Z</time>
      </trkpt>
      <trkpt lat="43.70136" lon="1.01728">
        <ele>204.3</ele>
        <time>2015-06-10T12:46:39.000Z</time>
      </trkpt>
      <trkpt lat="43.7014" lon="1.01717">
        <ele>204.3</ele>
        <time>2015-06-10T12:46:46.000Z</time>
      </trkpt>
      <trkpt lat="43.70143" lon="1.01705">
        <ele>204.1</ele>
        <time>2015-06-10T12:46:54.000Z</time>
      </trkpt>
      <trkpt lat="43.70147" lon="1.01692">
        <ele>203.8</ele>
        <time>2015-06-10T12:47:01.000Z</time>
      </trkpt>
      <trkpt lat="43.70151" lon="1.0168">
        <ele>204</ele>
        <time>2015-06-10T12:47:09.000Z</time>
      </trkpt>
      <trkpt lat="43.70156" lon="1.01669">
        <ele>203.9</ele>
        <time>2015-06-10T12:47:16.000Z</time>
      </trkpt>
      <trkpt lat="43.70161" lon="1.01658">
        <ele>203.9</ele>
        <time>2015-06-10T12:47:24.000Z</time>
      </trkpt>
      <trkpt lat="43.70166" lon="1.01645">
        <ele>203.7</ele>
        <time>2015-06-10T12:47:31.000Z</time>
      </trkpt>
      <trkpt lat="43.7017" lon="1.01634">
        <ele>203.9</ele>
        <time>2015-06-10T12:47:39.000Z</time>
      </trkpt>
      <trkpt lat="43.70175" lon="1.01623">
        <ele>204.1</ele>
        <time>2015-06-10T12:47:46.000Z</time>
      </trkpt>
      <trkpt lat="43.7018" lon="1.01611">
        <ele>204.1</ele>
        <time>2015-06-10T12:47:54.000Z</time>
      </trkpt>
      <trkpt lat="43.70187" lon="1.01602">
        <ele>204.2</ele>
        <time>2015-06-10T12:48:03.000Z</time>
      </trkpt>
      <trkpt lat="43.70193" lon="1.01592">
        <ele>204</ele>
        <time>2015-06-10T12:48:11.000Z</time>
      </trkpt>
      <trkpt lat="43.70197" lon="1.01579">
        <ele>203.9</ele>
        <time>2015-06-10T12:48:18.000Z</time>
      </trkpt>
      <trkpt lat="43.702" lon="1.01567">
        <ele>204.4</ele>
        <time>2015-06-10T12:48:27.000Z</time>
      </trkpt>
      <trkpt lat="43.70209" lon="1.01565">
        <ele>203.9</ele>
        <time>2015-06-10T12:50:41.000Z</time>
      </trkpt>
      <trkpt lat="43.70214" lon="1.01553">
        <ele>203.9</ele>
        <time>2015-06-10T12:50:47.000Z</time>
      </trkpt>
      <trkpt lat="43.70219" lon="1.01543">
        <ele>203.9</ele>
        <time>2015-06-10T12:50:56.000Z</time>
      </trkpt>
      <trkpt lat="43.70224" lon="1.01532">
        <ele>204.2</ele>
        <time>2015-06-10T12:51:04.000Z</time>
      </trkpt>
      <trkpt lat="43.70231" lon="1.01522">
        <ele>202.5</ele>
        <time>2015-06-10T12:51:13.000Z</time>
      </trkpt>
      <trkpt lat="43.70238" lon="1.01512">
        <ele>203.8</ele>
        <time>2015-06-10T12:51:22.000Z</time>
      </trkpt>
      <trkpt lat="43.70245" lon="1.01504">
        <ele>204.5</ele>
        <time>2015-06-10T12:51:30.000Z</time>
      </trkpt>
      <trkpt lat="43.70252" lon="1.01494">
        <ele>204.9</ele>
        <time>2015-06-10T12:51:38.000Z</time>
      </trkpt>
      <trkpt lat="43.7026" lon="1.01485">
        <ele>205.1</ele>
        <time>2015-06-10T12:51:46.000Z</time>
      </trkpt>
      <trkpt lat="43.70269" lon="1.01476">
        <ele>204.6</ele>
        <time>2015-06-10T12:51:55.000Z</time>
      </trkpt>
      <trkpt lat="43.70277" lon="1.01469">
        <ele>204.5</ele>
        <time>2015-06-10T12:52:02.000Z</time>
      </trkpt>
      <trkpt lat="43.70284" lon="1.0146">
        <ele>204.8</ele>
        <time>2015-06-10T12:52:10.000Z</time>
      </trkpt>
      <trkpt lat="43.7029" lon="1.01449">
        <ele>204.8</ele>
        <time>2015-06-10T12:52:16.000Z</time>
      </trkpt>
      <trkpt lat="43.70295" lon="1.01438">
        <ele>204.6</ele>
        <time>2015-06-10T12:52:23.000Z</time>
      </trkpt>
      <trkpt lat="43.70302" lon="1.01427">
        <ele>204.3</ele>
        <time>2015-06-10T12:52:32.000Z</time>
      </trkpt>
      <trkpt lat="43.70308" lon="1.01416">
        <ele>203.8</ele>
        <time>2015-06-10T12:52:41.000Z</time>
      </trkpt>
      <trkpt lat="43.70314" lon="1.01405">
        <ele>203.3</ele>
        <time>2015-06-10T12:52:49.000Z</time>
      </trkpt>
      <trkpt lat="43.70319" lon="1.01395">
        <ele>202.9</ele>
        <time>2015-06-10T12:52:57.000Z</time>
      </trkpt>
      <trkpt lat="43.70325" lon="1.01385">
        <ele>202.2</ele>
        <time>2015-06-10T12:53:06.000Z</time>
      </trkpt>
      <trkpt lat="43.70331" lon="1.01373">
        <ele>201.7</ele>
        <time>2015-06-10T12:53:15.000Z</time>
      </trkpt>
      <trkpt lat="43.70337" lon="1.01363">
        <ele>201.4</ele>
        <time>2015-06-10T12:53:23.000Z</time>
      </trkpt>
      <trkpt lat="43.70342" lon="1.01353">
        <ele>201</ele>
        <time>2015-06-10T12:53:31.000Z</time>
      </trkpt>
      <trkpt lat="43.70347" lon="1.01342">
        <ele>200.4</ele>
        <time>2015-06-10T12:53:39.000Z</time>
      </trkpt>
      <trkpt lat="43.70353" lon="1.01332">
        <ele>200.3</ele>
        <time>2015-06-10T12:53:47.000Z</time>
      </trkpt>
      <trkpt lat="43.7036" lon="1.01324">
        <ele>200</ele>
        <time>2015-06-10T12:53:54.000Z</time>
      </trkpt>
      <trkpt lat="43.70365" lon="1.01312">
        <ele>199.8</ele>
        <time>2015-06-10T12:54:02.000Z</time>
      </trkpt>
      <trkpt lat="43.7037" lon="1.01302">
        <ele>199.2</ele>
        <time>2015-06-10T12:54:10.000Z</time>
      </trkpt>
      <trkpt lat="43.70376" lon="1.01293">
        <ele>199</ele>
        <time>2015-06-10T12:54:23.000Z</time>
      </trkpt>
      <trkpt lat="43.70381" lon="1.0128">
        <ele>198.9</ele>
        <time>2015-06-10T12:54:30.000Z</time>
      </trkpt>
      <trkpt lat="43.70386" lon="1.0127">
        <ele>198.5</ele>
        <time>2015-06-10T12:54:37.000Z</time>
      </trkpt>
      <trkpt lat="43.70392" lon="1.01259">
        <ele>198.1</ele>
        <time>2015-06-10T12:54:45.000Z</time>
      </trkpt>
      <trkpt lat="43.70398" lon="1.01249">
        <ele>198.6</ele>
        <time>2015-06-10T12:54:54.000Z</time>
      </trkpt>
      <trkpt lat="43.70404" lon="1.01238">
        <ele>198.7</ele>
        <time>2015-06-10T12:55:02.000Z</time>
      </trkpt>
      <trkpt lat="43.7041" lon="1.01227">
        <ele>198.8</ele>
        <time>2015-06-10T12:55:11.000Z</time>
      </trkpt>
      <trkpt lat="43.70415" lon="1.01216">
        <ele>198.8</ele>
        <time>2015-06-10T12:55:19.000Z</time>
      </trkpt>
      <trkpt lat="43.7042" lon="1.01205">
        <ele>198.9</ele>
        <time>2015-06-10T12:55:27.000Z</time>
      </trkpt>
      <trkpt lat="43.70423" lon="1.01193">
        <ele>199.3</ele>
        <time>2015-06-10T12:55:34.000Z</time>
      </trkpt>
      <trkpt lat="43.70429" lon="1.01181">
        <ele>199.4</ele>
        <time>2015-06-10T12:55:42.000Z</time>
      </trkpt>
      <trkpt lat="43.70433" lon="1.01169">
        <ele>199.4</ele>
        <time>2015-06-10T12:55:50.000Z</time>
      </trkpt>
      <trkpt lat="43.70438" lon="1.01157">
        <ele>199.7</ele>
        <time>2015-06-10T12:55:58.000Z</time>
      </trkpt>
      <trkpt lat="43.7044" lon="1.01145">
        <ele>199.8</ele>
        <time>2015-06-10T12:56:06.000Z</time>
      </trkpt>
      <trkpt lat="43.70445" lon="1.01133">
        <ele>200</ele>
        <time>2015-06-10T12:56:14.000Z</time>
      </trkpt>
      <trkpt lat="43.70449" lon="1.01121">
        <ele>200.4</ele>
        <time>2015-06-10T12:56:22.000Z</time>
      </trkpt>
      <trkpt lat="43.70452" lon="1.01109">
        <ele>200.6</ele>
        <time>2015-06-10T12:56:29.000Z</time>
      </trkpt>
      <trkpt lat="43.70455" lon="1.01097">
        <ele>200.6</ele>
        <time>2015-06-10T12:56:36.000Z</time>
      </trkpt>
      <trkpt lat="43.70459" lon="1.01085">
        <ele>200.8</ele>
        <time>2015-06-10T12:56:43.000Z</time>
      </trkpt>
      <trkpt lat="43.70463" lon="1.01073">
        <ele>200.5</ele>
        <time>2015-06-10T12:56:51.000Z</time>
      </trkpt>
      <trkpt lat="43.70467" lon="1.01061">
        <ele>200.4</ele>
        <time>2015-06-10T12:56:59.000Z</time>
      </trkpt>
      <trkpt lat="43.70471" lon="1.01048">
        <ele>200.8</ele>
        <time>2015-06-10T12:57:08.000Z</time>
      </trkpt>
      <trkpt lat="43.70475" lon="1.01034">
        <ele>200.7</ele>
        <time>2015-06-10T12:57:16.000Z</time>
      </trkpt>
      <trkpt lat="43.70479" lon="1.01022">
        <ele>200.6</ele>
        <time>2015-06-10T12:57:23.000Z</time>
      </trkpt>
      <trkpt lat="43.70482" lon="1.0101">
        <ele>200.3</ele>
        <time>2015-06-10T12:57:30.000Z</time>
      </trkpt>
      <trkpt lat="43.70486" lon="1.00997">
        <ele>200.2</ele>
        <time>2015-06-10T12:57:37.000Z</time>
      </trkpt>
      <trkpt lat="43.7049" lon="1.00986">
        <ele>200.4</ele>
        <time>2015-06-10T12:57:45.000Z</time>
      </trkpt>
      <trkpt lat="43.70494" lon="1.00975">
        <ele>200.1</ele>
        <time>2015-06-10T12:57:53.000Z</time>
      </trkpt>
      <trkpt lat="43.70498" lon="1.00962">
        <ele>200.2</ele>
        <time>2015-06-10T12:58:02.000Z</time>
      </trkpt>
      <trkpt lat="43.70502" lon="1.00949">
        <ele>200.3</ele>
        <time>2015-06-10T12:58:09.000Z</time>
      </trkpt>
      <trkpt lat="43.70506" lon="1.00937">
        <ele>200.6</ele>
        <time>2015-06-10T12:58:17.000Z</time>
      </trkpt>
      <trkpt lat="43.70511" lon="1.00925">
        <ele>200.6</ele>
        <time>2015-06-10T12:58:25.000Z</time>
      </trkpt>
      <trkpt lat="43.70517" lon="1.00915">
        <ele>200.6</ele>
        <time>2015-06-10T12:58:33.000Z</time>
      </trkpt>
      <trkpt lat="43.70524" lon="1.00907">
        <ele>200.8</ele>
        <time>2015-06-10T12:58:41.000Z</time>
      </trkpt>
      <trkpt lat="43.70531" lon="1.00898">
        <ele>201</ele>
        <time>2015-06-10T12:58:49.000Z</time>
      </trkpt>
      <trkpt lat="43.70538" lon="1.00889">
        <ele>201.6</ele>
        <time>2015-06-10T12:58:57.000Z</time>
      </trkpt>
      <trkpt lat="43.70544" lon="1.0088">
        <ele>201.6</ele>
        <time>2015-06-10T12:59:04.000Z</time>
      </trkpt>
      <trkpt lat="43.70551" lon="1.00871">
        <ele>201.5</ele>
        <time>2015-06-10T12:59:12.000Z</time>
      </trkpt>
      <trkpt lat="43.70558" lon="1.00862">
        <ele>201.7</ele>
        <time>2015-06-10T12:59:21.000Z</time>
      </trkpt>
      <trkpt lat="43.70565" lon="1.00853">
        <ele>201.7</ele>
        <time>2015-06-10T12:59:28.000Z</time>
      </trkpt>
      <trkpt lat="43.70572" lon="1.00844">
        <ele>202.1</ele>
        <time>2015-06-10T12:59:36.000Z</time>
      </trkpt>
      <trkpt lat="43.70578" lon="1.00834">
        <ele>202</ele>
        <time>2015-06-10T12:59:44.000Z</time>
      </trkpt>
      <trkpt lat="43.70585" lon="1.00825">
        <ele>202.3</ele>
        <time>2015-06-10T12:59:52.000Z</time>
      </trkpt>
      <trkpt lat="43.70592" lon="1.00815">
        <ele>202.5</ele>
        <time>2015-06-10T13:00:00.000Z</time>
      </trkpt>
      <trkpt lat="43.70598" lon="1.00805">
        <ele>202.6</ele>
        <time>2015-06-10T13:00:07.000Z</time>
      </trkpt>
      <trkpt lat="43.70605" lon="1.00795">
        <ele>203</ele>
        <time>2015-06-10T13:00:15.000Z</time>
      </trkpt>
      <trkpt lat="43.70611" lon="1.00785">
        <ele>202.6</ele>
        <time>2015-06-10T13:00:23.000Z</time>
      </trkpt>
      <trkpt lat="43.70617" lon="1.00774">
        <ele>202.9</ele>
        <time>2015-06-10T13:00:31.000Z</time>
      </trkpt>
      <trkpt lat="43.7062" lon="1.00762">
        <ele>201.9</ele>
        <time>2015-06-10T13:00:39.000Z</time>
      </trkpt>
      <trkpt lat="43.70623" lon="1.0075">
        <ele>201.9</ele>
        <time>2015-06-10T13:00:47.000Z</time>
      </trkpt>
      <trkpt lat="43.70626" lon="1.00736">
        <ele>201.2</ele>
        <time>2015-06-10T13:00:56.000Z</time>
      </trkpt>
      <trkpt lat="43.70628" lon="1.00724">
        <ele>201.1</ele>
        <time>2015-06-10T13:01:04.000Z</time>
      </trkpt>
      <trkpt lat="43.70632" lon="1.00711">
        <ele>201.1</ele>
        <time>2015-06-10T13:01:11.000Z</time>
      </trkpt>
      <trkpt lat="43.70635" lon="1.00698">
        <ele>200.9</ele>
        <time>2015-06-10T13:01:19.000Z</time>
      </trkpt>
      <trkpt lat="43.70638" lon="1.00685">
        <ele>200.2</ele>
        <time>2015-06-10T13:01:27.000Z</time>
      </trkpt>
      <trkpt lat="43.7064" lon="1.00672">
        <ele>200</ele>
        <time>2015-06-10T13:01:36.000Z</time>
      </trkpt>
      <trkpt lat="43.7064" lon="1.00658">
        <ele>199.4</ele>
        <time>2015-06-10T13:01:44.000Z</time>
      </trkpt>
      <trkpt lat="43.70644" lon="1.00646">
        <ele>198.9</ele>
        <time>2015-06-10T13:01:52.000Z</time>
      </trkpt>
      <trkpt lat="43.70646" lon="1.00633">
        <ele>198.3</ele>
        <time>2015-06-10T13:02:00.000Z</time>
      </trkpt>
      <trkpt lat="43.70649" lon="1.00621">
        <ele>198</ele>
        <time>2015-06-10T13:02:08.000Z</time>
      </trkpt>
      <trkpt lat="43.70652" lon="1.00608">
        <ele>197.7</ele>
        <time>2015-06-10T13:02:16.000Z</time>
      </trkpt>
      <trkpt lat="43.70655" lon="1.00596">
        <ele>197.8</ele>
        <time>2015-06-10T13:02:25.000Z</time>
      </trkpt>
      <trkpt lat="43.70658" lon="1.00585">
        <ele>196.9</ele>
        <time>2015-06-10T13:02:32.000Z</time>
      </trkpt>
      <trkpt lat="43.70661" lon="1.00571">
        <ele>196.5</ele>
        <time>2015-06-10T13:02:40.000Z</time>
      </trkpt>
      <trkpt lat="43.70665" lon="1.0056">
        <ele>196.1</ele>
        <time>2015-06-10T13:02:47.000Z</time>
      </trkpt>
      <trkpt lat="43.70668" lon="1.00547">
        <ele>195.7</ele>
        <time>2015-06-10T13:02:56.000Z</time>
      </trkpt>
      <trkpt lat="43.70669" lon="1.00534">
        <ele>195.4</ele>
        <time>2015-06-10T13:03:04.000Z</time>
      </trkpt>
      <trkpt lat="43.70672" lon="1.00522">
        <ele>195.5</ele>
        <time>2015-06-10T13:03:13.000Z</time>
      </trkpt>
      <trkpt lat="43.70674" lon="1.00509">
        <ele>194.8</ele>
        <time>2015-06-10T13:03:22.000Z</time>
      </trkpt>
      <trkpt lat="43.70673" lon="1.00496">
        <ele>194.5</ele>
        <time>2015-06-10T13:03:28.000Z</time>
      </trkpt>
      <trkpt lat="43.70676" lon="1.00483">
        <ele>194.6</ele>
        <time>2015-06-10T13:03:36.000Z</time>
      </trkpt>
      <trkpt lat="43.70677" lon="1.00471">
        <ele>194</ele>
        <time>2015-06-10T13:03:44.000Z</time>
      </trkpt>
      <trkpt lat="43.70677" lon="1.00457">
        <ele>193.2</ele>
        <time>2015-06-10T13:03:52.000Z</time>
      </trkpt>
      <trkpt lat="43.7068" lon="1.00444">
        <ele>193.2</ele>
        <time>2015-06-10T13:03:58.000Z</time>
      </trkpt>
      <trkpt lat="43.70682" lon="1.0043">
        <ele>192.8</ele>
        <time>2015-06-10T13:04:05.000Z</time>
      </trkpt>
      <trkpt lat="43.70685" lon="1.00417">
        <ele>192.6</ele>
        <time>2015-06-10T13:04:13.000Z</time>
      </trkpt>
      <trkpt lat="43.70686" lon="1.00405">
        <ele>192.2</ele>
        <time>2015-06-10T13:04:22.000Z</time>
      </trkpt>
      <trkpt lat="43.70689" lon="1.00392">
        <ele>191.9</ele>
        <time>2015-06-10T13:04:29.000Z</time>
      </trkpt>
      <trkpt lat="43.7069" lon="1.00379">
        <ele>191.6</ele>
        <time>2015-06-10T13:04:37.000Z</time>
      </trkpt>
      <trkpt lat="43.70692" lon="1.00366">
        <ele>190.9</ele>
        <time>2015-06-10T13:04:45.000Z</time>
      </trkpt>
      <trkpt lat="43.70693" lon="1.00352">
        <ele>190.7</ele>
        <time>2015-06-10T13:04:52.000Z</time>
      </trkpt>
      <trkpt lat="43.70695" lon="1.00339">
        <ele>190.4</ele>
        <time>2015-06-10T13:05:01.000Z</time>
      </trkpt>
      <trkpt lat="43.70696" lon="1.00326">
        <ele>189.8</ele>
        <time>2015-06-10T13:05:10.000Z</time>
      </trkpt>
      <trkpt lat="43.70698" lon="1.00314">
        <ele>189.6</ele>
        <time>2015-06-10T13:05:17.000Z</time>
      </trkpt>
      <trkpt lat="43.70701" lon="1.003">
        <ele>189.5</ele>
        <time>2015-06-10T13:05:27.000Z</time>
      </trkpt>
      <trkpt lat="43.70704" lon="1.00286">
        <ele>189.6</ele>
        <time>2015-06-10T13:05:35.000Z</time>
      </trkpt>
      <trkpt lat="43.70708" lon="1.00273">
        <ele>189.1</ele>
        <time>2015-06-10T13:05:44.000Z</time>
      </trkpt>
      <trkpt lat="43.70708" lon="1.0026">
        <ele>189</ele>
        <time>2015-06-10T13:05:51.000Z</time>
      </trkpt>
      <trkpt lat="43.70712" lon="1.00247">
        <ele>188.5</ele>
        <time>2015-06-10T13:05:58.000Z</time>
      </trkpt>
      <trkpt lat="43.70713" lon="1.00235">
        <ele>188.3</ele>
        <time>2015-06-10T13:06:05.000Z</time>
      </trkpt>
      <trkpt lat="43.70715" lon="1.00223">
        <ele>188.3</ele>
        <time>2015-06-10T13:06:12.000Z</time>
      </trkpt>
      <trkpt lat="43.70717" lon="1.00209">
        <ele>187.9</ele>
        <time>2015-06-10T13:06:20.000Z</time>
      </trkpt>
      <trkpt lat="43.70718" lon="1.00195">
        <ele>187.8</ele>
        <time>2015-06-10T13:06:28.000Z</time>
      </trkpt>
      <trkpt lat="43.7072" lon="1.00183">
        <ele>187.5</ele>
        <time>2015-06-10T13:06:35.000Z</time>
      </trkpt>
      <trkpt lat="43.70722" lon="1.0017">
        <ele>187.2</ele>
        <time>2015-06-10T13:06:41.000Z</time>
      </trkpt>
      <trkpt lat="43.70723" lon="1.00157">
        <ele>186.9</ele>
        <time>2015-06-10T13:06:48.000Z</time>
      </trkpt>
      <trkpt lat="43.70725" lon="1.00144">
        <ele>186.9</ele>
        <time>2015-06-10T13:06:54.000Z</time>
      </trkpt>
      <trkpt lat="43.70725" lon="1.00131">
        <ele>186.7</ele>
        <time>2015-06-10T13:07:01.000Z</time>
      </trkpt>
      <trkpt lat="43.70726" lon="1.00118">
        <ele>186.1</ele>
        <time>2015-06-10T13:07:08.000Z</time>
      </trkpt>
      <trkpt lat="43.70726" lon="1.00104">
        <ele>185.5</ele>
        <time>2015-06-10T13:07:17.000Z</time>
      </trkpt>
      <trkpt lat="43.70728" lon="1.0009">
        <ele>185.3</ele>
        <time>2015-06-10T13:07:24.000Z</time>
      </trkpt>
      <trkpt lat="43.70731" lon="1.00076">
        <ele>184.5</ele>
        <time>2015-06-10T13:07:32.000Z</time>
      </trkpt>
      <trkpt lat="43.70732" lon="1.00063">
        <ele>184.7</ele>
        <time>2015-06-10T13:07:40.000Z</time>
      </trkpt>
      <trkpt lat="43.70733" lon="1.0005">
        <ele>184</ele>
        <time>2015-06-10T13:07:47.000Z</time>
      </trkpt>
      <trkpt lat="43.70736" lon="1.00037">
        <ele>183.9</ele>
        <time>2015-06-10T13:07:55.000Z</time>
      </trkpt>
      <trkpt lat="43.70737" lon="1.00023">
        <ele>183.3</ele>
        <time>2015-06-10T13:08:03.000Z</time>
      </trkpt>
      <trkpt lat="43.70741" lon="1.00011">
        <ele>183.1</ele>
        <time>2015-06-10T13:08:10.000Z</time>
      </trkpt>
      <trkpt lat="43.70743" lon="0.99997">
        <ele>182.8</ele>
        <time>2015-06-10T13:08:18.000Z</time>
      </trkpt>
      <trkpt lat="43.70746" lon="0.99984">
        <ele>182.1</ele>
        <time>2015-06-10T13:08:25.000Z</time>
      </trkpt>
      <trkpt lat="43.70748" lon="0.99971">
        <ele>181.7</ele>
        <time>2015-06-10T13:08:35.000Z</time>
      </trkpt>
      <trkpt lat="43.70749" lon="0.99958">
        <ele>181.4</ele>
        <time>2015-06-10T13:08:43.000Z</time>
      </trkpt>
      <trkpt lat="43.70751" lon="0.99946">
        <ele>181.4</ele>
        <time>2015-06-10T13:08:52.000Z</time>
      </trkpt>
      <trkpt lat="43.70753" lon="0.99932">
        <ele>181.4</ele>
        <time>2015-06-10T13:09:02.000Z</time>
      </trkpt>
      <trkpt lat="43.70756" lon="0.9992">
        <ele>181.1</ele>
        <time>2015-06-10T13:09:08.000Z</time>
      </trkpt>
      <trkpt lat="43.7076" lon="0.99908">
        <ele>180.9</ele>
        <time>2015-06-10T13:09:12.000Z</time>
      </trkpt>
      <trkpt lat="43.70762" lon="0.99895">
        <ele>180.6</ele>
        <time>2015-06-10T13:09:20.000Z</time>
      </trkpt>
      <trkpt lat="43.70764" lon="0.99882">
        <ele>179.8</ele>
        <time>2015-06-10T13:09:27.000Z</time>
      </trkpt>
      <trkpt lat="43.70767" lon="0.99868">
        <ele>179.8</ele>
        <time>2015-06-10T13:09:33.000Z</time>
      </trkpt>
      <trkpt lat="43.70768" lon="0.99854">
        <ele>179.4</ele>
        <time>2015-06-10T13:09:41.000Z</time>
      </trkpt>
      <trkpt lat="43.70769" lon="0.99841">
        <ele>178.9</ele>
        <time>2015-06-10T13:09:50.000Z</time>
      </trkpt>
      <trkpt lat="43.70772" lon="0.99828">
        <ele>179.2</ele>
        <time>2015-06-10T13:10:00.000Z</time>
      </trkpt>
      <trkpt lat="43.70777" lon="0.99817">
        <ele>179.2</ele>
        <time>2015-06-10T13:10:07.000Z</time>
      </trkpt>
      <trkpt lat="43.70787" lon="0.99821">
        <ele>175</ele>
        <time>2015-06-10T13:15:37.000Z</time>
      </trkpt>
      <trkpt lat="43.70797" lon="0.99823">
        <ele>175</ele>
        <time>2015-06-10T13:15:45.000Z</time>
      </trkpt>
      <trkpt lat="43.70807" lon="0.99824">
        <ele>175.2</ele>
        <time>2015-06-10T13:15:53.000Z</time>
      </trkpt>
      <trkpt lat="43.70816" lon="0.99827">
        <ele>175.5</ele>
        <time>2015-06-10T13:16:02.000Z</time>
      </trkpt>
      <trkpt lat="43.70826" lon="0.99829">
        <ele>175.8</ele>
        <time>2015-06-10T13:16:10.000Z</time>
      </trkpt>
      <trkpt lat="43.70836" lon="0.99833">
        <ele>176.1</ele>
        <time>2015-06-10T13:16:18.000Z</time>
      </trkpt>
      <trkpt lat="43.70845" lon="0.99837">
        <ele>176.7</ele>
        <time>2015-06-10T13:16:26.000Z</time>
      </trkpt>
      <trkpt lat="43.70855" lon="0.9984">
        <ele>177.3</ele>
        <time>2015-06-10T13:16:34.000Z</time>
      </trkpt>
      <trkpt lat="43.70864" lon="0.9984">
        <ele>178</ele>
        <time>2015-06-10T13:16:43.000Z</time>
      </trkpt>
      <trkpt lat="43.70873" lon="0.99844">
        <ele>178.8</ele>
        <time>2015-06-10T13:16:52.000Z</time>
      </trkpt>
      <trkpt lat="43.70883" lon="0.99847">
        <ele>179.8</ele>
        <time>2015-06-10T13:17:02.000Z</time>
      </trkpt>
      <trkpt lat="43.70892" lon="0.99848">
        <ele>180.5</ele>
        <time>2015-06-10T13:17:10.000Z</time>
      </trkpt>
      <trkpt lat="43.70901" lon="0.99854">
        <ele>181.3</ele>
        <time>2015-06-10T13:17:18.000Z</time>
      </trkpt>
      <trkpt lat="43.7091" lon="0.99857">
        <ele>182.2</ele>
        <time>2015-06-10T13:17:27.000Z</time>
      </trkpt>
      <trkpt lat="43.70919" lon="0.99858">
        <ele>182.9</ele>
        <time>2015-06-10T13:17:35.000Z</time>
      </trkpt>
      <trkpt lat="43.70929" lon="0.99858">
        <ele>183.6</ele>
        <time>2015-06-10T13:17:45.000Z</time>
      </trkpt>
      <trkpt lat="43.70938" lon="0.99854">
        <ele>184.4</ele>
        <time>2015-06-10T13:17:54.000Z</time>
      </trkpt>
      <trkpt lat="43.70948" lon="0.99851">
        <ele>185.3</ele>
        <time>2015-06-10T13:18:03.000Z</time>
      </trkpt>
      <trkpt lat="43.70958" lon="0.99846">
        <ele>186.1</ele>
        <time>2015-06-10T13:18:12.000Z</time>
      </trkpt>
      <trkpt lat="43.70967" lon="0.99842">
        <ele>186.9</ele>
        <time>2015-06-10T13:18:21.000Z</time>
      </trkpt>
      <trkpt lat="43.70976" lon="0.99839">
        <ele>187.7</ele>
        <time>2015-06-10T13:18:31.000Z</time>
      </trkpt>
      <trkpt lat="43.70985" lon="0.99838">
        <ele>188.7</ele>
        <time>2015-06-10T13:18:40.000Z</time>
      </trkpt>
      <trkpt lat="43.70995" lon="0.99834">
        <ele>189.6</ele>
        <time>2015-06-10T13:18:48.000Z</time>
      </trkpt>
      <trkpt lat="43.71004" lon="0.99832">
        <ele>190.8</ele>
        <time>2015-06-10T13:18:58.000Z</time>
      </trkpt>
      <trkpt lat="43.71013" lon="0.99829">
        <ele>191.6</ele>
        <time>2015-06-10T13:19:07.000Z</time>
      </trkpt>
      <trkpt lat="43.71022" lon="0.99827">
        <ele>192</ele>
        <time>2015-06-10T13:19:16.000Z</time>
      </trkpt>
      <trkpt lat="43.71032" lon="0.99829">
        <ele>192.2</ele>
        <time>2015-06-10T13:19:24.000Z</time>
      </trkpt>
      <trkpt lat="43.71041" lon="0.9983">
        <ele>192.2</ele>
        <time>2015-06-10T13:19:32.000Z</time>
      </trkpt>
      <trkpt lat="43.7105" lon="0.99828">
        <ele>191.6</ele>
        <time>2015-06-10T13:19:39.000Z</time>
      </trkpt>
      <trkpt lat="43.71059" lon="0.9983">
        <ele>190.6</ele>
        <time>2015-06-10T13:19:48.000Z</time>
      </trkpt>
      <trkpt lat="43.71068" lon="0.99832">
        <ele>190.2</ele>
        <time>2015-06-10T13:19:54.000Z</time>
      </trkpt>
      <trkpt lat="43.71077" lon="0.99833">
        <ele>189</ele>
        <time>2015-06-10T13:20:00.000Z</time>
      </trkpt>
      <trkpt lat="43.71087" lon="0.99834">
        <ele>187.7</ele>
        <time>2015-06-10T13:20:09.000Z</time>
      </trkpt>
      <trkpt lat="43.71096" lon="0.99836">
        <ele>186.6</ele>
        <time>2015-06-10T13:20:17.000Z</time>
      </trkpt>
      <trkpt lat="43.71106" lon="0.99838">
        <ele>185.5</ele>
        <time>2015-06-10T13:20:26.000Z</time>
      </trkpt>
      <trkpt lat="43.71115" lon="0.99841">
        <ele>184.8</ele>
        <time>2015-06-10T13:20:32.000Z</time>
      </trkpt>
      <trkpt lat="43.71124" lon="0.99845">
        <ele>184.2</ele>
        <time>2015-06-10T13:20:40.000Z</time>
      </trkpt>
      <trkpt lat="43.71135" lon="0.99845">
        <ele>182.7</ele>
        <time>2015-06-10T13:20:52.000Z</time>
      </trkpt>
      <trkpt lat="43.71145" lon="0.99849">
        <ele>181.8</ele>
        <time>2015-06-10T13:20:59.000Z</time>
      </trkpt>
      <trkpt lat="43.71153" lon="0.99853">
        <ele>181.2</ele>
        <time>2015-06-10T13:21:05.000Z</time>
      </trkpt>
      <trkpt lat="43.71162" lon="0.99856">
        <ele>180.8</ele>
        <time>2015-06-10T13:21:12.000Z</time>
      </trkpt>
      <trkpt lat="43.7117" lon="0.99863">
        <ele>180.2</ele>
        <time>2015-06-10T13:21:19.000Z</time>
      </trkpt>
      <trkpt lat="43.7118" lon="0.99866">
        <ele>179.4</ele>
        <time>2015-06-10T13:21:26.000Z</time>
      </trkpt>
      <trkpt lat="43.71189" lon="0.99868">
        <ele>178.8</ele>
        <time>2015-06-10T13:21:34.000Z</time>
      </trkpt>
      <trkpt lat="43.71198" lon="0.99872">
        <ele>178</ele>
        <time>2015-06-10T13:21:39.000Z</time>
      </trkpt>
      <trkpt lat="43.71207" lon="0.99875">
        <ele>177.3</ele>
        <time>2015-06-10T13:21:46.000Z</time>
      </trkpt>
      <trkpt lat="43.71215" lon="0.9988">
        <ele>176.7</ele>
        <time>2015-06-10T13:21:53.000Z</time>
      </trkpt>
      <trkpt lat="43.71224" lon="0.99885">
        <ele>175.9</ele>
        <time>2015-06-10T13:22:01.000Z</time>
      </trkpt>
      <trkpt lat="43.71233" lon="0.99889">
        <ele>174.9</ele>
        <time>2015-06-10T13:22:10.000Z</time>
      </trkpt>
      <trkpt lat="43.71243" lon="0.99892">
        <ele>174</ele>
        <time>2015-06-10T13:22:18.000Z</time>
      </trkpt>
      <trkpt lat="43.71252" lon="0.99898">
        <ele>173.6</ele>
        <time>2015-06-10T13:22:25.000Z</time>
      </trkpt>
      <trkpt lat="43.7126" lon="0.99904">
        <ele>172.6</ele>
        <time>2015-06-10T13:22:32.000Z</time>
      </trkpt>
      <trkpt lat="43.71269" lon="0.99908">
        <ele>171.8</ele>
        <time>2015-06-10T13:22:39.000Z</time>
      </trkpt>
      <trkpt lat="43.71278" lon="0.99915">
        <ele>170.8</ele>
        <time>2015-06-10T13:22:47.000Z</time>
      </trkpt>
      <trkpt lat="43.71285" lon="0.99923">
        <ele>170.4</ele>
        <time>2015-06-10T13:22:53.000Z</time>
      </trkpt>
      <trkpt lat="43.71293" lon="0.9993">
        <ele>169.8</ele>
        <time>2015-06-10T13:23:01.000Z</time>
      </trkpt>
      <trkpt lat="43.71301" lon="0.99938">
        <ele>168.9</ele>
        <time>2015-06-10T13:23:09.000Z</time>
      </trkpt>
      <trkpt lat="43.71309" lon="0.99946">
        <ele>168.6</ele>
        <time>2015-06-10T13:23:19.000Z</time>
      </trkpt>
      <trkpt lat="43.71319" lon="0.99947">
        <ele>168.4</ele>
        <time>2015-06-10T13:23:26.000Z</time>
      </trkpt>
      <trkpt lat="43.71328" lon="0.99947">
        <ele>168.3</ele>
        <time>2015-06-10T13:23:33.000Z</time>
      </trkpt>
      <trkpt lat="43.71338" lon="0.99949">
        <ele>168.2</ele>
        <time>2015-06-10T13:23:40.000Z</time>
      </trkpt>
      <trkpt lat="43.71348" lon="0.9995">
        <ele>168.2</ele>
        <time>2015-06-10T13:23:48.000Z</time>
      </trkpt>
      <trkpt lat="43.71358" lon="0.9995">
        <ele>167.9</ele>
        <time>2015-06-10T13:23:55.000Z</time>
      </trkpt>
      <trkpt lat="43.71367" lon="0.99954">
        <ele>167.9</ele>
        <time>2015-06-10T13:24:01.000Z</time>
      </trkpt>
      <trkpt lat="43.71377" lon="0.99957">
        <ele>167.7</ele>
        <time>2015-06-10T13:24:08.000Z</time>
      </trkpt>
      <trkpt lat="43.71387" lon="0.99956">
        <ele>167.2</ele>
        <time>2015-06-10T13:24:16.000Z</time>
      </trkpt>
      <trkpt lat="43.71396" lon="0.99953">
        <ele>167.2</ele>
        <time>2015-06-10T13:24:22.000Z</time>
      </trkpt>
      <trkpt lat="43.71405" lon="0.99949">
        <ele>166.7</ele>
        <time>2015-06-10T13:24:29.000Z</time>
      </trkpt>
      <trkpt lat="43.71414" lon="0.99944">
        <ele>166</ele>
        <time>2015-06-10T13:24:37.000Z</time>
      </trkpt>
      <trkpt lat="43.71424" lon="0.99941">
        <ele>165.2</ele>
        <time>2015-06-10T13:24:44.000Z</time>
      </trkpt>
      <trkpt lat="43.71433" lon="0.99937">
        <ele>164.2</ele>
        <time>2015-06-10T13:24:52.000Z</time>
      </trkpt>
      <trkpt lat="43.71443" lon="0.99934">
        <ele>163.6</ele>
        <time>2015-06-10T13:24:59.000Z</time>
      </trkpt>
      <trkpt lat="43.71452" lon="0.9993">
        <ele>162.5</ele>
        <time>2015-06-10T13:25:08.000Z</time>
      </trkpt>
      <trkpt lat="43.71461" lon="0.99927">
        <ele>161.7</ele>
        <time>2015-06-10T13:25:15.000Z</time>
      </trkpt>
      <trkpt lat="43.71471" lon="0.99924">
        <ele>160.9</ele>
        <time>2015-06-10T13:25:23.000Z</time>
      </trkpt>
      <trkpt lat="43.7148" lon="0.99924">
        <ele>159.9</ele>
        <time>2015-06-10T13:25:32.000Z</time>
      </trkpt>
      <trkpt lat="43.71489" lon="0.99927">
        <ele>159.3</ele>
        <time>2015-06-10T13:25:39.000Z</time>
      </trkpt>
      <trkpt lat="43.71498" lon="0.99931">
        <ele>159</ele>
        <time>2015-06-10T13:25:46.000Z</time>
      </trkpt>
      <trkpt lat="43.71507" lon="0.99925">
        <ele>156.5</ele>
        <time>2015-06-10T13:28:57.000Z</time>
      </trkpt>
      <trkpt lat="43.71514" lon="0.99916">
        <ele>156.4</ele>
        <time>2015-06-10T13:29:02.000Z</time>
      </trkpt>
      <trkpt lat="43.71521" lon="0.99904">
        <ele>156.5</ele>
        <time>2015-06-10T13:29:08.000Z</time>
      </trkpt>
      <trkpt lat="43.71527" lon="0.99892">
        <ele>156.3</ele>
        <time>2015-06-10T13:29:13.000Z</time>
      </trkpt>
      <trkpt lat="43.71531" lon="0.9988">
        <ele>156.4</ele>
        <time>2015-06-10T13:29:18.000Z</time>
      </trkpt>
      <trkpt lat="43.71535" lon="0.99869">
        <ele>155.8</ele>
        <time>2015-06-10T13:29:23.000Z</time>
      </trkpt>
      <trkpt lat="43.71539" lon="0.99856">
        <ele>155.4</ele>
        <time>2015-06-10T13:29:30.000Z</time>
      </trkpt>
      <trkpt lat="43.71544" lon="0.99844">
        <ele>155.2</ele>
        <time>2015-06-10T13:29:37.000Z</time>
      </trkpt>
      <trkpt lat="43.71548" lon="0.99833">
        <ele>155</ele>
        <time>2015-06-10T13:29:45.000Z</time>
      </trkpt>
      <trkpt lat="43.7155" lon="0.99819">
        <ele>154.7</ele>
        <time>2015-06-10T13:29:52.000Z</time>
      </trkpt>
      <trkpt lat="43.71553" lon="0.99807">
        <ele>154.5</ele>
        <time>2015-06-10T13:29:59.000Z</time>
      </trkpt>
      <trkpt lat="43.71556" lon="0.99795">
        <ele>154.2</ele>
        <time>2015-06-10T13:30:07.000Z</time>
      </trkpt>
      <trkpt lat="43.7156" lon="0.99783">
        <ele>153.8</ele>
        <time>2015-06-10T13:30:14.000Z</time>
      </trkpt>
      <trkpt lat="43.71565" lon="0.99772">
        <ele>153.5</ele>
        <time>2015-06-10T13:30:22.000Z</time>
      </trkpt>
      <trkpt lat="43.71568" lon="0.99759">
        <ele>153.3</ele>
        <time>2015-06-10T13:30:31.000Z</time>
      </trkpt>
      <trkpt lat="43.71571" lon="0.99747">
        <ele>152.9</ele>
        <time>2015-06-10T13:30:39.000Z</time>
      </trkpt>
      <trkpt lat="43.71574" lon="0.99734">
        <ele>152.5</ele>
        <time>2015-06-10T13:30:47.000Z</time>
      </trkpt>
      <trkpt lat="43.71578" lon="0.99721">
        <ele>152.1</ele>
        <time>2015-06-10T13:30:56.000Z</time>
      </trkpt>
      <trkpt lat="43.7158" lon="0.99709">
        <ele>151.6</ele>
        <time>2015-06-10T13:31:04.000Z</time>
      </trkpt>
      <trkpt lat="43.7158" lon="0.99695">
        <ele>151.5</ele>
        <time>2015-06-10T13:31:12.000Z</time>
      </trkpt>
      <trkpt lat="43.71582" lon="0.99682">
        <ele>151.3</ele>
        <time>2015-06-10T13:31:19.000Z</time>
      </trkpt>
      <trkpt lat="43.71583" lon="0.99669">
        <ele>151.2</ele>
        <time>2015-06-10T13:31:26.000Z</time>
      </trkpt>
      <trkpt lat="43.71584" lon="0.99656">
        <ele>151.3</ele>
        <time>2015-06-10T13:31:34.000Z</time>
      </trkpt>
      <trkpt lat="43.71584" lon="0.99642">
        <ele>151</ele>
        <time>2015-06-10T13:31:43.000Z</time>
      </trkpt>
      <trkpt lat="43.71587" lon="0.9963">
        <ele>150.9</ele>
        <time>2015-06-10T13:31:50.000Z</time>
      </trkpt>
      <trkpt lat="43.71591" lon="0.99617">
        <ele>150.6</ele>
        <time>2015-06-10T13:31:58.000Z</time>
      </trkpt>
      <trkpt lat="43.71596" lon="0.99604">
        <ele>150.3</ele>
        <time>2015-06-10T13:32:05.000Z</time>
      </trkpt>
      <trkpt lat="43.716" lon="0.99592">
        <ele>150.3</ele>
        <time>2015-06-10T13:32:12.000Z</time>
      </trkpt>
      <trkpt lat="43.71606" lon="0.99581">
        <ele>150.1</ele>
        <time>2015-06-10T13:32:19.000Z</time>
      </trkpt>
      <trkpt lat="43.71609" lon="0.99569">
        <ele>150</ele>
        <time>2015-06-10T13:32:25.000Z</time>
      </trkpt>
      <trkpt lat="43.71612" lon="0.99556">
        <ele>149.9</ele>
        <time>2015-06-10T13:32:32.000Z</time>
      </trkpt>
      <trkpt lat="43.71617" lon="0.99546">
        <ele>149.6</ele>
        <time>2015-06-10T13:32:39.000Z</time>
      </trkpt>
      <trkpt lat="43.7162" lon="0.99532">
        <ele>149.4</ele>
        <time>2015-06-10T13:32:47.000Z</time>
      </trkpt>
      <trkpt lat="43.71623" lon="0.9952">
        <ele>148.9</ele>
        <time>2015-06-10T13:32:54.000Z</time>
      </trkpt>
      <trkpt lat="43.71629" lon="0.99509">
        <ele>148.2</ele>
        <time>2015-06-10T13:33:03.000Z</time>
      </trkpt>
      <trkpt lat="43.71634" lon="0.99499">
        <ele>147.8</ele>
        <time>2015-06-10T13:33:11.000Z</time>
      </trkpt>
      <trkpt lat="43.71638" lon="0.99486">
        <ele>147</ele>
        <time>2015-06-10T13:33:21.000Z</time>
      </trkpt>
      <trkpt lat="43.71643" lon="0.99475">
        <ele>146.9</ele>
        <time>2015-06-10T13:33:28.000Z</time>
      </trkpt>
      <trkpt lat="43.7165" lon="0.99465">
        <ele>146.6</ele>
        <time>2015-06-10T13:33:35.000Z</time>
      </trkpt>
      <trkpt lat="43.71655" lon="0.99452">
        <ele>146.4</ele>
        <time>2015-06-10T13:33:41.000Z</time>
      </trkpt>
      <trkpt lat="43.71657" lon="0.9944">
        <ele>146.5</ele>
        <time>2015-06-10T13:33:46.000Z</time>
      </trkpt>
      <trkpt lat="43.71661" lon="0.99429">
        <ele>146.5</ele>
        <time>2015-06-10T13:33:52.000Z</time>
      </trkpt>
      <trkpt lat="43.71668" lon="0.99419">
        <ele>146.3</ele>
        <time>2015-06-10T13:33:58.000Z</time>
      </trkpt>
      <trkpt lat="43.71675" lon="0.99409">
        <ele>145.8</ele>
        <time>2015-06-10T13:34:08.000Z</time>
      </trkpt>
      <trkpt lat="43.71684" lon="0.99403">
        <ele>145.1</ele>
        <time>2015-06-10T13:34:20.000Z</time>
      </trkpt>
      <trkpt lat="43.71691" lon="0.99396">
        <ele>144.9</ele>
        <time>2015-06-10T13:34:31.000Z</time>
      </trkpt>
      <trkpt lat="43.71695" lon="0.99385">
        <ele>144.4</ele>
        <time>2015-06-10T13:34:36.000Z</time>
      </trkpt>
      <trkpt lat="43.71704" lon="0.99379">
        <ele>144.2</ele>
        <time>2015-06-10T13:34:42.000Z</time>
      </trkpt>
      <trkpt lat="43.71712" lon="0.99371">
        <ele>143.7</ele>
        <time>2015-06-10T13:34:50.000Z</time>
      </trkpt>
      <trkpt lat="43.71717" lon="0.99361">
        <ele>143.6</ele>
        <time>2015-06-10T13:34:56.000Z</time>
      </trkpt>
      <trkpt lat="43.71723" lon="0.99351">
        <ele>143.7</ele>
        <time>2015-06-10T13:35:04.000Z</time>
      </trkpt>
      <trkpt lat="43.7173" lon="0.99341">
        <ele>143.3</ele>
        <time>2015-06-10T13:35:11.000Z</time>
      </trkpt>
      <trkpt lat="43.71737" lon="0.99331">
        <ele>143.2</ele>
        <time>2015-06-10T13:35:19.000Z</time>
      </trkpt>
      <trkpt lat="43.71747" lon="0.99329">
        <ele>143.4</ele>
        <time>2015-06-10T13:35:29.000Z</time>
      </trkpt>
      <trkpt lat="43.71754" lon="0.99321">
        <ele>143.3</ele>
        <time>2015-06-10T13:35:38.000Z</time>
      </trkpt>
      <trkpt lat="43.71759" lon="0.9931">
        <ele>143</ele>
        <time>2015-06-10T13:35:47.000Z</time>
      </trkpt>
      <trkpt lat="43.71766" lon="0.993">
        <ele>142.7</ele>
        <time>2015-06-10T13:35:56.000Z</time>
      </trkpt>
      <trkpt lat="43.71773" lon="0.99291">
        <ele>142.4</ele>
        <time>2015-06-10T13:36:04.000Z</time>
      </trkpt>
      <trkpt lat="43.7178" lon="0.99282">
        <ele>141.6</ele>
        <time>2015-06-10T13:36:10.000Z</time>
      </trkpt>
      <trkpt lat="43.71787" lon="0.99273">
        <ele>141.3</ele>
        <time>2015-06-10T13:36:19.000Z</time>
      </trkpt>
      <trkpt lat="43.71795" lon="0.99265">
        <ele>141.1</ele>
        <time>2015-06-10T13:36:27.000Z</time>
      </trkpt>
      <trkpt lat="43.71802" lon="0.99256">
        <ele>140.9</ele>
        <time>2015-06-10T13:36:35.000Z</time>
      </trkpt>
      <trkpt lat="43.71808" lon="0.99246">
        <ele>140.8</ele>
        <time>2015-06-10T13:36:44.000Z</time>
      </trkpt>
      <trkpt lat="43.71816" lon="0.99237">
        <ele>140.7</ele>
        <time>2015-06-10T13:36:52.000Z</time>
      </trkpt>
      <trkpt lat="43.71823" lon="0.99228">
        <ele>140.7</ele>
        <time>2015-06-10T13:36:59.000Z</time>
      </trkpt>
      <trkpt lat="43.71831" lon="0.99218">
        <ele>140.6</ele>
        <time>2015-06-10T13:37:08.000Z</time>
      </trkpt>
      <trkpt lat="43.71839" lon="0.99208">
        <ele>140.4</ele>
        <time>2015-06-10T13:37:17.000Z</time>
      </trkpt>
      <trkpt lat="43.71846" lon="0.99199">
        <ele>140.3</ele>
        <time>2015-06-10T13:37:24.000Z</time>
      </trkpt>
      <trkpt lat="43.71852" lon="0.9919">
        <ele>140.3</ele>
        <time>2015-06-10T13:37:31.000Z</time>
      </trkpt>
      <trkpt lat="43.71859" lon="0.9918">
        <ele>140.1</ele>
        <time>2015-06-10T13:37:38.000Z</time>
      </trkpt>
      <trkpt lat="43.71866" lon="0.99172">
        <ele>139.8</ele>
        <time>2015-06-10T13:37:44.000Z</time>
      </trkpt>
      <trkpt lat="43.71873" lon="0.99163">
        <ele>139.6</ele>
        <time>2015-06-10T13:37:51.000Z</time>
      </trkpt>
      <trkpt lat="43.7188" lon="0.99155">
        <ele>139.4</ele>
        <time>2015-06-10T13:37:58.000Z</time>
      </trkpt>
      <trkpt lat="43.71886" lon="0.99144">
        <ele>139.2</ele>
        <time>2015-06-10T13:38:05.000Z</time>
      </trkpt>
      <trkpt lat="43.71893" lon="0.99136">
        <ele>139</ele>
        <time>2015-06-10T13:38:12.000Z</time>
      </trkpt>
      <trkpt lat="43.719" lon="0.99127">
        <ele>138.9</ele>
        <time>2015-06-10T13:38:21.000Z</time>
      </trkpt>
      <trkpt lat="43.71907" lon="0.99119">
        <ele>138.4</ele>
        <time>2015-06-10T13:38:29.000Z</time>
      </trkpt>
      <trkpt lat="43.71913" lon="0.99109">
        <ele>138.4</ele>
        <time>2015-06-10T13:38:36.000Z</time>
      </trkpt>
      <trkpt lat="43.71913" lon="0.99096">
        <ele>138.3</ele>
        <time>2015-06-10T13:38:43.000Z</time>
      </trkpt>
      <trkpt lat="43.71912" lon="0.99084">
        <ele>138.4</ele>
        <time>2015-06-10T13:38:48.000Z</time>
      </trkpt>
      <trkpt lat="43.71915" lon="0.99072">
        <ele>138.4</ele>
        <time>2015-06-10T13:38:56.000Z</time>
      </trkpt>
      <trkpt lat="43.71919" lon="0.9906">
        <ele>140</ele>
        <time>2015-06-10T13:43:16.000Z</time>
      </trkpt>
      <trkpt lat="43.71926" lon="0.9905">
        <ele>140</ele>
        <time>2015-06-10T13:43:28.000Z</time>
      </trkpt>
      <trkpt lat="43.71933" lon="0.99041">
        <ele>140</ele>
        <time>2015-06-10T13:43:37.000Z</time>
      </trkpt>
      <trkpt lat="43.7194" lon="0.99034">
        <ele>140.3</ele>
        <time>2015-06-10T13:43:46.000Z</time>
      </trkpt>
      <trkpt lat="43.71947" lon="0.99025">
        <ele>140.5</ele>
        <time>2015-06-10T13:43:54.000Z</time>
      </trkpt>
      <trkpt lat="43.71953" lon="0.99013">
        <ele>141</ele>
        <time>2015-06-10T13:44:03.000Z</time>
      </trkpt>
      <trkpt lat="43.71959" lon="0.99003">
        <ele>141.6</ele>
        <time>2015-06-10T13:44:11.000Z</time>
      </trkpt>
      <trkpt lat="43.71966" lon="0.98995">
        <ele>142.4</ele>
        <time>2015-06-10T13:44:20.000Z</time>
      </trkpt>
      <trkpt lat="43.71972" lon="0.98984">
        <ele>143.4</ele>
        <time>2015-06-10T13:44:29.000Z</time>
      </trkpt>
      <trkpt lat="43.71977" lon="0.98973">
        <ele>144.2</ele>
        <time>2015-06-10T13:44:37.000Z</time>
      </trkpt>
      <trkpt lat="43.71982" lon="0.98963">
        <ele>145.3</ele>
        <time>2015-06-10T13:44:46.000Z</time>
      </trkpt>
      <trkpt lat="43.71986" lon="0.98951">
        <ele>146.3</ele>
        <time>2015-06-10T13:44:54.000Z</time>
      </trkpt>
      <trkpt lat="43.71991" lon="0.9894">
        <ele>147.4</ele>
        <time>2015-06-10T13:45:02.000Z</time>
      </trkpt>
      <trkpt lat="43.71995" lon="0.98928">
        <ele>148.7</ele>
        <time>2015-06-10T13:45:12.000Z</time>
      </trkpt>
      <trkpt lat="43.71999" lon="0.98916">
        <ele>150</ele>
        <time>2015-06-10T13:45:22.000Z</time>
      </trkpt>
      <trkpt lat="43.72006" lon="0.98906">
        <ele>151.2</ele>
        <time>2015-06-10T13:45:31.000Z</time>
      </trkpt>
      <trkpt lat="43.72011" lon="0.98894">
        <ele>152.3</ele>
        <time>2015-06-10T13:45:39.000Z</time>
      </trkpt>
      <trkpt lat="43.72017" lon="0.98883">
        <ele>153.4</ele>
        <time>2015-06-10T13:45:47.000Z</time>
      </trkpt>
      <trkpt lat="43.72022" lon="0.98872">
        <ele>154.6</ele>
        <time>2015-06-10T13:45:56.000Z</time>
      </trkpt>
      <trkpt lat="43.72028" lon="0.98862">
        <ele>156.1</ele>
        <time>2015-06-10T13:46:05.000Z</time>
      </trkpt>
      <trkpt lat="43.72031" lon="0.98848">
        <ele>157.2</ele>
        <time>2015-06-10T13:46:12.000Z</time>
      </trkpt>
      <trkpt lat="43.72037" lon="0.98837">
        <ele>159</ele>
        <time>2015-06-10T13:46:22.000Z</time>
      </trkpt>
      <trkpt lat="43.7204" lon="0.98825">
        <ele>160.5</ele>
        <time>2015-06-10T13:46:31.000Z</time>
      </trkpt>
      <trkpt lat="43.72043" lon="0.98812">
        <ele>161.7</ele>
        <time>2015-06-10T13:46:39.000Z</time>
      </trkpt>
      <trkpt lat="43.72046" lon="0.988">
        <ele>162.8</ele>
        <time>2015-06-10T13:46:46.000Z</time>
      </trkpt>
      <trkpt lat="43.72048" lon="0.98787">
        <ele>163.9</ele>
        <time>2015-06-10T13:46:55.000Z</time>
      </trkpt>
      <trkpt lat="43.72052" lon="0.98774">
        <ele>165.3</ele>
        <time>2015-06-10T13:47:05.000Z</time>
      </trkpt>
      <trkpt lat="43.72055" lon="0.98762">
        <ele>166.4</ele>
        <time>2015-06-10T13:47:14.000Z</time>
      </trkpt>
      <trkpt lat="43.7206" lon="0.9875">
        <ele>168</ele>
        <time>2015-06-10T13:47:23.000Z</time>
      </trkpt>
      <trkpt lat="43.72063" lon="0.98737">
        <ele>169</ele>
        <time>2015-06-10T13:47:30.000Z</time>
      </trkpt>
      <trkpt lat="43.72067" lon="0.98724">
        <ele>170.2</ele>
        <time>2015-06-10T13:47:40.000Z</time>
      </trkpt>
      <trkpt lat="43.72069" lon="0.98712">
        <ele>171.1</ele>
        <time>2015-06-10T13:47:47.000Z</time>
      </trkpt>
      <trkpt lat="43.72072" lon="0.987">
        <ele>171.9</ele>
        <time>2015-06-10T13:47:54.000Z</time>
      </trkpt>
      <trkpt lat="43.72075" lon="0.98687">
        <ele>172.5</ele>
        <time>2015-06-10T13:48:02.000Z</time>
      </trkpt>
      <trkpt lat="43.72078" lon="0.98674">
        <ele>173.1</ele>
        <time>2015-06-10T13:48:10.000Z</time>
      </trkpt>
      <trkpt lat="43.72081" lon="0.9866">
        <ele>173.7</ele>
        <time>2015-06-10T13:48:17.000Z</time>
      </trkpt>
      <trkpt lat="43.72085" lon="0.98649">
        <ele>174.9</ele>
        <time>2015-06-10T13:48:27.000Z</time>
      </trkpt>
      <trkpt lat="43.72089" lon="0.98636">
        <ele>175.4</ele>
        <time>2015-06-10T13:48:35.000Z</time>
      </trkpt>
      <trkpt lat="43.72092" lon="0.98623">
        <ele>175.9</ele>
        <time>2015-06-10T13:48:43.000Z</time>
      </trkpt>
      <trkpt lat="43.72095" lon="0.98611">
        <ele>176.5</ele>
        <time>2015-06-10T13:48:52.000Z</time>
      </trkpt>
      <trkpt lat="43.72098" lon="0.98599">
        <ele>176.9</ele>
        <time>2015-06-10T13:48:59.000Z</time>
      </trkpt>
      <trkpt lat="43.72101" lon="0.98587">
        <ele>177.1</ele>
        <time>2015-06-10T13:49:06.000Z</time>
      </trkpt>
      <trkpt lat="43.72104" lon="0.98574">
        <ele>177.7</ele>
        <time>2015-06-10T13:49:14.000Z</time>
      </trkpt>
      <trkpt lat="43.72107" lon="0.98561">
        <ele>177.8</ele>
        <time>2015-06-10T13:49:21.000Z</time>
      </trkpt>
      <trkpt lat="43.72112" lon="0.98549">
        <ele>178.1</ele>
        <time>2015-06-10T13:49:29.000Z</time>
      </trkpt>
      <trkpt lat="43.72116" lon="0.98537">
        <ele>178.6</ele>
        <time>2015-06-10T13:49:37.000Z</time>
      </trkpt>
      <trkpt lat="43.72122" lon="0.98526">
        <ele>178.7</ele>
        <time>2015-06-10T13:49:44.000Z</time>
      </trkpt>
      <trkpt lat="43.72126" lon="0.98515">
        <ele>178.7</ele>
        <time>2015-06-10T13:49:53.000Z</time>
      </trkpt>
      <trkpt lat="43.72128" lon="0.98503">
        <ele>178.6</ele>
        <time>2015-06-10T13:50:00.000Z</time>
      </trkpt>
      <trkpt lat="43.72131" lon="0.98491">
        <ele>178.9</ele>
        <time>2015-06-10T13:50:08.000Z</time>
      </trkpt>
      <trkpt lat="43.72133" lon="0.98479">
        <ele>179</ele>
        <time>2015-06-10T13:50:15.000Z</time>
      </trkpt>
      <trkpt lat="43.72135" lon="0.98465">
        <ele>178.9</ele>
        <time>2015-06-10T13:50:23.000Z</time>
      </trkpt>
      <trkpt lat="43.72137" lon="0.98453">
        <ele>179</ele>
        <time>2015-06-10T13:50:30.000Z</time>
      </trkpt>
      <trkpt lat="43.7214" lon="0.98439">
        <ele>179.3</ele>
        <time>2015-06-10T13:50:38.000Z</time>
      </trkpt>
      <trkpt lat="43.72142" lon="0.98426">
        <ele>179.1</ele>
        <time>2015-06-10T13:50:48.000Z</time>
      </trkpt>
      <trkpt lat="43.72144" lon="0.98414">
        <ele>179.2</ele>
        <time>2015-06-10T13:50:56.000Z</time>
      </trkpt>
      <trkpt lat="43.72147" lon="0.984">
        <ele>179.4</ele>
        <time>2015-06-10T13:51:06.000Z</time>
      </trkpt>
      <trkpt lat="43.7215" lon="0.98388">
        <ele>179.7</ele>
        <time>2015-06-10T13:51:13.000Z</time>
      </trkpt>
      <trkpt lat="43.72155" lon="0.98376">
        <ele>179.8</ele>
        <time>2015-06-10T13:51:20.000Z</time>
      </trkpt>
      <trkpt lat="43.72157" lon="0.98364">
        <ele>179.9</ele>
        <time>2015-06-10T13:51:28.000Z</time>
      </trkpt>
      <trkpt lat="43.7216" lon="0.98352">
        <ele>180.2</ele>
        <time>2015-06-10T13:51:36.000Z</time>
      </trkpt>
      <trkpt lat="43.72161" lon="0.98338">
        <ele>180.7</ele>
        <time>2015-06-10T13:51:43.000Z</time>
      </trkpt>
      <trkpt lat="43.72162" lon="0.98326">
        <ele>181.1</ele>
        <time>2015-06-10T13:51:51.000Z</time>
      </trkpt>
      <trkpt lat="43.72165" lon="0.98314">
        <ele>180.9</ele>
        <time>2015-06-10T13:52:00.000Z</time>
      </trkpt>
      <trkpt lat="43.72169" lon="0.98301">
        <ele>180.6</ele>
        <time>2015-06-10T13:52:09.000Z</time>
      </trkpt>
      <trkpt lat="43.72172" lon="0.98288">
        <ele>180.5</ele>
        <time>2015-06-10T13:52:17.000Z</time>
      </trkpt>
      <trkpt lat="43.72176" lon="0.98275">
        <ele>180.3</ele>
        <time>2015-06-10T13:52:25.000Z</time>
      </trkpt>
      <trkpt lat="43.72179" lon="0.98263">
        <ele>180.1</ele>
        <time>2015-06-10T13:52:32.000Z</time>
      </trkpt>
      <trkpt lat="43.72183" lon="0.98251">
        <ele>180.2</ele>
        <time>2015-06-10T13:52:40.000Z</time>
      </trkpt>
      <trkpt lat="43.72188" lon="0.98238">
        <ele>180</ele>
        <time>2015-06-10T13:52:47.000Z</time>
      </trkpt>
      <trkpt lat="43.72193" lon="0.98227">
        <ele>179.6</ele>
        <time>2015-06-10T13:52:55.000Z</time>
      </trkpt>
      <trkpt lat="43.72198" lon="0.98215">
        <ele>179.3</ele>
        <time>2015-06-10T13:53:04.000Z</time>
      </trkpt>
      <trkpt lat="43.722" lon="0.98203">
        <ele>179</ele>
        <time>2015-06-10T13:53:13.000Z</time>
      </trkpt>
      <trkpt lat="43.72201" lon="0.9819">
        <ele>178.2</ele>
        <time>2015-06-10T13:53:20.000Z</time>
      </trkpt>
      <trkpt lat="43.72205" lon="0.98178">
        <ele>177.9</ele>
        <time>2015-06-10T13:53:28.000Z</time>
      </trkpt>
      <trkpt lat="43.72208" lon="0.98165">
        <ele>177.8</ele>
        <time>2015-06-10T13:53:35.000Z</time>
      </trkpt>
      <trkpt lat="43.72213" lon="0.98153">
        <ele>177.5</ele>
        <time>2015-06-10T13:53:43.000Z</time>
      </trkpt>
      <trkpt lat="43.72218" lon="0.98142">
        <ele>176.6</ele>
        <time>2015-06-10T13:53:51.000Z</time>
      </trkpt>
      <trkpt lat="43.72223" lon="0.98131">
        <ele>176</ele>
        <time>2015-06-10T13:54:00.000Z</time>
      </trkpt>
      <trkpt lat="43.72227" lon="0.9812">
        <ele>176.3</ele>
        <time>2015-06-10T13:54:07.000Z</time>
      </trkpt>
      <trkpt lat="43.72229" lon="0.98108">
        <ele>175.8</ele>
        <time>2015-06-10T13:54:14.000Z</time>
      </trkpt>
      <trkpt lat="43.72233" lon="0.98096">
        <ele>175.4</ele>
        <time>2015-06-10T13:54:21.000Z</time>
      </trkpt>
      <trkpt lat="43.72243" lon="0.98093">
        <ele>175.5</ele>
        <time>2015-06-10T13:54:29.000Z</time>
      </trkpt>
      <trkpt lat="43.72252" lon="0.98095">
        <ele>175.4</ele>
        <time>2015-06-10T13:54:36.000Z</time>
      </trkpt>
      <trkpt lat="43.72261" lon="0.98099">
        <ele>175.2</ele>
        <time>2015-06-10T13:54:43.000Z</time>
      </trkpt>
      <trkpt lat="43.7227" lon="0.98103">
        <ele>174.9</ele>
        <time>2015-06-10T13:54:51.000Z</time>
      </trkpt>
      <trkpt lat="43.72278" lon="0.9811">
        <ele>175.1</ele>
        <time>2015-06-10T13:55:00.000Z</time>
      </trkpt>
      <trkpt lat="43.72287" lon="0.98112">
        <ele>175.5</ele>
        <time>2015-06-10T13:55:09.000Z</time>
      </trkpt>
      <trkpt lat="43.72295" lon="0.98104">
        <ele>175.3</ele>
        <time>2015-06-10T13:55:17.000Z</time>
      </trkpt>
      <trkpt lat="43.72299" lon="0.98093">
        <ele>175.1</ele>
        <time>2015-06-10T13:55:29.000Z</time>
      </trkpt>
      <trkpt lat="43.72303" lon="0.98081">
        <ele>174.9</ele>
        <time>2015-06-10T13:55:42.000Z</time>
      </trkpt>
      <trkpt lat="43.72308" lon="0.98071">
        <ele>174.4</ele>
        <time>2015-06-10T13:55:58.000Z</time>
      </trkpt>
      <trkpt lat="43.72311" lon="0.98058">
        <ele>174.6</ele>
        <time>2015-06-10T13:56:09.000Z</time>
      </trkpt>
      <trkpt lat="43.72314" lon="0.98046">
        <ele>174.2</ele>
        <time>2015-06-10T13:56:19.000Z</time>
      </trkpt>
      <trkpt lat="43.72318" lon="0.98034">
        <ele>174.3</ele>
        <time>2015-06-10T13:56:28.000Z</time>
      </trkpt>
      <trkpt lat="43.72322" lon="0.98022">
        <ele>174.4</ele>
        <time>2015-06-10T13:56:37.000Z</time>
      </trkpt>
      <trkpt lat="43.72328" lon="0.98012">
        <ele>175.2</ele>
        <time>2015-06-10T13:58:42.000Z</time>
      </trkpt>
      <trkpt lat="43.72331" lon="0.97998">
        <ele>174.4</ele>
        <time>2015-06-10T13:58:50.000Z</time>
      </trkpt>
      <trkpt lat="43.72334" lon="0.97986">
        <ele>174.5</ele>
        <time>2015-06-10T13:58:58.000Z</time>
      </trkpt>
      <trkpt lat="43.72339" lon="0.97975">
        <ele>174.2</ele>
        <time>2015-06-10T13:59:14.000Z</time>
      </trkpt>
      <trkpt lat="43.72343" lon="0.97963">
        <ele>173.9</ele>
        <time>2015-06-10T13:59:22.000Z</time>
      </trkpt>
      <trkpt lat="43.72347" lon="0.97951">
        <ele>173.8</ele>
        <time>2015-06-10T13:59:31.000Z</time>
      </trkpt>
      <trkpt lat="43.72351" lon="0.97938">
        <ele>173.7</ele>
        <time>2015-06-10T13:59:39.000Z</time>
      </trkpt>
      <trkpt lat="43.72356" lon="0.97926">
        <ele>173.8</ele>
        <time>2015-06-10T13:59:47.000Z</time>
      </trkpt>
      <trkpt lat="43.7235" lon="0.97915">
        <ele>173.7</ele>
        <time>2015-06-10T13:59:57.000Z</time>
      </trkpt>
      <trkpt lat="43.72341" lon="0.97907">
        <ele>174</ele>
        <time>2015-06-10T14:00:06.000Z</time>
      </trkpt>
      <trkpt lat="43.72333" lon="0.979">
        <ele>174.2</ele>
        <time>2015-06-10T14:00:16.000Z</time>
      </trkpt>
      <trkpt lat="43.72325" lon="0.97893">
        <ele>174.1</ele>
        <time>2015-06-10T14:00:25.000Z</time>
      </trkpt>
      <trkpt lat="43.72316" lon="0.97887">
        <ele>174.3</ele>
        <time>2015-06-10T14:00:34.000Z</time>
      </trkpt>
      <trkpt lat="43.72308" lon="0.97882">
        <ele>174.5</ele>
        <time>2015-06-10T14:00:42.000Z</time>
      </trkpt>
      <trkpt lat="43.72299" lon="0.97877">
        <ele>174.9</ele>
        <time>2015-06-10T14:00:49.000Z</time>
      </trkpt>
      <trkpt lat="43.7229" lon="0.97871">
        <ele>175.4</ele>
        <time>2015-06-10T14:00:58.000Z</time>
      </trkpt>
      <trkpt lat="43.72282" lon="0.97865">
        <ele>175.6</ele>
        <time>2015-06-10T14:01:06.000Z</time>
      </trkpt>
      <trkpt lat="43.72273" lon="0.9786">
        <ele>175.7</ele>
        <time>2015-06-10T14:01:14.000Z</time>
      </trkpt>
      <trkpt lat="43.72266" lon="0.97851">
        <ele>175.8</ele>
        <time>2015-06-10T14:01:22.000Z</time>
      </trkpt>
      <trkpt lat="43.72258" lon="0.97843">
        <ele>176</ele>
        <time>2015-06-10T14:01:32.000Z</time>
      </trkpt>
      <trkpt lat="43.7225" lon="0.97837">
        <ele>176.4</ele>
        <time>2015-06-10T14:01:40.000Z</time>
      </trkpt>
      <trkpt lat="43.7224" lon="0.97833">
        <ele>176.7</ele>
        <time>2015-06-10T14:01:49.000Z</time>
      </trkpt>
      <trkpt lat="43.72231" lon="0.97828">
        <ele>177.1</ele>
        <time>2015-06-10T14:01:58.000Z</time>
      </trkpt>
      <trkpt lat="43.72223" lon="0.9782">
        <ele>177.7</ele>
        <time>2015-06-10T14:02:08.000Z</time>
      </trkpt>
      <trkpt lat="43.72215" lon="0.97816">
        <ele>178.1</ele>
        <time>2015-06-10T14:02:16.000Z</time>
      </trkpt>
      <trkpt lat="43.72206" lon="0.9781">
        <ele>178.6</ele>
        <time>2015-06-10T14:02:22.000Z</time>
      </trkpt>
      <trkpt lat="43.72198" lon="0.97802">
        <ele>179.1</ele>
        <time>2015-06-10T14:02:29.000Z</time>
      </trkpt>
      <trkpt lat="43.72198" lon="0.97789">
        <ele>179.5</ele>
        <time>2015-06-10T14:02:36.000Z</time>
      </trkpt>
      <trkpt lat="43.72194" lon="0.97777">
        <ele>180</ele>
        <time>2015-06-10T14:02:44.000Z</time>
      </trkpt>
      <trkpt lat="43.72187" lon="0.97768">
        <ele>180.4</ele>
        <time>2015-06-10T14:02:53.000Z</time>
      </trkpt>
      <trkpt lat="43.7218" lon="0.9776">
        <ele>180.7</ele>
        <time>2015-06-10T14:03:04.000Z</time>
      </trkpt>
      <trkpt lat="43.72174" lon="0.97745">
        <ele>181.7</ele>
        <time>2015-06-10T14:03:48.000Z</time>
      </trkpt>
      <trkpt lat="43.72179" lon="0.97751">
        <ele>181.9</ele>
        <time>2015-06-10T14:04:01.000Z</time>
      </trkpt>
    </trkseg>
  </trk>
</gpx>